     2.11           OBSERVATION DATA    G (GPS)             RINEX VERSION / TYPE
teqc 2010Oct21 OPUS Account 20111028 17:08:03UTC            PGM / RUN BY / DATE
U 1527                                                      MARKER NAME
3079                                                        MARKER NUMBER
CSMIDDLETON NGS                                             OBSERVER / AGENCY
0220280359 TRIMBLE 5700 NP 2.32 / SP 2.32                   REC # / TYPE / VERS
11885611 TRM41249.00 NONE                                   ANT # / TYPE
  -708444.4573 -5594777.9880  2969428.4114                  APPROX POSITION XYZ
        1.9990        0.0000        0.0000                  ANTENNA: DELTA H/E/N
     1     1                                                WAVELENGTH FACT L1/2
     5    L1    L2    C1    P1    P2                        # / TYPES OF OBSERV
    15                                                      LEAP SECONDS
  2011     8    25    15    48   30.0000000     GPS         TIME OF FIRST OBS
                                                            END OF HEADER
 11  8 25 15 48 30.0000000  0  9G03G06G07G10G13G16G19G23G08
   -203149.14857   -174382.41855  21078297.0314                   21078295.0984
    -96948.38757    -81196.04754  22815283.2894                   22815282.4774
   -330023.22357   -232649.55555  22243427.5164                   22243425.7664
    -95493.73856    -89323.06653  23963875.1024                   23963874.7114
   -125724.12557   -172935.57856  20048367.9304                   20048364.3984
      8506.31656      8064.28153  23219241.8984                   23219239.4104
   -561136.60557   -414237.34855  21069354.8134                   21069350.9184
   -220770.60958    -53512.45756  20376202.8134                   20376198.1844
   -325907.78956   -180140.52753  24171725.9384                   24171725.7774
 11  8 25 15 49  0.0000000  0 10G03G06G07G10G11G13G16G19G23G08
   -246935.25047   -208501.47345  21069965.0394                   21069962.5204
   -118166.43047    -97729.64144  22811246.5474                   22811245.4844
   -473605.79347   -344532.04345  22216105.0234                   22216102.6054
   -168532.26246   -146236.25043  23949976.7114                   23949975.7544
   -255472.98015                  24738068.047
   -219904.08647   -246322.57846  20030446.0394                   20030442.7114
     10293.79346      9457.07443  23219581.3674                   23219579.4224
   -679539.55947   -506499.38746  21046823.7974                   21046819.3014
   -258726.13348    -83088.21946  20368980.3754                   20368975.5164
   -479870.49646   -300111.40243  24142427.0634                   24142427.3954
 11  8 25 15 49 30.0000000  0 10G03G06G07G10G11G13G16G19G23G08
   -290216.53947   -242227.17245  21061728.1174                   21061726.4614
   -139030.70747   -113987.55144  22807275.8134                   22807274.6294
   -617240.43447   -456455.12945  22188771.8984                   22188768.9734
   -241204.19946   -202863.77043  23936147.2814                   23936146.3324
   -416118.46915                  24707497.813
   -313583.70747   -319319.69146  20012619.0234                   20012616.0274
     12020.23846     10802.30943  23219910.1254                   23219907.3364
   -797444.85547   -598373.64546  21024386.8914                   21024383.1334
   -296216.15648   -112301.25446  20361846.0084                   20361841.2734
   -633980.30546   -420196.92243  24113102.1174                   24113101.7074
 11  8 25 15 50  0.0000000  0 10G03G06G07G10G11G13G16G19G23G08
   -332915.70747   -275499.25445  21053602.8524                   21053601.4064
   -159463.96147   -129909.58244  22803387.7034                   22803385.9534
   -760847.39847   -568356.62945  22161444.5634                   22161441.9264
   -313432.41846   -259145.48042  23922402.7114                   23922402.0004
   -576917.395 5                  24676897.914
   -406682.98847   -391864.60546  19994902.8834                   19994899.8594
     13762.85546     12160.15243  23220242.0944                   23220239.8594
   -914771.87147   -689797.29745  21002060.4064                   21002056.4304
   -333162.97748   -141091.02046  20354815.1174                   20354810.9694
   -788158.40246   -540335.61743  24083763.0004                   24083762.4224
 11  8 25 15 50 30.0000000  0 10G03G06G07G10G11G13G16G19G23G08
   -375083.04347   -308356.94145  21045578.8204                   21045577.3404
   -179517.07447   -145535.40644  22799571.4694                   22799569.8244
   -904474.59047   -680273.89545  22134112.9534                   22134110.4614
   -385267.07046   -315120.56243  23908734.0864                   23908732.6294
   -737916.348 5                  24646261.203
   -499249.72347   -463994.54746  19977287.8914                   19977284.7304
     15471.21146     13491.29343  23220567.0084                   23220564.6764
  -1031567.50847   -780806.86746  20979835.0314                   20979830.6604
   -369616.51648   -169496.39545  20347878.3594                   20347873.8094
   -942453.81246   -660565.73843  24054400.4924                   24054401.1954
 11  8 25 15 51  0.0000000  0 11G03G06G07G10G11G13G16G19G28G23G08
   -416727.80147   -340807.41845  21037654.4224                   21037652.5354
   -199199.46546   -160872.35944  22795826.5164                   22795824.8284
  -1048128.48447   -792211.97745  22106777.0864                   22106774.0314
   -456716.84046   -370795.73443  23895136.8984                   23895135.9844
   -899120.05545    -96314.61752  24615585.0394                   24615586.1954
   -591290.25847   -535714.45746  19959773.5394                   19959770.2624
     17136.65246     14788.96944  23220883.9384                   23220881.3444
  -1147837.44947   -871406.82046  20957709.3914                   20957705.3444
   -255031.38356   -135500.73053  24582753.4694                   24582752.6054
   -405584.98848   -197523.80546  20341033.7664                   20341029.2304
  -1096873.46146   -780892.66443  24025016.4384                   24025016.1524
 11  8 25 15 51 30.0000000  0 11G03G06G07G10G11G13G16G19G28G23G08
   -457848.16047   -372849.27045  21029829.6644                   21029827.3634
   -218510.00047   -175919.57444  22792151.6414                   22792150.6254
  -1191805.30147   -904167.91445  22079434.8444                   22079433.6294
   -527780.27346   -426169.87943  23881613.5164                   23881613.0904
  -1060523.29345   -222083.29342  24584871.5474                   24584872.0594
   -682800.57047   -607021.20346  19942359.3444                   19942356.2814
     18760.35946     16054.14543  23221193.2584                   23221190.3754
  -1263577.37147   -961593.77345  20935684.9774                   20935680.5594
   -414881.64846   -260059.34443  24552334.1884                   24552334.8714
   -441066.66048   -225171.88746  20334282.2034                   20334277.4534
  -1251414.30546   -901314.04343  23995607.8524                   23995607.4694
 11  8 25 15 52  0.0000000  0 11G03G06G07G10G11G13G16G19G28G23G08
   -498443.98047   -404482.39845  21022104.3594                   21022102.7074
   -237449.24646   -190677.43744  22788547.1254                   22788546.4414
  -1335502.82447  -1016139.98045  22052090.9304                   22052088.6484
   -598457.57846   -481243.12943  23868164.8834                   23868163.9104
  -1222122.46145   -348004.66442  24554120.3134                   24554120.7274
   -773778.07847   -677912.78146  19925046.6884                   19925044.3244
     20342.09046     17286.62944  23221494.3134                   23221491.6334
  -1378784.00047  -1051365.16445  20913762.0864                   20913757.4104
   -574564.78146   -384487.74243  24521948.6024                   24521948.2814
   -476061.03947   -252440.27046  20327622.4924                   20327618.2034
  -1406074.68046  -1021828.57843  23966176.7504                   23966176.3014
 11  8 25 15 52 30.0000000  0 11G03G06G07G10G11G13G16G19G28G23G08
   -538513.03147   -435705.05545  21014478.8134                   21014477.5084
   -256015.41846   -205144.64144  22785014.2034                   22785012.6764
  -1479216.34047  -1128124.51645  22024743.7504                   22024740.9104
   -668746.09446   -536013.43743  23854789.0394                   23854788.3674
  -1383910.82446   -474073.45742  24523331.7504                   24523333.8244
   -864217.62547   -748385.15646  19907837.0944                   19907833.8634
     21884.52746     18488.46544  23221787.7114                   23221785.5434
  -1493451.67647  -1140716.59845  20891941.5704                   20891937.0044
   -734076.53146   -508782.63342  24491593.7344                   24491594.3284
   -510565.25448   -279326.69946  20321056.8914                   20321052.0084
  -1560850.33246  -1142432.92243  23936723.8674                   23936723.3284
 11  8 25 15 53  0.0000000  0 11G03G06G07G10G11G13G16G19G28G23G08
   -578054.30147   -466516.44145  21006954.8834                   21006953.6024
   -274207.25846   -219320.12944  22781552.2894                   22781551.1134
  -1622942.09047  -1240118.57445  21997393.6884                   21997390.7194
   -738644.25446   -590479.54743  23841488.7274                   23841487.3244
  -1545883.40646   -600285.77342  24492509.6254                   24492511.0164
   -954115.51647   -818435.47346  19890730.1334                   19890726.4804
     23388.81646     19660.58644  23222074.2344                   23222071.7544
  -1607576.03147  -1229644.66045  20870223.8444                   20870219.9574
   -893413.26646   -632941.15242  24461272.9694                   24461273.6484
   -544577.64547   -305829.89846  20314584.5164                   20314580.1214
  -1715738.50446  -1263124.94543  23907249.6024                   23907248.8984
 11  8 25 15 53 30.0000000  0 11G03G06G07G10G11G13G16G19G28G23G08
    958355.17247    730685.72345  21299323.7814                   21299321.9024
   1283396.47746    994397.05544  23077955.0554                   23077953.4144
   -191251.09447   -124515.19145  22269834.7974                   22269832.5664
    767271.41846    582961.19543  24128054.3444                   24128053.6954
   -132609.03946    500966.97742  24761446.5864                   24761447.8094
    531955.36347    339541.82446  20173519.6334                   20173516.7734
   1600276.41446   1248404.11744  23522145.3914                   23522143.6254
   -145728.76247    -90542.87946  21148404.4304                   21148399.8444
    522853.81646    470643.56642  24730779.9694                   24730780.6604
    997324.67248    895652.39846  20607998.6804                   20607993.9654
   -295310.48446   -156297.85543  24177549.0004                   24177547.6804
 11  8 25 15 54  0.0000000  0 11G03G06G07G10G11G13G16G19G28G23G08
    919874.79347    700700.99645  21292001.4844                   21291999.6764
   1265956.34846    980807.30544  23074636.0234                   23074634.9304
   -334988.43447   -236518.28545  22242482.1414                   22242479.6884
    698158.51646    529106.96943  24114902.9454                   24114901.8954
   -294932.59846    374481.19542  24730557.3984                   24730558.6134
    443153.24247    270345.36346  20156621.3444                   20156618.4534
   1601709.69946   1249520.91044  23522418.1564                   23522415.9614
   -258752.27347   -178613.12945  21126896.2114                   21126892.3874
    363878.43446    346766.70342  24700526.8754                   24700528.6884
    964301.76648    869920.22745  20601714.5084                   20601709.8204
   -450412.82446   -277156.74243  24148033.5084                   24148032.8554
 11  8 25 15 54 30.0000000  0 11G03G06G07G10G11G13G16G19G28G23G08
    881925.31347    671129.95744  21284779.5394                   21284777.5784
   1248891.91046    967510.29744  23071388.8984                   23071387.7154
   -478727.10247   -348522.42645  22215130.1334                   22215127.3794
    629439.25446    475559.48042  24101825.4614                   24101824.8014
   -457424.66845    247864.10243  24699635.7584                   24699637.7034
    354903.64547    201579.43046  20139828.2344                   20139825.2664
   1603108.65646   1250610.95743  23522684.4534                   23522682.6414
   -371219.78547   -266250.14546  21105493.9304                   21105490.5164
    205087.74646    223033.67242  24670310.9534                   24670312.2464
    931775.18448    844574.80945  20595525.3204                   20595520.5434
   -605618.99246   -398096.57443  24118498.7114                   24118497.6954
 11  8 25 15 55  0.0000000  0 11G03G06G07G10G11G13G16G19G28G23G08
    844507.25847    641973.02045  21277659.1954                   21277656.9924
   1232203.69146    954506.46544  23068213.9694                   23068211.9574
   -622464.05547   -460525.21145  22187777.9224                   22187775.0394
    561113.84446    422318.89542  24088823.2504                   24088822.8484
   -620080.87946    121119.09043  24668683.9844                   24668685.2664
    267209.77747    133246.53946  20123140.8134                   20123137.4774
   1604473.56646   1251674.44543  23522944.7584                   23522942.3054
   -483127.86747   -353451.24645  21084199.3674                   21084195.2234
     46484.24246     99446.52342  24640129.5554                   24640131.5084
    899745.74648    819616.78145  20589430.1094                   20589425.5124
   -760926.41046   -519115.27043  24088943.9304                   24088943.6884
 11  8 25 15 55 30.0000000  0 11G03G06G07G10G11G13G16G19G28G23G08
    807620.50447    613230.07844  21270639.8524                   21270638.0594
   1215891.37147    941795.54344  23065109.5704                   23065107.6454
   -766196.75847   -572524.69145  22160426.0314                   22160424.0084
    493182.52746    369385.38742  24075896.9774                   24075896.0554
   -782897.05146     -5750.58243  24637701.4224                   24637702.2774
    180074.00447     65348.52346  20106559.3364                   20106555.8524
   1605804.82046   1252711.74243  23523198.0944                   23523195.7304
   -594473.45347   -440214.02746  21063010.7894                   21063006.8244
   -111929.83245    -23992.93742  24609983.6484                   24609988.1804
    868213.96947    795046.53145  20583429.7974                   20583425.5124
   -916333.20746   -640211.43443  24059370.7424                   24059371.0314
 11  8 25 15 56  0.0000000  0 11G03G06G07G10G11G13G16G19G28G23G08
    771264.77747    584900.91445  21263721.3984                   21263720.0124
   1199953.59847    929376.47344  23062075.8594                   23062074.8444
   -909922.95747   -684519.11745  22133075.8054                   22133073.8984
    425644.99246    316758.70342  24063044.5314                   24063044.3674
   -945869.46546   -132742.01243  24606688.0234                   24606689.7114
     93498.53147     -2112.88746  20090085.0314                   20090081.2074
   1607102.00446   1253722.48043  23523444.1094                   23523442.1884
   -705253.70747   -526536.29345  21041929.9144                   21041925.9064
   -270152.06245   -147282.99642  24579874.6564                   24579878.3754
    837179.80147    770864.03545  20577524.1174                   20577519.7234
  -1071837.88346   -761383.84443  24029779.5704                   24029779.5554
 11  8 25 15 56 30.0000000  0 11G03G06G07G10G11G13G16G19G28G23G08
    735439.05547    556984.75445  21256904.5704                   21256902.5704
   1184389.32847    917248.44944  23059114.6644                   23059113.1484
  -1053641.05547   -796507.22345  22105727.5084                   22105724.8834
    358500.25446    264438.12542  24050267.4694                   24050267.0084
  -1108994.86346   -259852.59042  24575647.2344                   24575647.9494
      7484.75847    -69136.61346  20073716.7034                   20073713.5784
   1608364.34046   1254706.05143  23523684.3284                   23523682.7854
   -815466.59447   -612416.45746  21020957.5864                   21020952.5594
   -428182.29745   -270423.38342  24549803.8674                   24549805.8524
    806642.37948    747068.61745  20571713.1334                   20571708.8914
  -1227439.84046   -882632.05143  24000169.9774                   24000169.5594
 11  8 25 15 57  0.0000000  0 11G03G06G07G10G11G13G16G19G28G23G08
    700142.46947    529480.89545  21250188.4454                   21250185.8094
   1169197.23847    905410.41844  23056223.5634                   23056222.5594
  -1197349.23047   -908487.59045  22078380.7504                   22078377.8204
    291747.77346    212423.15243  24037565.1724                   24037564.5554
  -1272269.80146   -387079.74242  24544576.2114                   24544577.1214
    -77965.76647   -135721.45346  20057456.1174                   20057452.7704
   1609591.27746   1255662.02743  23523918.5084                   23523916.8674
   -925109.63747   -697852.57845  21000093.0704                   21000088.9104
   -586018.91446   -393412.95342  24519768.1884                   24519769.1684
    776601.32447    723659.96146  20565995.9774                   20565991.8674
  -1383137.89546  -1003955.17643  23970541.2894                   23970540.4344
 11  8 25 15 57 30.0000000  0 11G03G06G07G10G11G13G16G19G28G23G08
    665373.32447    502388.03545  21243571.3914                   21243569.3094
   1154375.44547    893860.96144  23053403.2734                   23053401.6374
  -1341046.10947  -1020459.17645  22051035.6884                   22051033.4264
    225385.70346    160712.45742  24024936.3914                   24024935.9614
  -1435691.60746   -514421.36442  24513477.7894                   24513479.0514
   -162852.03147   -201866.59446  20041302.6254                   20041299.5084
   1610781.73046   1256589.58643  23524145.1564                   23524143.2344
  -1034181.61347   -782843.71945  20979337.4064                   20979332.8204
   -743661.05146   -516250.91043  24489768.9844                   24489770.6294
    747055.94948    700637.56345  20560374.2274                   20560369.7304
  -1538931.31646  -1125352.59043  23940894.5234                   23940893.9654
 11  8 25 15 58  0.0000000  0 11G03G06G07G10G11G13G16G19G28G23G08
    631130.75847    475705.51245  21237055.1414                   21237053.7154
   1139922.95747    882599.23044  23050652.8984                   23050652.2074
  -1484729.84847  -1132420.50445  22023693.5634                   22023691.2114
    159413.26246    109305.31342  24012382.5394                   24012382.1684
  -1599257.09846   -641874.88742  24482353.0314                   24482353.9104
   -247172.06647   -267570.52746  20025257.1954                   20025253.8204
   1611935.10646   1257488.28843  23524364.4304                   23524363.0394
  -1142680.42247   -867388.23446  20958690.4304                   20958686.2814
   -901107.30546   -638936.25843  24459808.5004                   24459809.4184
    718005.26248    678000.63345  20554846.2814                   20554841.7894
  -1694819.11346  -1246823.53543  23911230.7734                   23911229.3244
 11  8 25 15 58 30.0000000  0 11G03G06G07G10G11G13G16G19G28G23G08
    597414.43447    449433.02745  21230639.2584                   21230637.4574
   1125838.86347    871624.58244  23047973.1484                   23047971.6884
  -1628398.03947  -1244369.71945  21996354.6564                   21996352.1604
     93830.54746     58201.87543  23999902.9384                   23999902.5704
  -1762961.79746   -769436.93042  24451200.2814                   24451201.9384
   -330923.48847   -332831.38346  20009319.5314                   20009316.4734
   1613051.47746   1258358.14843  23524577.6414                   23524575.4384
  -1250602.87547   -951483.64545  20938153.6334                   20938149.2894
  -1058355.71546   -761467.47743  24429886.0004                   24429885.1954
    689449.58247    655749.42645  20549412.6254                   20549407.6764
  -1850799.32046  -1368366.48843  23881548.3984                   23881547.1844
 11  8 25 15 59  0.0000000  0 11G03G06G07G10G11G13G16G19G28G23G08
    564223.41447    423569.87545  21224323.0164                   21224321.2234
   1112121.89547    860936.00044  23045363.0084                   23045361.7584
  -1772048.87947  -1356305.43045  21969019.2894                   21969016.3094
     28636.48446      7401.25442  23987497.0394                   23987496.1724
  -1926802.51646   -897104.91042  24420022.8134                   24420024.7034
   -414105.73847   -397648.73446  19993490.3984                   19993487.3714
   1614130.49646   1259198.87143  23524782.4534                   23524780.4614
  -1357947.01247  -1035128.41846  20917726.5234                   20917722.2544
  -1215405.18046   -883843.64843  24399999.4064                   24399999.7034
    661388.16047    633883.34445  20544072.1644                   20544067.6134
  -2006870.96546  -1489980.73043  23851848.3754                   23851847.4884
 11  8 25 15 59 30.0000000  0 11G03G06G07G10G11G13G16G19G28G23G08
    531556.30947    398114.98045  21218107.5314                   21218105.3444
   1098770.45746    850532.25844  23042822.1644                   23042820.9024
  -1915680.91047  -1468226.46945  21941686.8444                   21941684.0234
    -36170.14546    -43097.39143  23975164.8674                   23975163.8284
  -2090776.23045  -1024876.50842  24388818.3984                   24388821.0984
   -496717.10547   -462021.23846  19977770.0084                   19977767.3134
   1615171.05146   1260009.65643  23524980.5164                   23524978.1174
  -1464711.32047  -1118321.38345  20897410.1954                   20897405.9144
  -1372254.41846  -1006063.78543  24370151.6954                   24370152.2034
    633820.24647    612401.82045  20538826.1804                   20538822.0904
  -2163033.27746  -1611665.56243  23822132.1884                   23822130.8164
 11  8 25 16  0  0.0000000  0 11G03G06G07G10G11G13G16G19G28G23G08
    499412.99647    373068.22745  21211990.3284                   21211988.6954
   1085784.18846    840413.05144  23040350.6804                   23040349.8404
  -2059291.13747  -1580130.52045  21914358.4064                   21914355.7894
   -100589.25846    -93294.11743  23962905.9774                   23962905.4884
  -2254878.54345  -1152748.30542  24357591.9924                   24357593.6764
   -578754.78947   -525946.71546  19962159.2504                   19962156.0634
   1616173.68446   1260790.89543  23525171.2584                   23525168.9694
  -1570892.75047  -1201060.14845  20877204.7274                   20877200.3554
  -1528901.30546  -1128126.24643  24340343.4694                   24340343.6484
    606746.25047    591305.17245  20533674.4694                   20533670.0044
  -2319283.86746  -1733419.18043  23792398.5164                   23792396.8954
 11  8 25 16  0 30.0000000  0 11G03G06G07G10G11G13G16G19G28G23G08
    467791.17247    348427.84045  21205973.1484                   21205970.9694
   1073160.30146    830576.21944  23037948.8204                   23037947.4734
  -2202879.11347  -1692017.22745  21887034.1564                   21887031.8954
   -164623.02746   -143190.59042  23950720.6174                   23950720.4884
  -2419107.55945  -1280718.90242  24326338.4454                   24326341.5204
   -660219.12147   -589425.42646  19946656.9304                   19946653.3524
   1617136.49246   1261541.06343  23525354.4534                   23525352.0554
  -1676490.52047  -1283344.12545  20857109.8364                   20857105.4264
  -1685346.29346  -1250031.35943  24310572.9144                   24310573.3984
    580164.09047    570591.76645  20528615.7504                   20528611.8324
  -2475622.96546  -1855241.80143  23762647.1174                   23762647.2274
 11  8 25 16  1  0.0000000  0 11G03G06G07G10G11G13G16G19G28G23G08
    436690.90647    324193.84845  21200055.0554                   21200052.8404
   1060898.91846    821021.86344  23035615.2734                   23035613.9654
  -2346441.91047  -1803884.32045  21859714.9614                   21859712.9064
   -228270.97746   -192786.41443  23938608.7194                   23938608.7344
  -2583458.53146  -1408784.46142  24295064.3914                   24295066.9494
   -741107.27747   -652455.16846  19931264.7814                   19931261.2854
   1618060.09046   1262260.65643  23525530.3524                   23525528.4654
  -1781501.23447  -1365170.63345  20837126.9064                   20837122.6214
  -1841586.41446  -1371776.87943  24280841.5944                   24280840.9964
    554074.51247    550262.18845  20523651.3524                   20523647.2894
  -2632048.16446  -1977131.47343  23732880.8284                   23732880.3094
 11  8 25 16  1 30.0000000  0 11G03G06G07G10G11G13G16G19G28G23G08
    406108.74647    300363.58245  21194234.9144                   21194233.4264
   1048996.13746    811746.93443  23033350.7274                   23033349.6844
  -2489979.80947  -1915732.00445  21832401.3364                   21832398.3094
   -291536.86346   -242084.52742  23926569.3914                   23926569.8444
  -2747930.27346  -1536944.16442  24263767.4384                   24263768.7304
   -821420.39847   -715036.83246  19915981.2034                   19915977.8834
   1618941.40146   1262947.35643  23525697.6334                   23525695.6334
  -1885925.58247  -1446540.24245  20817255.7344                   20817251.0634
  -1997623.09846  -1493363.86343  24251148.4614                   24251148.3094
    528474.04747    530313.73445  20518780.0234                   20518775.6134
  -2788561.00046  -2099089.45343  23703097.6644                   23703097.0234
 11  8 25 16  2  0.0000000  0 11G03G06G07G10G11G13G16G19G28G23G08
    376044.48047    276936.87945  21188513.7344                   21188512.9414
   1037451.39546    802751.00043  23031153.3134                   23031152.4534
  -2633490.04347  -2027558.14545  21805092.3134                   21805089.3554
   -354420.62946   -291084.89843  23914604.0554                   23914603.8984
  -2912518.93446  -1665194.98442  24232447.3134                   24232448.0434
   -901156.35947   -777168.76246  19900808.0004                   19900804.4884
   1619780.96546   1263601.51643  23525858.0704                   23525855.5234
  -1989760.82847  -1527450.81246  20797496.2504                   20797491.8674
  -2153454.23046  -1614790.66442  24221494.3524                   24221494.7934
    503363.02747    510746.67645  20514001.1564                   20513997.0164
  -2945159.10946  -2221113.92243  23673298.1884                   23673296.9384
 11  8 25 16  2 30.0000000  0 11G03G06G07G10G11G13G16G19G28G23G08
   1921917.00847   1481512.86345  21482683.4384                   21482682.5204
   2601683.44146   2021633.08243  23328816.6644                   23328815.9064
  -1201546.34047   -911757.82845  22077581.7974                   22077579.3444
   1158498.25446    887812.87942  24202502.0164                   24202502.4454
  -1501795.64846   -565929.97342  24500898.8754                   24500899.0594
    595108.62947    388752.00046  20185537.5004                   20185534.6294
   3195998.10246   2491822.59443  23825801.7504                   23825800.3284
   -517581.83647   -380298.32846  21077642.5704                   21077638.2934
   -733654.23446   -508452.93442  24491673.6884                   24491674.0664
   2054161.33647   1719160.89545  20809108.3204                   20809104.1954
  -1526416.72346  -1115600.32043  23943275.5864                   23943275.0164
 11  8 25 16  3  0.0000000  0 11G03G06G07G10G11G13G16G19G28G23G08
   1892883.74647   1458889.52745  21477158.9534                   21477157.4454
   2590850.01246   2013191.37543  23326755.2894                   23326753.9924
  -1344996.51247  -1023537.14845  22050283.7344                   22050281.4064
   1096374.25846    839404.59843  24190680.8754                   24190681.0204
  -1666608.09845   -694355.21142  24469536.0394                   24469536.9614
    516530.50047    327522.28546  20170584.5314                   20170581.5824
   3196752.14146   2492410.11343  23825945.1724                   23825943.6454
   -620233.89847   -460286.93446  21058109.1024                   21058104.2034
   -889071.98045   -629557.62942  24462098.4924                   24462099.6994
   2030026.28147   1700354.32845  20804515.8984                   20804511.7854
  -1683183.32046  -1237756.08243  23913443.6644                   23913442.8834
 11  8 25 16  3 30.0000000  0 11G03G06G07G10G11G13G16G19G28G23G08
   1864362.23447   1436664.96945  21471731.5394                   21471729.7424
   2580367.72746   2005023.34043  23324760.0864                   23324759.9264
  -1488415.86747  -1135292.47345  22022992.5634                   22022989.8754
   1034626.76246    791289.59043  24178929.6644                   24178930.5784
  -1831529.42646   -822865.25442  24438151.3054                   24438152.1254
    438530.98847    266743.42646  20155742.2974                   20155738.7934
   3197460.27746   2492961.84043  23826081.6024                   23826078.0554
   -722293.94547   -539814.22745  21038686.7814                   21038682.9024
  -1044283.35246   -750501.50442  24432562.8284                   24432564.3914
   2006375.83647   1681925.37145  20800015.0164                   20800010.7304
  -1840034.63746  -1359977.84043  23883595.9694                   23883594.7734
 11  8 25 16  4  0.0000000  0 11G03G06G07G10G11G13G16G19G28G23G08
   1836353.66047   1414840.09045  21466401.9384                   21466399.9694
   2570237.76246   1997129.81343  23322832.6884                   23322831.7854
  -1631800.50047  -1247020.73445  21995707.5004                   21995704.2974
    973257.29746    743469.19143  24167252.4144                   24167253.2074
  -1996553.94145   -951455.64842  24406748.2584                   24406749.1024
    361113.84047    206418.36346  20141009.9064                   20141007.1214
   3198124.79746   2493479.55543  23826206.8364                   23826205.0314
   -823757.82447   -618876.97346  21019379.2974                   21019374.6334
  -1199284.86346   -871281.88342  24403067.8674                   24403067.9574
   1983211.63748   1663875.30545  20795607.5554                   20795602.8914
  -1996966.61746  -1482262.45343  23853733.0164                   23853731.9694
 11  8 25 16  4 30.0000000  0 11G03G06G07G10G11G13G16G19G28G23G08
   1808855.31647   1393412.79744  21461168.8054                   21461167.4144
   2560457.44146   1989508.71943  23320971.6334                   23320970.2774
  -1775149.59847  -1358721.28945  21968428.2504                   21968426.0274
    912262.78546    695941.00443  24155646.0394                   24155646.0084
  -2161679.26246  -1080124.64542  24375326.4844                   24375326.5824
    284278.67247    146546.80146  20126389.0474                   20126385.4694
   3198743.35546   2493961.50843  23826325.2424                   23826323.2384
   -924624.82047   -697474.61745  21000185.1094                   21000180.6174
  -1354076.52746   -991898.69942  24373612.7584                   24373612.1094
   1960531.57848   1646202.50045  20791291.5004                   20791287.2154
  -2153979.58646  -1604610.18043  23823854.2974                   23823853.4304
 11  8 25 16  5  0.0000000  0 11G03G06G07G10G11G13G16G19G28G23G08
   1781861.16047   1372378.35944  21456032.3204                   21456030.8134
   2551020.67246   1982155.39843  23319176.0004                   23319174.4344
  -1918465.55147  -1470396.03145  21941156.0314                   21941153.4574
    851637.81346    648700.73843  24144108.3984                   24144108.8134
  -2326906.65246  -1208873.20742  24343884.5164                   24343884.8404
    208022.10547     87126.07846  20111877.8984                   20111874.3324
   3199311.20346   2494403.89543  23826433.3984                   23826431.2154
  -1024898.14547   -775609.66046  20981103.7584                   20981098.8984
  -1508661.79346  -1112354.73442  24344193.8984                   24344194.7544
   1938330.12948   1628902.63745  20787066.7194                   20787062.4454
  -2311076.94946  -1727023.65643  23793958.8524                   23793958.3714
 11  8 25 16  5 30.0000000  0 11G03G06G07G10G11G13G16G19G28G23G08
   1755369.99247   1351735.88744  21450990.8364                   21450988.9924
   2541926.07846   1975068.64543  23317445.8754                   23317443.9884
  -2061746.56247  -1582043.54345  21913890.8444                   21913888.1724
    791381.27045    601747.52343  24132642.3134                   24132642.7624
  -2492232.78146  -1337698.65243  24312423.7344                   24312423.5234
    132345.44147     28157.23846  20097476.8134                   20097473.4654
   3199827.82046   2494806.39543  23826530.4924                   23826529.7894
  -1124575.82447   -853280.56245  20962135.6024                   20962131.2854
  -1663039.57446  -1232649.01642  24314817.2974                   24314817.3714
   1916606.30147   1611974.94545  20782932.7584                   20782928.3594
  -2468257.64146  -1849502.07043  23764048.4694                   23764048.2034
 11  8 25 16  6  0.0000000  0 11G03G06G07G10G11G13G16G19G28G23G08
   1729384.37147   1331487.34844  21446046.1484                   21446044.3674
   2533175.67246   1968250.10543  23315780.7034                   23315779.2704
  -2204987.10547  -1693659.52045  21886633.5634                   21886630.3954
    731495.84846    555083.57443  24121247.0784                   24121246.7464
  -2657650.40646  -1466595.40643  24280946.0314                   24280945.6254
     57253.39847    -30356.05546  20083187.6644                   20083183.9774
   3200296.57846   2495171.59043  23826621.0084                   23826618.8244
  -1223652.52047   -930483.16446  20943281.5944                   20943277.3674
  -1817205.27746  -1352778.11742  24285481.0864                   24285480.3484
   1895363.30547   1595421.92645  20778890.3524                   20778886.1484
  -2625516.68746  -1972041.54343  23734124.0084                   23734123.4734
 11  8 25 16  6 30.0000000  0 11G03G06G07G10G11G13G16G19G28G23G08
   1703901.60547   1311630.62944  21441196.7034                   21441195.0514
   2524766.74246   1961697.66043  23314180.4924                   23314178.8524
  -2348186.72747  -1805243.62145  21859383.1024                   21859380.4804
    671978.62546    508706.46943  24109920.8984                   24109920.7974
  -2823157.46946  -1595561.87943  24249451.1254                   24249450.4264
    -17254.41047    -88414.09846  20069008.9304                   20069005.8364
   3200715.44146   2495497.90643  23826700.8914                   23826698.5164
  -1322128.28947  -1007217.51245  20924542.5164                   20924538.4654
  -1971159.17246  -1472742.09043  24256183.7194                   24256183.8524
   1874598.11347   1579241.22745  20774938.8834                   20774934.6174
  -2782854.21146  -2094642.15643  23704183.7894                   23704182.0004
 11  8 25 16  7  0.0000000  0 11G03G06G07G10G11G13G16G19G28G23G08
   1678919.00047   1292163.64544  21436442.9454                   21436441.1484
   2516696.44947   1955409.08643  23312645.3204                   23312642.9734
  -2491344.60247  -1916795.17245  21832141.1804                   21832138.1604
    612827.48446    462614.64543  24098664.3364                   24098665.2704
  -2988751.86746  -1724596.35543  24217938.9694                   24217939.4064
    -91177.82447   -146016.77046  20054942.3754                   20054938.6254
   3201083.21546   2495784.41843  23826770.0314                   23826767.9264
  -1420002.72747  -1083483.29346  20905917.8674                   20905913.2734
  -2124901.60246  -1592541.33243  24226927.3754                   24226927.3634
   1854308.91447   1563431.42645  20771078.1174                   20771073.8404
  -2940270.23446  -2217303.94943  23674228.2894                   23674226.5634
 11  8 25 16  7 30.0000000  0 11G03G06G07G10G11G13G16G19G28G23G08
   1654433.80147   1273084.25044  21431783.6724                   21431781.8554
   2508961.99646   1949382.19144  23311172.8594                   23311171.8634
  -2634459.93047  -2028313.57845  21804906.5084                   21804904.4224
    554040.18846    416806.34043  24087478.4694                   24087478.2704
  -3154431.07846  -1853696.95343  24186411.4224                   24186410.9224
   -164517.50047   -203164.58646  20040985.4924                   20040982.2814
   3201397.51946   2496029.25543  23826829.5474                   23826828.4614
  -1517275.48847  -1159280.23445  20887407.5784                   20887403.0634
  -2278432.33646  -1712175.61743  24197712.0314                   24197710.9884
   1834493.77747   1547991.02745  20767307.6644                   20767303.0594
  -3097764.74646  -2340026.89843  23644257.2974                   23644256.3324
 11  8 25 16  8  0.0000000  0 11G03G06G07G10G11G13G16G19G28G23G08
   1630444.88747   1254391.57444  21427218.7274                   21427216.7544
   2501562.43046   1943616.23443  23309765.1024                   23309763.6724
  -2777530.84047  -2139797.37145  21777681.3284                   21777678.4574
    495615.32046    371280.43043  24076359.8524                   24076360.3324
  -3320191.53546  -1982860.83642  24154868.3204                   24154868.1024
   -237272.27347   -259856.62946  20027141.6174                   20027137.5944
   3201658.44946   2496232.53543  23826879.1954                   23826878.3284
  -1613944.89847  -1234607.03945  20869011.6094                   20869007.1954
  -2431750.69946  -1831644.38743  24168536.2344                   24168536.0784
   1815151.77348   1532919.30545  20763626.3914                   20763622.5704
  -3255336.29746  -2462809.82843  23614273.4844                   23614271.4924
 11  8 25 16  8 30.0000000  0 11G03G06G07G10G11G13G16G19G28G23G08
   1606948.75447   1236082.88744  21422748.0944                   21422745.5124
   2494493.82446   1938108.19944  23308419.3674                   23308419.0434
  -2920557.38747  -2251246.60545  21750464.3054                   21750461.6414
    437549.83646    326034.57443  24065310.1334                   24065310.8484
  -3486032.03946  -2112087.10943  24123309.7664                   24123309.9344
   -309442.99647   -316093.56246  20013407.2584                   20013404.3554
   3201863.57046   2496392.28143  23826919.0944                   23826916.4884
  -1710011.43447  -1309464.06645  20850730.7894                   20850726.5124
  -2584857.45346  -1950948.23443  24139400.8754                   24139400.6484
   1796279.41847   1518213.53945  20760035.5234                   20760031.3834
  -3412985.85246  -2585653.57843  23584273.1094                   23584271.6684
 11  8 25 16  9  0.0000000  0 11G03G06G07G10G11G13G16G19G28G23G08
   1583942.89847   1218156.23044  21418369.6174                   21418367.3634
   2487753.18046   1932855.68843  23307137.1094                   23307135.9384
  -3063539.03547  -2362660.84845  21723255.9844                   21723253.6914
    379840.68446    281066.35943  24054329.0394                   24054328.9654
  -3651950.52746  -2241374.14843  24091736.2814                   24091736.2034
   -381030.70347   -371876.20346  19999785.1884                   19999781.7424
   3202010.77046   2496506.90643  23826947.4694                   23826944.8244
  -1805475.34847  -1383851.51246  20832564.6174                   20832560.2664
  -2737753.19946  -2070087.73443  24110305.7734                   24110305.5904
   1777874.28147   1503871.83645  20756532.9844                   20756529.3284
  -3570713.62146  -2708558.27743  23554258.5704                   23554256.9534
 11  8 25 16  9 30.0000000  0 11G03G06G07G10G11G13G16G19G28G23G08
   1561429.48047   1200613.28544  21414085.1174                   21414083.4384
   2481342.83646   1927860.57443  23305917.7504                   23305915.2584
  -3206469.97347  -2474035.57445  21696057.0004                   21696054.2154
    322490.56646    236377.94943  24043415.7814                   24043415.6454
  -3817939.52046  -2370716.15242  24060149.6954                   24060150.0274
   -452030.11747   -427200.43446  19986274.3134                   19986271.2664
   3202103.44146   2496579.06643  23826965.1804                   23826961.7664
  -1900331.26247  -1457765.19946  20814514.1644                   20814509.7384
  -2890433.15246  -2189059.03143  24081251.9924                   24081251.3524
   1759939.36347   1489896.53545  20753120.1724                   20753115.9964
  -3728514.48846  -2831519.93443  23524230.1024                   23524228.5354
 11  8 25 16 10  0.0000000  0 11G03G06G07G10G11G13G16G19G28G23G08
   1539403.05947   1183449.83644  21409893.5784                   21409892.2154
   2475257.91446   1923119.04743  23304759.2734                   23304757.6764
  -3349351.60547  -2585371.89145  21668867.6094                   21668864.7154
    265494.54346    191965.41442  24032569.4144                   24032569.7274
  -3983999.11746  -2500113.15643  24028550.0234                   24028550.1604
   -522443.73847   -482068.20346  19972875.0394                   19972871.4344
   3202138.26646   2496606.15643  23826971.9064                   23826969.2234
  -1994581.16847  -1531206.68045  20796578.7034                   20796574.8834
  -3042899.76246  -2307864.10543  24052237.9304                   24052237.8444
   1742470.25448   1476284.21145  20749795.7894                   20749791.5274
  -3886390.60546  -2954540.19943  23494187.1724                   23494185.6174
 11  8 25 16 10 30.0000000  0 11G03G06G07G10G11G13G16G19G28G23G08
   1517862.43847   1166664.91044  21405795.1564                   21405793.1764
   2469496.59046   1918629.64844  23303663.2424                   23303662.1454
  -3492182.42247  -2696668.60545  21641687.8834                   21641685.2894
    208851.28146    147827.80143  24021790.6954                   24021791.4344
  -4150126.03546  -2629562.60242  23996936.7734                   23996937.0944
   -592271.35247   -536479.34446  19959587.3754                   19959583.8364
   3202114.09446   2496587.27043  23826966.6484                   23826965.2464
  -2088223.94147  -1604175.05546  20778759.6174                   20778755.1454
  -3195152.24646  -2426502.34843  24023265.8054                   24023265.0474
   1725465.46147   1463033.68445  20746560.0784                   20746556.0864
  -4044340.73846  -3077618.21143  23464129.4534                   23464128.1334
 11  8 25 16 11  0.0000000  0 11G03G06G07G10G11G13G16G19G28G23G08
   1496804.90247   1150256.40644  21401787.9924                   21401785.9494
   2464055.88346   1914390.08643  23302627.9454                   23302627.1374
  -3634961.13747  -2807924.72345  21614517.5704                   21614515.3244
    152558.26646    103963.07843  24011078.8914                   24011079.1334
  -4316317.79746  -2759062.63343  23965310.9844                   23965311.2544
   -661513.39547   -590434.19146  19946410.6484                   19946407.3674
   3202029.71146   2496521.45343  23826950.7974                   23826948.1054
  -2181259.52047  -1676670.30546  20761055.4144                   20761050.7704
  -3347190.80946  -2544973.87142  23994332.6254                   23994333.4144
   1708922.48447   1450143.01645  20743412.3594                   20743407.9104
  -4202365.06646  -3200753.97743  23434058.5704                   23434057.6844
 11  8 25 16 11 30.0000000  0 11G03G06G07G10G11G13G16G19G28G23G08
   3051649.80947   2361823.83644  21697665.0314                   21697662.7584
   4034354.98446   3137999.73843  23601445.4144                   23601445.1914
  -2202260.83247  -1691534.85945  21887151.9304                   21887148.9534
   1672036.70745   1287972.19543  24300224.9064                   24300225.7624
  -2907145.07846  -1661005.86343  24233468.0554                   24233467.6884
    845253.96947    583670.23046  20233139.2424                   20233135.8914
   4777305.03546   3724008.64543  24126715.5944                   24126714.2504
   -698263.13347   -521088.69145  21043259.4224                   21043255.8484
  -1923588.88746  -1435673.60543  24265235.2274                   24265235.4064
   3268261.19148   2665212.10945  21040144.1724                   21040140.2664
  -2785036.57046  -2096342.12543  23703767.1024                   23703766.3284
 11  8 25 16 12  0.0000000  0 11G03G06G07G10G11G13G16G19G28G23G08
   3031550.62947   2346162.12944  21693840.3524                   21693838.2074
   4029548.22746   3134254.12943  23600530.9924                   23600530.3484
  -2344932.46147  -1802707.53545  21860002.3524                   21859999.4184
   1616437.75046   1244648.29743  24289645.7194                   24289645.5204
  -3073458.96946  -1790601.07842  24201819.8444                   24201819.1024
    777183.01247    530627.91046  20220185.6334                   20220182.0824
   4777096.23446   3723845.86743  24126676.0864                   24126674.9574
   -790083.12947   -592636.74246  21025787.3054                   21025782.6954
  -2075199.74246  -1553811.89842  24236384.8914                   24236384.8594
   3252636.01647   2653036.60245  21037170.9844                   21037166.9964
  -2943207.80546  -2219592.39543  23673668.1724                   23673667.0354
 11  8 25 16 12 30.0000000  0 11G03G06G07G10G11G13G16G19G28G23G08
   3011927.75047   2330871.55144  21690106.3914                   21690104.2664
   4025055.52746   3130753.30543  23599676.0474                   23599675.6644
  -2487548.56247  -1913836.94945  21832863.1724                   21832860.5004
   1561182.71145   1201592.35943  24279131.7974                   24279131.1254
  -3239829.28546  -1920240.18742  24170160.0474                   24170159.7464
    709697.78147    478042.00446  20207343.6484                   20207340.3984
   4776823.57446   3723633.33643  24126625.0554                   24126623.1294
   -881294.53547   -663710.55946  21008430.2344                   21008425.7934
  -2226595.97346  -1671782.91043  24207575.3984                   24207575.5744
   3237467.09848   2641216.62145  21034284.5554                   21034280.7424
  -3101451.88746  -2342899.43043  23643555.4144                   23643554.2074
 11  8 25 16 13  0.0000000  0 11G03G06G07G10G11G13G16G19G28G23G08
   2992776.14847   2315948.19944  21686461.3984                   21686459.8324
   4020872.13346   3127493.45343  23598879.6484                   23598879.3204
  -2630110.11747  -2024923.85245  21805734.7034                   21805731.8244
   1506267.17246   1158800.98843  24268682.5554                   24268681.9024
  -3406255.82846  -2049923.15643  24138490.1804                   24138489.6844
    642795.90247    425910.65246  20194612.5704                   20194609.4574
   4776483.84446   3723368.53143  24126558.9534                   24126557.9734
   -971899.07047   -734311.48846  20991188.8134                   20991184.4774
  -2377779.98046  -1789588.53942  24178806.0784                   24178806.1484
   3222750.08247   2629748.77745  21031484.1094                   21031479.8554
  -3259770.28946  -2466264.35243  23613427.9304                   23613427.5274
 11  8 25 16 13 30.0000000  0 11G03G06G07G10G11G13G16G19G28G23G08
   2974096.83247   2301392.85544  21682907.0864                   21682905.4844
   4016998.22346   3124474.78143  23598142.9144                   23598142.4384
  -2772612.92247  -2135964.99245  21778617.2194                   21778614.4344
   1451691.82446   1116274.69543  24258296.4384                   24258296.2734
  -3572732.73046  -2179645.34043  24106810.2194                   24106810.3954
    576480.29347    374236.13346  20181993.1884                   20181990.1484
   4776078.99646   3723053.02043  24126483.0944                   24126481.5594
  -1061893.63347   -804437.12145  20974063.1724                   20974059.0784
  -2528748.94146  -1907226.57842  24150077.3134                   24150076.8094
   3208485.78547   2618633.70745  21028769.7664                   21028765.7624
  -3418159.43046  -2589684.41443  23583287.3754                   23583286.7114
 11  8 25 16 14  0.0000000  0 11G03G06G07G10G11G13G16G19G28G23G08
   2955888.89547   2287204.83644  21679442.1954                   21679440.3054
   4013433.34446   3121696.89543  23597464.0704                   23597463.8914
  -2915053.85947  -2246957.92245  21751511.7664                   21751508.4884
   1397456.40646   1074013.32043  24247974.1254                   24247975.6094
  -3739255.46546  -2309403.29342  24075122.5394                   24075122.0434
    510752.16847    323019.39146  20169485.2194                   20169482.0514
   4775609.43446   3722687.04743  24126392.8284                   24126392.0634
  -1151275.87147   -874085.60946  20957054.5314                   20957049.6454
  -2679500.80946  -2024695.51643  24121390.4534                   24121389.8794
   3194674.25047   2607871.43445  21026141.6094                   21026137.3244
  -3576617.29346  -2713158.03143  23553134.2894                   23553133.6484
 11  8 25 16 14 30.0000000  0 11G03G06G07G10G11G13G16G19G28G23G08
   2938145.96147   2273379.14144  21676066.6724                   21676064.1484
   4010171.14546   3119154.88743  23596844.0084                   23596843.3404
  -3057435.94547  -2357904.98845  21724417.3984                   21724414.2304
   1343554.43046   1032011.71543  24237718.1484                   24237718.8754
  -3905825.60946  -2439198.15243  24043425.1334                   24043424.6484
    445607.50447    272257.29346  20157088.9774                   20157085.3014
   4775070.23846   3722266.76243  24126291.3834                   24126289.6214
  -1240049.52747   -943259.88346  20940161.3834                   20940156.9574
  -2830039.61346  -2141998.38343  24092743.8524                   24092742.9064
   3181309.22747   2597457.08245  21023598.1724                   21023594.0434
  -3735147.21146  -2836687.79743  23522967.0634                   23522966.2774
 11  8 25 16 15  0.0000000  0 11G03G06G07G10G11G13G16G19G28G23G08
   2920867.71547   2259915.54344  21672778.3204                   21672776.2274
   4007211.10246   3116848.31343  23596280.6254                   23596279.7624
  -3199755.59847  -2468803.40645  21697334.4924                   21697331.8984
   1289985.98046    990270.00843  24227524.1414                   24227524.7424
  -4072438.10246  -2569026.00842  24011719.7034                   24011719.0474
    381048.36747    221951.45746  20144803.8984                   20144800.3834
   4774462.21145   3721792.91843  24126174.6414                   24126173.8484
  -1328212.36347  -1011958.19146  20923384.4844                   20923380.3134
  -2980363.29346  -2259133.64543  24064138.5634                   24064137.3554
   3168390.86747   2587390.79745  21021139.9454                   21021135.6094
  -3893746.51246  -2960271.61344  23492787.2114                   23492785.7384
 11  8 25 16 15 30.0000000  0 11G03G06G07G10G11G13G16G19G28G23G08
   2904053.16047   2246813.25444  21669578.5864                   21669576.7814
   4004552.28146   3114776.44943  23595775.3284                   23595774.5314
  -3342010.31647  -2579651.22745  21670264.4614                   21670261.3484
   1236749.92646    948787.34443  24217393.7894                   24217393.8284
  -4239088.94146  -2698883.76243  23980007.0944                   23980006.6374
    317075.64547    172102.56346  20132630.1564                   20132627.2234
   4773785.68845   3721265.64143  24126046.5864                   24126044.7974
  -1415762.98447  -1080179.44545  20906723.9694                   20906719.9884
  -3130470.57846  -2376100.27743  24035573.6024                   24035572.4304
   3155918.16048   2577671.76245  21018766.6484                   21018762.2424
  -4052413.14846  -3083907.89543  23462593.9384                   23462592.7544
 11  8 25 16 16  0.0000000  0 11G03G06G07G10G11G13G16G19G28G23G08
   2887700.04747   2234070.52744  21666466.2114                   21666464.8204
   4002193.00446   3112937.99243  23595325.2584                   23595325.7464
  -3484198.10547  -2690446.89545  21643207.0084                   21643204.0634
   1183844.98446    907562.68843  24207326.7974                   24207327.1414
  -4405774.60546  -2828768.66043  23948287.8524                   23948287.0664
    253689.89547    122711.05146  20120568.3754                   20120564.9844
   4773040.18846   3720684.68043  24125905.3284                   24125902.9694
  -1502700.03947  -1147922.60245  20890180.9064                   20890176.2814
  -3280360.46546  -2492897.53543  24007050.1094                   24007050.2424
   3143889.85947   2568299.02345  21016477.6954                   21016473.5864
  -4211146.07846  -3207595.85243  23432387.7114                   23432386.1914
 11  8 25 16 16 30.0000000  0 11G03G06G07G10G11G13G16G19G28G23G08
   2871805.18847   2221684.89544  21663442.1334                   21663440.1454
   4000129.64546   3111330.14543  23594933.4304                   23594932.8014
  -3626319.14147  -2801190.54345  21616161.8834                   21616159.6844
   1131267.50846    866593.17243  24197321.4534                   24197322.0164
  -4572493.32046  -2958679.30943  23916562.0704                   23916561.7774
    190889.48047     73775.64546  20108617.5004                   20108614.3484
   4772223.73846   3720048.41443  24125749.4144                   24125748.3014
  -1589024.75447  -1215188.59845  20873754.0314                   20873749.0744
  -3430034.22546  -2609526.37543  23978567.6884                   23978567.6884
   3132302.50447   2559269.87545  21014272.4534                   21014268.4534
  -4369945.69146  -3331335.73443  23402169.3444                   23402167.9264
 11  8 25 16 17  0.0000000  0 11G03G06G07G10G11G13G16G19G28G23G08
   2856366.14147   2209654.43444  21660503.8204                   21660502.0634
   3998359.75846   3109950.97743  23594596.7584                   23594595.5704
  -3768371.46947  -2911880.65645  21589130.2584                   21589127.8954
   1079015.32046    825877.14543  24187378.3914                   24187378.2344
  -4739242.38346  -3088613.56643  23884831.3054                   23884830.5944
    128674.12947     25296.12546  20096778.0474                   20096775.0434
   4771335.19546   3719355.96143  24125581.1724                   24125579.1454
  -1674736.86347  -1281977.25846  20857443.7344                   20857438.9654
  -3579491.55946  -2725986.53143  23950126.6564                   23950126.5514
   3121154.31347   2550582.92645  21012151.1804                   21012147.2814
  -4528811.73046  -3455127.41444  23371937.4534                   23371936.7234
 11  8 25 16 17 30.0000000  0 11G03G06G07G10G11G13G16G19G28G23G08
   2841377.54347   2197974.94944  21657651.8674                   21657649.9774
   3996878.12546   3108796.39143  23594315.7504                   23594313.3444
  -3910357.01247  -3022518.73445  21562111.5554                   21562108.5984
   1027083.21146    785410.54743  24177495.1414                   24177496.0864
  -4906021.66846  -3218571.43043  23853093.8754                   23853092.9224
     67040.75047    -22729.90646  20085050.1094                   20085047.2074
   4770370.39146   3718604.07443  24125396.3054                   24125395.1914
  -1759839.07047  -1348290.65246  20841249.0004                   20841244.6804
  -3728735.71146  -2842280.59043  23921726.3134                   23921726.4264
   3110440.04747   2542234.09845  21010112.5474                   21010108.3984
  -4687745.97346  -3578972.22743  23341693.6334                   23341692.2464
 11  8 25 16 18  0.0000000  0 11G03G06G07G10G11G13G16G19G28G23G08
   2826840.82847   2186647.60544  21654885.5394                   21654884.0944
   3995686.27346   3107867.64543  23594088.4144                   23594086.6994
  -4052269.96947  -3133100.24645  21535106.3444                   21535103.6374
    975473.39146    745195.03943  24167675.3594                   24167674.6414
  -5072824.50046  -3348547.62142  23821351.8914                   23821351.6684
      5992.93047    -70299.64846  20073433.1484                   20073429.8244
   4769332.92546   3717795.59943  24125198.9454                   24125198.5474
  -1844327.21547  -1414125.55546  20825170.9924                   20825166.9064
  -3877762.59846  -2958405.34443  23893368.1644                   23893366.9804
   3100161.74247   2534224.98045  21008156.6724                   21008152.3054
  -4846743.99246  -3702866.73443  23311437.7504                   23311435.9654
 11  8 25 16 18 30.0000000  0 11G03G06G07G10G11G13G16G19G28G23G08
   2812751.33647   2175668.74244  21652204.2664                   21652202.7734
   3994779.80946   3107161.24043  23593915.1954                   23593914.4804
  -4194111.96947  -3243626.45345  21508114.8364                   21508112.0904
    924181.03146    705226.89843  24157913.9064                   24157914.6524
  -5239649.94546  -3478541.39543  23789606.3284                   23789605.6764
    -54471.93747   -117415.15246  20061927.2974                   20061923.5784
   4768219.41046   3716927.87943  24124987.8524                   24124986.5784
  -1928203.39547  -1479483.62146  20809210.2664                   20809205.8014
  -4026574.21546  -3074362.35943  23865050.1024                   23865049.4884
   3090315.27047   2526552.35945  21006283.0944                   21006278.9344
  -5005807.27746  -3826812.12543  23281168.6094                   23281166.9694
 11  8 25 16 19  0.0000000  0 11G03G06G07G10G11G13G16G19G28G23G08
   2799104.46947   2165034.80144  21649607.9614                   21649605.8404
   3994153.94546   3106673.48443  23593796.2814                   23593795.6724
  -4335883.43447  -3354097.69945  21481136.4144                   21481133.6374
    873201.52046    665502.57443  24148213.3914                   24148213.5474
  -5406497.47346  -3608552.42643  23757856.7894                   23757855.7424
   -114356.14847   -164078.19146  20050531.8594                   20050528.3754
   4767026.65646   3715998.37143  24124761.8284                   24124759.2034
  -2011469.98847  -1544366.67246  20793364.7894                   20793360.5124
  -4175172.71546  -3190153.28143  23836772.0634                   23836772.4494
   3080896.01647   2519212.64145  21004490.4694                   21004486.6454
  -5164937.31646  -3950809.51644  23250886.9144                   23250885.4264
 11  8 25 16 19 30.0000000  0 11G03G06G07G10G11G13G16G19G28G23G08
   2785900.45747   2154745.90644  21647095.1024                   21647093.0234
   3993808.76646   3106404.44943  23593730.1024                   23593730.4264
  -4477580.42247  -3464510.92645  21454172.4924                   21454169.8204
    822535.16446    626022.25043  24138571.9614                   24138571.9344
  -5573362.00446  -3738576.72743  23726103.8444                   23726102.4064
   -173657.91847   -210287.38346  20039246.3284                   20039243.4734
   4765756.05546   3715008.22742  24124518.9064                   24124517.2154
  -2094124.38347  -1608772.68046  20777636.8914                   20777631.9924
  -4323555.80946  -3305776.37943  23808535.2894                   23808535.3594
   3071904.25047   2512206.02745  21002779.7114                   21002775.6524
  -5324131.08246  -4074856.56243  23220593.3754                   23220591.4304
 11  8 25 16 20  0.0000000  0 11G03G06G07G10G11G13G16G19G28G23G08
   2773135.16447   2144798.90244  21644665.4064                   21644664.2894
   3993740.51246   3106351.20743  23593717.3134                   23593716.6334
  -4619202.78147  -3574865.99245  21427222.6414                   21427219.5164
    772178.52346    586783.26643  24128989.2814                   24128989.5784
  -5740241.83646  -3868612.92643  23694347.1954                   23694346.3244
   -232379.11347   -256044.18046  20028072.4144                   20028069.5514
   4764405.19146   3713955.52043  24124261.9844                   24124261.0204
  -2176167.70347  -1672702.52346  20762024.1024                   20762019.6024
  -4471724.89846  -3421232.75443  23780340.3754                   23780339.4654
   3063336.37147   2505529.70745  21001149.2424                   21001144.6174
  -5483389.14846  -4198953.71143  23190287.6334                   23190285.5044
 11  8 25 16 20 30.0000000  0 11G03G06G07G10G11G13G16G19G28G23G08
   4336225.09847   3362791.00844  21942111.9454                   21942110.7154
   5569365.67646   4334111.02043  23893549.3524                   23893548.6134
  -3185325.52747  -2457559.02345  21700080.7034                   21700077.1024
   2297549.82046   1775384.23043  24419258.0164                   24419258.2974
  -4331709.50846  -2771055.20743  23962381.2504                   23962381.0234
   1284900.79747    926251.83646  20316801.3754                   20316798.3794
   6338392.40646   4940438.98043  24423782.1564                   24423780.8054
   -682178.27347   -508554.92246  21046320.4614                   21046316.2664
  -3044255.93746  -2308919.24643  24051979.2424                   24051978.5314
   4630609.50447   3726781.45345  21299391.2194                   21299387.0354
  -4067286.72346  -3095497.22743  23459762.5394                   23459761.1804
 11  8 25 16 21  0.0000000  0 11G03G06G07G10G11G13G16G19G28G23G08
   4324329.22347   3353521.46544  21939848.1174                   21939847.0554
   5569843.87146   4334483.58243  23893641.3364                   23893640.0474
  -3326794.87947  -2567794.86345  21673159.6954                   21673156.8834
   2247805.18446   1736622.10543  24409791.9384                   24409792.3094
  -4498611.23446  -2901108.47342  23930621.3054                   23930620.0314
   1227339.25447    881398.66446  20305847.6644                   20305844.4144
   6336878.73046   4939259.38742  24423494.3284                   24423492.5554
   -762999.78147   -571532.70746  21030940.8054                   21030936.4844
  -3191997.13846  -2424042.22843  24023864.6094                   24023863.9414
   4622882.86747   3720760.65645  21297921.1564                   21297916.7774
  -4226671.63346  -3219693.21543  23429432.5864                   23429431.3634
 11  8 25 16 21 30.0000000  0 11G03G06G07G10G11G13G16G19G28G23G08
   4312862.67647   3344586.45744  21937666.3284                   21937664.4964
   5570589.91446   4335064.85243  23893782.7194                   23893781.8914
  -3468187.03947  -2677970.55945  21646253.7344                   21646251.0354
   2198361.06646   1698094.13743  24400383.1484                   24400383.2774
  -4665521.58646  -3031168.45743  23898859.8674                   23898858.4774
   1170354.94947    836995.28946  20295003.9694                   20295000.3914
   6335280.21946   4938013.80542  24423189.5004                   24423188.5434
   -843212.33247   -634035.98846  21015676.9694                   21015672.6564
  -3339526.15646  -2538999.82843  23995790.2894                   23995789.7504
   4615571.71547   3715063.61345  21296529.7664                   21296526.2814
  -4386120.94546  -3343939.39543  23399090.4614                   23399089.1724
 11  8 25 16 22  0.0000000  0 11G03G06G07G10G11G13G16G19G28G23G08
   4301822.01647   3335983.31644  21935565.7734                   21935564.0044
   5571600.57046   4335852.32043  23893974.7114                   23893974.7664
  -3609501.70747  -2788085.87145  21619362.7274                   21619359.5704
   2149214.69146   1659798.22743  24391030.8914                   24391031.0004
  -4832438.14846  -3161233.26643  23867095.6804                   23867095.6454
   1113946.57447    793040.69146  20284269.3984                   20284266.7424
   6333595.28945   4936700.80142  24422869.2114                   24422867.6294
   -922816.63747   -696065.30146  21000529.0394                   21000524.5394
  -3486843.79746  -2653792.78543  23967756.7274                   23967756.6374
   4608673.09047   3709688.00845  21295216.6724                   21295212.9844
  -4545634.20746  -3468235.38343  23368735.9454                   23368734.6644
 11  8 25 16 22 30.0000000  0 11G03G06G07G10G11G13G16G19G28G23G08
   4291206.64147   3327711.57444  21933545.5634                   21933543.9144
   5572875.62146   4336845.79743  23894217.1564                   23894216.5204
  -3750735.59447  -2898138.23045  21592486.2504                   21592483.8714
   2100365.53146   1621733.87143  24381734.9534                   24381735.5744
  -4999356.11746  -3291299.17643  23835332.9614                   23835332.1914
   1058115.63747    749536.03946  20273645.6024                   20273642.6024
   6331825.23446   4935321.41042  24422532.5704                   24422531.4614
  -1001810.73447   -757619.14146  20985496.6414                   20985492.4804
  -3633948.17646  -2768419.53943  23939763.5474                   23939762.8594
   4602186.39147   3704633.38345  21293982.8284                   21293978.7034
  -4705208.55146  -3592578.98843  23338370.6954                   23338368.8204
 11  8 25 16 23  0.0000000  0 11G03G06G07G10G11G13G16G19G28G23G08
   4281014.85947   3319769.88344  21931605.8364                   21931604.7894
   5574412.91446   4338043.62543  23894509.7114                   23894509.3444
  -3891886.47347  -3008125.91445  21565626.3754                   21565623.3714
   2051811.92246   1583899.84043  24372495.4064                   24372496.3364
  -5166272.00046  -3421363.46143  23803569.1094                   23803568.7544
   1002861.97747    706481.21946  20263131.3284                   20263128.0044
   6329969.55146   4933875.34842  24422179.9304                   24422178.1884
  -1080194.59847   -818697.46546  20970581.0634                   20970576.4734
  -3780838.93046  -2882879.87143  23911812.3674                   23911810.8364
   4596110.25047   3699898.68445  21292826.6334                   21292822.2544
  -4864843.05546  -3716969.46943  23307992.4844                   23307991.0124
 11  8 25 16 23 30.0000000  0 11G03G06G07G10G11G13G16G19G28G23G08
   4271241.25447   3312154.04744  21929746.5634                   21929744.3484
   5576207.43446   4339441.89143  23894851.6484                   23894851.0084
  -4032955.68047  -3118049.96145  21538781.6954                   21538778.8134
   2003548.76646   1546292.10943  24363311.7664                   24363311.7464
  -5333185.61046  -3551425.96443  23771806.8674                   23771805.6094
    948182.17647    663873.55546  20252725.6564                   20252723.0514
   6328024.56646   4932359.65242  24421809.0704                   24421808.0704
  -1157970.92247   -879302.39546  20955780.2734                   20955776.0904
  -3927518.83646  -2997175.82843  23883898.7664                   23883898.9304
   4590439.62147   3695479.96145  21291747.6024                   21291743.7734
  -5024539.38346  -3841408.12143  23277603.2894                   23277602.3054
 11  8 25 16 24  0.0000000  0 11G03G06G07G10G11G13G16G19G28G23G08
   4261882.89147   3304861.79344  21927965.0234                   21927963.5984
   5578256.60946   4341038.60943  23895241.3364                   23895241.0704
  -4173941.64547  -3227909.14545  21511952.7504                   21511950.0314
   1955573.40646   1508908.70343  24354181.9694                   24354181.9844
  -5500094.01646  -3681484.43043  23740044.8914                   23740044.4264
    894075.60247    621712.56646  20242429.8284                   20242426.9224
   6325989.43845   4930773.82043  24421422.6884                   24421422.0004
  -1235140.23047   -939434.32846  20941095.9304                   20941091.4774
  -4073987.86746  -3111307.53543  23856027.1174                   23856025.8984
   4585172.00447   3691375.28145  21290745.4304                   21290740.9884
  -5184296.98046  -3965894.52743  23247202.7664                   23247200.8364
 11  8 25 16 24 30.0000000  0 11G03G06G07G10G11G13G16G19G28G23G08
   4252941.05947   3297894.09044  21926263.2034                   21926262.1644
   5580561.53946   4342834.60543  23895680.2734                   23895680.1214
  -4314839.71147  -3337699.83245  21485140.9694                   21485138.0274
   1907886.76646   1471750.19143  24345107.0634                   24345107.7814
  -5666990.80946  -3811533.82843  23708286.0864                   23708285.2894
    840545.05547    580000.43046  20232243.1484                   20232240.0554
   6323867.06346   4929119.90643  24421017.9924                   24421016.9964
  -1311699.28947   -999090.73846  20926526.7734                   20926522.6334
  -4220242.88746  -3225272.45743  23828195.6644                   23828194.6994
   4580308.72747   3687585.66445  21289819.6254                   21289815.8324
  -5344111.93746  -4090425.63343  23216790.5394                   23216788.9654
 11  8 25 16 25  0.0000000  0 11G03G06G07G10G11G13G16G19G28G23G08
   4244408.43047   3291245.22744  21924639.8134                   21924638.5044
   5583115.43846   4344824.57843  23896166.4384                   23896165.5394
  -4455652.52047  -3447424.09445  21458345.2814                   21458342.1214
   1860482.47346   1434811.74243  24336086.4924                   24336086.8324
  -5833877.45746  -3941575.30943  23676528.4614                   23676527.5984
    787585.26247    538733.03546  20222165.1024                   20222162.3754
   6321652.01646   4927393.84843  24420596.0394                   24420595.7504
  -1387652.59447  -1058275.14146  20912073.6564                   20912069.3674
  -4366288.43746  -3339074.11743  23800404.5394                   23800403.3444
   4575842.91047   3684105.75845  21288970.0554                   21288965.9534
  -5503987.93046  -4215004.31243  23186366.9384                   23186365.6134
 11  8 25 16 25 30.0000000  0 11G03G06G07G10G11G13G16G19G28G23G08
   4236282.50447   3284913.29744  21923093.6174                   21923092.5514
   5585916.08646   4347006.83243  23896699.5474                   23896698.7154
  -4596378.41047  -3557080.61345  21431565.6484                   21431562.9654
   1813358.10546   1398091.41443  24327119.7274                   24327119.7114
  -6000750.94446  -4071606.56443  23644773.1724                   23644772.8914
    735195.66047    497909.94146  20212196.2274                   20212193.3054
   6319343.59846   4925594.97343  24420157.8834                   24420156.4224
  -1463000.11747  -1116987.49246  20897735.1094                   20897730.9144
  -4512124.26646  -3452712.38343  23772652.5554                   23772651.8834
   4571772.44547   3680933.91445  21288195.2034                   21288191.4344
  -5663923.19146  -4339629.16043  23155932.5944                   23155930.7274
 11  8 25 16 26  0.0000000  0 11G03G06G07G10G11G13G16G19G28G23G08
   4228561.75447   3278897.10944  21921624.5234                   21921623.0664
   5588961.78546   4349380.07843  23897279.2734                   23897277.9924
  -4737015.22747  -3666667.72745  21404803.7034                   21404800.8444
   1766511.97746   1361587.91043  24318204.9694                   24318205.5124
  -6167607.27346  -4201624.45343  23613021.5944                   23613020.5864
    683376.52747    457531.37946  20202334.9454                   20202331.8364
   6316941.61346   4923723.18443  24419700.5314                   24419699.1024
  -1537741.33247  -1175227.40246  20883512.6804                   20883508.5944
  -4657749.74246  -3566186.74243  23744940.8054                   23744940.2034
   4568095.99647   3678069.09445  21287495.5004                   21287491.7234
  -5823916.65246  -4464299.35244  23125487.5314                   23125485.6994
 11  8 25 16 26 30.0000000  0 11G03G06G07G10G11G13G16G19G28G23G08
   4221243.79347   3273194.75444  21920231.9614                   21920230.1024
   5592250.41846   4351942.57043  23897904.8054                   23897904.1414
  -4877561.14147  -3776184.00445  21378058.3054                   21378055.6094
   1719942.09446   1325299.60543  24309343.8444                   24309343.7234
  -6334443.41046  -4331626.58643  23581273.7424                   23581273.0904
    632127.31347    417596.90246  20192583.0474                   20192579.5664
   6314445.80946   4921778.36743  24419225.8134                   24419224.7544
  -1611876.38747  -1232994.98046  20869405.0474                   20869400.6214
  -4803164.54346  -3679496.92643  23717269.5634                   23717268.7704
   4564811.21547   3675509.47345  21286870.8204                   21286866.9774
  -5983966.95746  -4589013.84444  23095029.9614                   23095029.0744
 11  8 25 16 27  0.0000000  0 11G03G06G07G10G11G13G16G19G28G23G08
   4214321.31347   3267800.57844  21918914.2734                   21918912.9964
   5595774.98846   4354688.93843  23898575.7114                   23898574.5664
  -5018018.89147  -3885631.58645  21351330.5634                   21351327.4614
   1673641.71146   1289221.29343  24300532.9304                   24300533.1764
  -6501260.92646  -4461614.19143  23549528.7504                   23549528.5044
    581442.74247    378102.40246  20182937.1334                   20182934.8094
   6311851.13346   4919756.46943  24418732.9774                   24418731.3244
  -1685410.34047  -1290294.17246  20855411.5164                   20855407.8484
  -4948373.61746  -3792646.77343  23689636.2114                   23689636.6254
   4561911.27047   3673249.72745  21286319.0634                   21286315.0824
  -6144077.64147  -4713775.37144  23064562.0554                   23064560.7344
 11  8 25 16 27 30.0000000  0 11G03G06G07G10G11G13G16G19G28G23G08
   4207796.63347   3262716.37144  21917673.5554                   21917671.8484
   5599537.64146   4357620.80143  23899291.8754                   23899290.9694
  -5158382.66047  -3995005.94145  21324620.1334                   21324616.9774
   1627612.53146   1253354.32843  24291772.9384                   24291773.6134
  -6668051.96146  -4591581.18043  23517789.8594                   23517788.6724
    531326.47347    339050.74246  20173400.8204                   20173397.9264
   6309160.93446   4917660.08243  24418220.4454                   24418219.1564
  -1758339.03547  -1347121.73446  20841534.3914                   20841529.9454
  -5093372.58246  -3905632.90643  23662044.0554                   23662043.1374
   4559398.35947   3671291.55545  21285840.9614                   21285836.4734
  -6304243.47746  -4838579.88744  23034084.2274                   23034082.4024
 11  8 25 16 28  0.0000000  0 11G03G06G07G10G11G13G16G19G28G23G08
   4201664.14547   3257937.75844  21916506.3984                   21916504.8524
   5603533.36346   4360734.27343  23900051.7894                   23900051.1884
  -5298653.26647  -4104307.70745  21297927.2424                   21297924.5904
   1581849.75046   1217694.97742  24283064.6484                   24283066.2234
  -6834816.34046  -4721527.39843  23486055.4224                   23486055.0314
    481774.63747    300438.89846  20163971.6484                   20163968.6724
   6306371.93046   4915486.76242  24417689.1174                   24417687.8134
  -1830665.54347  -1403480.06246  20827770.7974                   20827766.9264
  -5238164.11746  -4018457.40643  23634491.1024                   23634490.0354
   4557267.54747   3669631.12945  21285435.3914                   21285431.4224
  -6464466.46147  -4963428.93744  23003594.7584                   23003592.8634
 11  8 25 16 28 30.0000000  0 11G03G06G07G10G11G13G16G19G28G23G08
   4195920.49647   3253462.15244  21915412.4614                   21915411.7544
   5607759.29346   4364027.12943  23900856.0314                   23900855.7194
  -5438829.78147  -4213536.13745  21271252.6644                   21271250.1024
   1536350.55546   1182240.95743  24274406.6884                   24274408.0204
  -7001551.51046  -4851450.82043  23454327.2424                   23454326.1764
    432786.41447    262266.24246  20154649.5234                   20154646.6454
   6303483.18845   4913235.70342  24417140.0084                   24417138.8714
  -1902390.75847  -1459369.85546  20814122.1644                   20814117.9884
  -5382748.83646  -4131120.76243  23606977.6484                   23606976.6134
   4555515.85247   3668266.12545  21285102.0554                   21285097.7664
  -6624745.85946  -5088321.94944  22973093.5944                   22973092.3674
 11  8 25 16 29  0.0000000  0 11G03G06G07G10G11G13G16G19G28G23G08
   5765986.46546   4476890.12944  22214186.5084                   22214185.3634
   7187635.58246   5595099.48443  24201496.4924                   24201496.6254
  -4003483.01647  -3095084.10545  21544389.5394                   21544387.2664
   3066536.68046   2374593.75443  24565591.8674                   24565592.6094
  -5592826.39146  -3753742.89143  23722398.4534                   23722398.0354
   1959784.92647   1452135.17646  20445227.8594                   20445224.5904
   7875916.41045   6138508.23043  24716363.2194                   24716363.0704
   -398090.20347   -287187.61746  21100381.2344                   21100376.8634
  -3951699.28146  -3016017.15643  23879297.8134                   23879296.3874
   6129563.81647   4894796.94545  21584633.4224                   21584629.6254
  -5209652.85547  -3985652.05944  23242377.4144                   23242375.9964
 11  8 25 16 29 30.0000000  0 11G03G06G07G10G11G13G16G19G28G23G08
   5761015.81347   4473016.85544  22213241.0554                   22213240.2114
   7192317.22346   5598747.40243  24202387.6804                   24202387.3364
  -4143463.69147  -3204159.93745  21517752.6644                   21517750.1764
   3021559.77745   2339546.71542  24557033.3284                   24557033.8444
  -5759491.70846  -3883611.87743  23690682.9224                   23690682.1724
   1911923.17647   1414840.28146  20436119.7344                   20436117.2304
   7872828.07846   6136101.70342  24715776.9924                   24715776.1484
   -468611.53547   -342139.30546  21086961.2894                   21086957.1134
  -4095868.25046  -3128356.53943  23851862.9694                   23851861.6524
   6128565.75047   4894019.17645  21584443.4844                   21584439.6954
  -5370039.73047  -4110628.81643  23211857.1094                   23211854.8634
 11  8 25 16 30  0.0000000  0 11G03G06G07G10G11G13G16G19G28G23G08
   5756427.02046   4469441.13744  22212367.3674                   22212366.2734
   7197222.23046   5602569.42243  24203321.1884                   24203320.4384
  -4283345.17247  -3313158.48045  21491134.4304                   21491131.3674
   2976839.11746   2304699.36342  24548523.3054                   24548523.7894
  -5926118.25446  -4013450.70743  23658975.3914                   23658974.3324
   1864622.37547   1377982.49246  20427118.7424                   20427115.9734
   7869638.07846   6133615.88742  24715170.0164                   24715169.1844
   -538532.80147   -396623.41046  21073655.6724                   21073651.6414
  -4239830.51646  -3240534.84843  23824468.0314                   23824466.7704
   6127940.07047   4893531.57845  21584324.5704                   21584320.8134
  -5530479.86346  -4235647.07443  23181325.8834                   23181324.5164
 11  8 25 16 30 30.0000000  0 11G03G06G07G10G11G13G16G19G28G23G08
   5752215.92246   4466159.70744  22211566.9064                   22211565.0944
   7202346.94146   5606562.62143  24204296.8054                   24204295.9064
  -4423126.96147  -3422079.34445  21464534.4534                   21464531.2894
   2932371.45746   2270049.25042  24540061.2274                   24540062.0474
  -6092704.16446  -4143257.82843  23627274.2894                   23627274.0234
   1817880.44147   1341560.18846  20418224.1884                   20418221.0044
   7866344.64145   6131049.45342  24714542.8204                   24714543.2034
   -607855.46547   -450641.07846  21060463.6954                   21060459.7194
  -4383587.48846  -3352553.19143  23797111.7974                   23797110.6884
   6127682.93047   4893331.14545  21584272.8284                   21584272.1374
  -5690973.57846  -4360707.07444  23150785.3054                   23150783.5634
 11  8 25 16 31  0.0000000  0 11G03G06G07G10G11G13G16G19G28G23G08
   5748382.01246   4463172.19544  22210837.5164                   22210835.8874
   7207691.18446   5610726.87943  24205313.9614                   24205313.6094
  -4562805.39847  -3530919.67645  21437954.4454                   21437951.6294
   2888156.34045   2235595.85242  24531646.7974                   24531648.5664
  -6259244.25446  -4273029.28943  23595583.0394                   23595582.7814
   1771698.36347   1305574.11746  20409436.1334                   20409433.2504
   7862949.13745   6128403.52742  24713896.4694                   24713896.7584
   -676578.04747   -504191.14146  21047386.7424                   21047382.2154
  -4527137.30546  -3464410.11343  23769795.3754                   23769793.7034
   6127794.38347   4893417.93845  21584296.7114                   21584292.4264
  -5851517.66846  -4485806.32843  23120234.0864                   23120233.3134
 11  8 25 16 31 30.0000000  0 11G03G06G07G10G11G13G16G19G28G23G08
   5744921.77047   4460475.86344  22210178.4774                   22210176.9024
   7213251.43046   5615059.43843  24206371.1954                   24206371.7584
  -4702379.72347  -3639678.87545  21411394.6024                   21411391.6054
   2844190.09445   2201336.36342  24523280.7114                   24523281.7934
  -6425736.76246  -4402763.64543  23563900.1724                   23563899.8674
   1726074.38347   1270022.94146  20400753.9614                   20400751.2664
   7859449.65245   6125676.59442  24713230.4144                   24713231.2704
   -744702.38747   -557275.04746  21034422.5554                   21034418.7894
  -4670481.25046  -3576106.63343  23742517.5704                   23742516.1374
   6128270.69547   4893789.03945  21584387.5004                   21584383.6804
  -6012112.51646  -4610945.12144  23089674.2344                   23089673.3594
 11  8 25 16 32  0.0000000  0 11G03G06G07G10G11G13G16G19G28G23G08
   5741831.08246   4458067.51243  22209589.9384                   22209589.1094
   7219024.15246   5619557.61743  24207469.9384                   24207470.0004
  -4841849.37947  -3748356.51645  21384854.4534                   21384851.4884
   2800469.35946   2167268.25042  24514960.0004                   24514962.4924
  -6592179.66046  -4532459.35243  23532227.1414                   23532226.5204
   1681006.21147   1234904.85246  20392177.8754                   20392174.9774
   7855844.58245   6122867.36742  24712544.4774                   24712545.2154
   -812230.03547   -609893.99246  21021572.8364                   21021568.7384
  -4813620.33646  -3687643.51243  23715279.3834                   23715278.0434
   6129108.37147   4894441.71145  21584547.1644                   21584543.2544
  -6172758.03146  -4736123.40243  23059104.0554                   23059103.0204
 11  8 25 16 32 30.0000000  0 11G03G06G07G10G11G13G16G19G28G23G08
   5739106.64546   4455944.51243  22209071.7734                   22209070.8444
   7225006.27046   5624218.93843  24208608.9454                   24208608.6214
  -4981213.57847  -3856951.99245  21358333.8754                   21358331.4144
   2756990.82446   2133388.71142  24506687.0164                   24506689.1564
  -6758570.39846  -4662114.38743  23500565.0394                   23500563.6334
   1636491.78547   1200218.27046  20383707.2424                   20383704.2814
   7852132.64146   6119974.83642  24711838.5864                   24711839.3094
   -879162.52047   -662049.18446  21008836.1024                   21008831.3714
  -4956555.79746  -3799021.75043  23688079.6414                   23688078.0474
   6130304.12147   4895373.39845  21584774.5474                   21584770.9304
  -6333453.85246  -4861340.88344  23028524.4224                   23028522.8594
 11  8 25 16 33  0.0000000  0 11G03G06G07G10G11G13G16G19G28G23G08
   5736747.10246   4454105.85244  22208623.2814                   22208621.8524
   7231196.50446   5629042.41043  24209786.5864                   24209786.6954
  -5120469.23047  -3965462.87945  21331834.6564                   21331831.8284
   2713753.29346   2099697.02742  24498458.9454                   24498461.6524
  -6924904.91446  -4791725.63743  23468911.8364                   23468911.0864
   1592531.40247   1165963.39845  20375341.8284                   20375339.3204
   7848314.11746   6116999.27742  24711112.3674                   24711112.9734
   -945499.25047   -713740.13745  20996212.3984                   20996207.8834
  -5099286.71946  -3910240.61343  23660918.5394                   23660917.2734
   6131856.77347   4896583.18445  21585069.9224                   21585066.1174
  -6494197.91846  -4986595.97744  22997935.8284                   22997934.7584
 11  8 25 16 33 30.0000000  0 11G03G06G07G10G11G13G16G19G28G23G08
   5734749.39846   4452549.15244  22208242.7664                   22208241.5164
   7237592.18446   5634025.98843  24211004.5474                   24211004.1094
  -5259615.32047  -4073888.39845  21305355.7344                   21305352.8714
   2670753.82046   2066190.94542  24490277.3054                   24490278.9614
  -7091180.52346  -4921290.96143  23437271.1254                   23437270.2194
   1549123.74247   1132139.21946  20367081.0864                   20367078.8284
   7844388.30946   6113940.24242  24710364.3914                   24710365.9884
  -1011241.32447   -764967.73045  20983702.1484                   20983697.6524
  -5241813.61746  -4021300.49643  23633796.6884                   23633795.1604
   6133763.42247   4898068.83245  21585432.9224                   21585429.1334
  -6654989.32446  -5111887.92243  22967338.1724                   22967337.0084
 11  8 25 16 34  0.0000000  0 11G03G06G07G10G11G13G16G19G28G23G08
   5733111.82446   4451273.08243  22207931.5234                   22207930.0904
   7244191.75846   5639168.42643  24212259.5004                   24212259.1134
  -5398649.30547  -4182226.55945  21278898.2814                   21278895.5514
   2627990.891 5                  24482138.930
  -7257393.18046  -5050807.23443  23405641.6884                   23405639.8134
   1506268.33647   1098745.37145  20358926.8754                   20358923.7424
   7840355.29346   6110797.50042  24709597.4924                   24709597.6254
  -1076388.46147   -815731.73846  20971304.6484                   20971300.3984
  -5384136.00846  -4132201.03143  23606713.5084                   23606711.6914
   6136022.28947   4899828.91445  21585862.6334                   21585859.3834
  -6815826.28546  -5237215.39844  22936732.3594                   22936730.9064
 11  8 25 16 34 30.0000000  0 11G03G06G07G10G11G13G16G19G28G23G08
   5731829.44946   4450273.78143  22207687.5634                   22207686.0204
   7250990.89846   5644466.41843  24213552.6884                   24213553.0434
  -5537571.12547  -4290477.32445  21252462.3134                   21252459.7344
   2585459.887 6                  24474046.063
  -7423541.67646  -5180273.53143  23374023.2734                   23374023.0634
   1463962.07847   1065779.43046  20350876.0864                   20350873.1844
   7836212.71946   6107569.41042  24708810.2814                   24708808.4224
  -1140943.49247   -866034.36345  20959020.5004                   20959016.2854
  -5526255.72746  -4242943.58643  23579669.3524                   23579667.8714
   6138629.12547   4901860.15645  21586358.9224                   21586355.3484
  -6976709.90246  -5362579.20744  22906116.6174                   22906115.6524
 11  8 25 16 35  0.0000000  0 11G03G06G07G10G11G13G16G19G28G23G08
   5730898.86346   4449548.58644  22207510.2894                   22207508.4304
   7257986.07846   5649917.13342  24214885.2194                   24214884.6684
  -5676380.18047  -4398640.22345  21226048.0314                   21226045.1644
   2543157.047 5                  24465995.703
  -7589624.07046  -5309688.30943  23342419.5474                   23342418.5784
   1422202.80947   1033239.71546  20342928.8754                   20342926.5824
   7831958.93446   6104254.69942  24708000.2504                   24707998.6484
  -1204908.40647   -915877.15246  20946848.6024                   20946844.0944
  -5668174.33246  -4353529.48843  23552662.4844                   23552661.6844
   6141580.23847   4904159.66045  21586920.4614                   21586916.8914
  -7137640.19947  -5487979.41444  22875493.6414                   22875491.5354
 11  8 25 16 35 30.0000000  0 11G03G06G07G10G11G13G16G19G28G23G08
   5730318.55546   4449096.36344  22207400.3444                   22207398.9224
   7265176.44546   5655519.96142  24216252.9614                   24216253.3054
  -5815073.74647  -4506713.12145  21199655.4614                   21199653.0824
   2501081.531 6                  24457989.523
  -7755635.75046  -5439047.98443  23310828.8134                   23310827.8594
   1380990.80547   1001126.43845  20335086.7734                   20335083.8914
   7827594.79746   6100854.00043  24707169.1334                   24707168.8834
  -1268282.36347   -965259.45745  20934788.8754                   20934784.6054
  -5809890.57047  -4463957.68743  23525694.4384                   23525693.7504
   6144874.68447   4906726.68445  21587547.8364                   21587544.0434
  -7298614.70747  -5613414.05943  22844861.0704                   22844859.5394
 11  8 25 16 36  0.0000000  0 11G03G06G07G10G11G13G16G19G28G23G08
   5730086.42646   4448915.41844  22207355.5784                   22207354.4104
   7272559.91045   5661273.18842  24217658.1724                   24217658.2424
  -5953649.36747  -4614694.12946  21173286.0004                   21173283.0314
   2459231.180 5                  24450026.188
  -7921573.28546  -5568349.86343  23279252.3284                   23279250.8594
   1340324.98447    969438.75845  20327348.2734                   20327345.6764
   7823119.80946   6097366.93843  24706318.2344                   24706317.3954
  -1331066.22747  -1014181.94945  20922841.4774                   20922837.0314
  -5951404.55546  -4574228.28943  23498765.1564                   23498764.4804
   6148510.18447   4909559.46545  21588238.8754                   21588236.0944
  -7459631.52047  -5738881.68444  22814219.9534                   22814218.4574
 11  8 25 16 36 30.0000000  0 11G03G06G07G10G11G13G16G19G28G23G08
   5730198.42646   4449002.62944  22207378.1254                   22207375.7934
   7280133.15646   5667174.35942  24219099.4384                   24219099.8914
  -6092106.46547  -4722582.78145  21146938.3284                   21146935.2234
   2417602.789 5                  24442104.547
  -8087434.54346  -5697592.31243  23247689.2664                   23247688.5554
   1300203.37547    938175.13745  20319713.6024                   20319711.2304
   7818532.96546   6093792.67643  24705445.1564                   24705444.8594
  -1393261.52047  -1062645.82045  20911006.1644                   20911001.6294
  -6092717.43447  -4684342.20743  23471875.2504                   23471872.7424
   6152483.18047   4912655.25445  21588995.7274                   21588991.9064
  -7620690.77747  -5864382.37544  22783572.1414                   22783569.3794
 11  8 25 16 37  0.0000000  0 11G03G06G07G10G11G13G16G19G28G23G08
   5730651.13346   4449355.35544  22207463.4534                   22207462.6724
   7287892.75045   5673220.75043  24220576.3134                   24220575.9884
  -6230444.13747  -4830378.35245  21120613.6174                   21120610.4064
   2376192.398 5                  24434224.484
  -8253217.49646  -5826773.77343  23216142.0164                   23216140.9144
   1260623.41447    907333.57446  20312182.0704                   20312178.9454
   7813832.38346   6090129.80142  24704550.7114                   24704550.3554
  -1454870.17247  -1110652.57445  20899282.3594                   20899277.3524
  -6233830.35946  -4794300.28943  23445021.3914                   23445020.2034
   6156790.30947   4916011.39545  21589815.2344                   21589811.6954
  -7781792.55546  -5989916.20744  22752915.0474                   22752912.7154
 11  8 25 16 37 30.0000000  0 11G03G06G07G10G11G13G16G19G28G23G08
   5731443.69946   4449972.87144  22207613.7734                   22207613.3244
   7295838.16446   5679411.91843  24222088.5704                   24222087.8444
  -6368658.91047  -4938078.16845  21094311.6724                   21094309.2504
   2334999.656 6                  24426386.109
  -8418916.94946  -5955890.16043  23184610.5234                   23184609.3874
   1221586.05947    876914.82446  20304753.5314                   20304750.2464
   7809019.58646   6086379.46542  24703635.0314                   24703634.2274
  -1515891.08247  -1158201.34845  20887670.0944                   20887666.0784
  -6374741.93046  -4904101.45743  23418206.7974                   23418205.9774
   6161430.85547   4919627.34444  21590697.8754                   21590695.0634
  -7942933.48847  -6115480.57444  22722251.5634                   22722249.2774
 11  8 25 16 38  0.0000000  0 11G03G06G07G10G11G13G16G19G28G23G08
   7307993.15646   5678452.91444  22507621.3444                   22507620.1884
   8879386.78946   6913345.83243  24523427.7664                   24523427.3284
  -4931323.90647  -3818076.86345  21367827.9224                   21367825.0784
   3869442.934 6                  24718381.094
  -7009104.55146  -4857334.94943  23452888.5704                   23452887.7774
   2758510.85947   2074518.53146  20597220.6024                   20597217.5984
   9379513.68445   7310140.99242  25002489.6804                   25002489.8484
      -903.35947     22308.55945  21175962.8594                   21175958.4844
  -4940027.49646  -3786142.12543  23691224.4304                   23691222.8324
   7741821.68047   6151100.64845  21891436.9774                   21891433.1914
  -6528687.37947  -5013470.60544  22991373.0864                   22991371.0314
 11  8 25 16 38 30.0000000  0 11G03G06G07G10G11G13G16G19G28G23G08
   7309455.32446   5679592.20344  22507900.0864                   22507898.8874
   8887695.12145   6919819.76643  24525009.2034                   24525008.4064
  -5069288.99247  -3925582.11745  21341573.5234                   21341570.9104
   3828675.73045   3255131.02752  24710623.7894                   24710622.7464
  -7174629.48846  -4986315.35243  23421390.4224                   23421388.9144
   2720552.52747   2044940.57846  20589997.2424                   20589994.5004
   9374472.83245   7306212.98042  25001531.4064                   25001530.8984
    -60753.48847    -24327.92245  21164574.6564                   21164570.1054
  -5080538.60246  -3895631.23843  23664485.7114                   23664484.5434
   7747119.21147   6155228.53945  21892444.8364                   21892441.1484
  -6689905.37947  -5139094.99244  22960694.0084                   22960692.8134
 11  8 25 16 39  0.0000000  0 10G03G06G07G10G11G13G19G28G23G08
   7311247.79346   5680988.87544  22508241.5234                   22508240.2544
   8896180.88346   6926431.95743  24526622.9064                   24526623.3554
  -5207127.12947  -4032988.44945  21315343.7274                   21315341.0394
   3788117.19546   3223526.89142  24702905.3444                   24702906.2344
  -7340062.98046  -5115224.48043  23389909.0164                   23389908.3204
   2683131.02047   2015780.92645  20582876.4304                   20582873.6524
   -120020.43047    -70509.96945  21153295.6564                   21153291.4454
  -5220850.69946  -4004965.28943  23637784.9224                   23637784.0164
   7752741.18447   6159609.21945  21893514.7584                   21893511.1684
  -6851160.55947  -5264748.34044  22930008.1644                   22930006.8094
 11  8 25 16 39 30.0000000  0 10G03G06G07G10G11G13G19G28G23G08
   7313368.66047   5682641.44544  22508645.1334                   22508643.9184
   8904842.59046   6933181.27743  24528271.4304                   24528271.5984
  -5344835.68447  -4140293.81245  21289139.1884                   21289136.0944
   3747765.66445   3192084.11742  24695226.1954                   24695227.7974
  -7505401.04346  -5244059.27743  23358446.3204                   23358445.1414
   2646246.06348   1987039.36346  20575857.2894                   20575854.4844
   -178704.24647   -116237.63345  21142128.6644                   21142124.3014
  -5360963.02346  -4114143.66443  23611122.3204                   23611121.8714
   7758685.61347   6164241.16845  21894645.6174                   21894642.3204
  -7012451.03547  -5390429.19544  22899316.1484                   22899314.1844
 11  8 25 16 40  0.0000000  0 10G03G06G07G10G11G13G19G28G23G08
   7315817.45746   5684549.52044  22509110.7194                   22509109.4184
   8913679.82846   6940067.35243  24529953.5164                   24529953.0044
  -5482411.14847  -4247495.47745  21262959.2274                   21262956.2344
   3707620.57846   3160802.14842  24687586.3754                   24687588.6724
  -7670638.31646  -5372815.49243  23327002.5474                   23327001.6644
   2609898.24648   1958716.35946  20568940.3594                   20568937.6764
   -236803.95747   -161510.14545  21131073.0314                   21131068.5044
  -5500874.03946  -4223165.18443  23584498.8364                   23584496.8404
   7764952.12147   6169124.08645  21895838.4224                   21895834.9264
  -7173773.19147  -5516134.76244  22868616.6174                   22868615.0084
 11  8 25 16 40 30.0000000  0 10G03G06G07G10G11G13G19G28G23G08
   7318594.39846   5686713.31644  22509638.9924                   22509637.8094
   8922693.52746   6947090.90643  24531669.6334                   24531668.1524
  -5619848.08647  -4354589.19145  21236805.9454                   21236802.6994
   3667682.21146   3129681.23042  24679986.8674                   24679988.3444
  -7835768.74246  -5501488.50043  23295579.3284                   23295578.5394
   2574089.28548   1930813.23846  20562126.5314                   20562123.5234
   -294317.26247   -206325.72345  21120128.3674                   21120123.8134
  -5640580.96546  -4332027.67243  23557913.0634                   23557911.4454
   7771541.20747   6174258.35545  21897091.9454                   21897088.9614
  -7335123.03547  -5641861.87944  22837913.1804                   22837911.0864
 11  8 25 16 41  0.0000000  0 10G03G06G07G10G11G13G19G28G23G08
   7321697.58646   5689131.32443  22510229.7274                   22510228.6334
   8931881.95746   6954250.66043  24533417.0084                   24533416.9734
  -5757144.19947  -4461573.15645  21210679.3054                   21210676.3954
   3627948.93046   3098720.19142  24672426.1724                   24672426.8594
  -8000788.34446  -5630075.12943  23264177.5784                   23264175.8984
   2538818.15247   1903329.19946  20555414.2814                   20555411.9184
   -351244.86747   -250684.92245  21109295.5004                   21109291.1564
  -5780083.49646  -4440730.93043  23531366.1884                   23531364.8954
   7778450.97347   6179642.52045  21898407.1564                   21898404.0084
  -7496498.66847  -5767609.11344  22807203.7664                   22807202.2504
 11  8 25 16 41 30.0000000  0 10G03G06G07G10G11G13G19G28G23G08
   7325121.58646   5691799.30543  22510881.1564                   22510879.8914
   8941239.87145   6961542.43843  24535197.8754                   24535197.9534
  -5894300.23047  -4568447.98045  21184579.0314                   21184576.4144
   3588415.28546   3067914.66442  24664904.0634                   24664904.1374
  -8165696.78946  -5758575.15643  23232795.7814                   23232794.8754
   2504080.88747   1876261.16446  20548803.9844                   20548801.2504
   -407590.21547   -294590.41045  21098572.9614                   21098569.0394
  -5919384.33646  -4549277.00843  23504858.0634                   23504856.9304
   7785675.88347   6185272.24244  21899782.5394                   21899778.6914
  -7657901.75047  -5893377.73044  22776490.2814                   22776488.7734
 11  8 25 16 42  0.0000000  0 10G03G06G07G10G11G13G19G28G23G08
   7328861.43846   5694713.43044  22511592.8914                   22511592.2974
   8950763.09846   6968963.02043  24537010.7034                   24537010.7234
  -6031316.68747  -4675214.03945  21158505.8444                   21158503.2074
   3549076.55546   3037261.05143  24657417.1564                   24657418.2304
  -8330492.95346  -5886987.69143  23201436.5234                   23201435.0554
   2469873.84047   1849606.28146  20542295.1334                   20542292.0664
   -463356.88747   -338044.96945  21087961.2584                   21087956.7774
  -6058486.07446  -4657667.92643  23478388.4064                   23478386.4344
   7793211.35547   6191143.96945  21901216.2274                   21901212.5514
  -7819332.66447  -6019168.02044  22745770.7584                   22745769.5744
 11  8 25 16 42 30.0000000  0 10G03G06G07G10G11G13G19G28G23G08
   7332915.91846   5697872.69143  22512364.7344                   22512363.2504
   8960450.57846   6976511.64542  24538853.9614                   24538853.8834
  -6168190.35947  -4781868.84445  21132459.2034                   21132456.5634
   3509932.13746   3006758.82043  24649969.6724                   24649970.0904
  -8495172.19146  -6015309.11343  23170099.3674                   23170097.2074
   2436197.13347   1823364.66446  20535886.4924                   20535883.7704
   -518544.52047   -381048.33645  21077459.4224                   21077455.1914
  -6197387.82846  -4765903.07843  23451955.9384                   23451954.7774
   7801056.35547   6197256.87545  21902709.3524                   21902705.2974
  -7980789.12147  -6144978.21944  22715046.7274                   22715045.6174
 11  8 25 16 43  0.0000000  0 10G03G06G07G10G11G13G19G28G23G08
   7337279.66846   5701272.98443  22513195.1334                   22513193.5514
   8970297.53546   6984184.53543  24540727.2034                   24540728.3714
  -6304921.75447  -4888412.79345  21106440.7424                   21106437.6994
   3470976.55546   2976403.75043  24642555.7034                   24642556.6844
  -8659733.71146  -6143538.80543  23138784.5394                   23138782.4534
   2403046.52047   1797532.97345  20529578.2584                   20529575.1334
   -573156.83247   -423603.39145  21067067.1804                   21067062.6094
  -6336092.45346  -4873984.54743  23425560.9534                   23425560.1524
   7809205.55947   6203606.83244  21904260.0864                   21904256.2974
  -8142272.03947  -6270809.03544  22684317.2424                   22684316.5354
 11  8 25 16 43 30.0000000  0 10G03G06G07G10G11G13G19G28G23G08
   7341949.76246   5704911.94543  22514084.3284                   22514082.5164
   8980301.17245   6991979.46942  24542632.1954                   24542632.8754
  -6441509.22347  -4994844.58245  21080448.5004                   21080446.2234
   3432207.04346   2946193.68443  24635178.3524                   24635179.0664
  -8824174.64846  -6271674.53943  23107491.3914                   23107490.1684
   2370420.04747   1772109.71545  20523369.4304                   20523366.7304
   -627195.46947   -465711.44545  21056783.8754                   21056779.6564
  -6474600.69946  -4981913.01243  23399204.2034                   23399203.0314
   7817655.69547   6210191.27344  21905868.4534                   21905864.6214
  -8303780.88747  -6396660.05944  22653583.5004                   22653582.4304
 11  8 25 16 44  0.0000000  0 10G03G06G07G10G11G13G19G28G23G08
   7346922.17646   5708786.48843  22515030.9534                   22515029.1564
   8990457.55146   6999893.46942  24544564.2034                   24544565.9964
  -6577952.52047  -5101164.03545  21054484.3834                   21054481.6374
   3393619.51246   2916125.39843  24627835.6484                   24627836.0824
  -8988493.66446  -6399715.28143  23076222.8444                   23076221.6374
   2338314.55147   1747092.39846  20517260.1254                   20517257.2584
   -680662.95347   -507374.43445  21046609.1644                   21046605.3594
  -6612914.23446  -5089689.76243  23372884.3364                   23372882.3594
   7826403.07847   6217007.33244  21907533.0394                   21907529.2504
  -8465315.64847  -6522531.26644  22622844.7034                   22622842.6914
 11  8 25 16 44 30.0000000  0 10G03G06G07G10G11G13G19G28G23G08
   7352193.87946   5712894.23443  22516033.6804                   22516032.3594
   9000764.62146   7007924.86342  24546525.0944                   24546526.9614
  -6714250.05147  -5207369.89845  21028548.0634                   21028544.8164
   3355211.28146   2886196.81643  24620526.2344                   24620527.5984
  -9152687.33646  -6527658.32843  23044977.8284                   23044976.6954
   2306728.59047   1722479.93445  20511249.6484                   20511246.6174
   -733560.73847   -548593.49645  21036543.1644                   21036538.8984
  -6751033.66846  -5197315.25443  23346600.1954                   23346599.7814
   7835444.84447   6224052.80144  21909253.5084                   21909249.6954
  -8626875.18047  -6648421.78144  22592100.8444                   22592098.8204
 11  8 25 16 45  0.0000000  0 10G03G06G07G10G11G13G19G28G23G08
   7357760.10946   5717231.52344  22517092.3914                   22517092.0944
   9011217.79746   7016070.09443  24548515.5314                   24548516.6174
  -6850401.80947  -5313462.17645  21002639.3134                   21002636.3714
   3316977.75346   2856404.41243  24613250.8364                   24613252.0594
  -9316754.70746  -6655502.96543  23013756.5704                   23013755.1334
   2275658.29747   1698269.28145  20505337.1094                   20505334.5234
   -785892.00847   -589371.12545  21026584.4614                   21026580.4574
  -6888961.45746  -5304791.42643  23320353.7034                   23320352.1604
   7844776.69947   6231324.28544  21911029.1024                   21911025.6024
  -8788460.21547  -6774332.19544  22561352.0084                   22561350.4064
 11  8 25 16 45 30.0000000  0 10G03G06G07G10G11G13G19G28G23G08
   7363618.78946   5721796.65643  22518207.2344                   22518206.0354
   9021815.53946   7024327.99243  24550532.0864                   24550533.1334
  -6986405.39547  -5419438.98445  20976758.4774                   20976755.4924
   3278917.04346   2826746.65243  24606008.3284                   24606009.1914
  -9480691.71946  -6783246.03943  22982560.6954                   22982559.4144
   2245103.09047   1674459.99245  20499522.6724                   20499520.3134
   -837657.39847   -629707.80145  21016734.0314                   21016729.6724
  -7026697.33246  -5412118.04743  23294144.2274                   23294142.1054
   7854396.06647   6238819.81344  21912859.8984                   21912856.2114
  -8950068.49247  -6900260.69944  22530599.2974                   22530597.3834
 11  8 25 16 46  0.0000000  0 10G03G06G07G10G11G13G19G28G23G08
   7369765.77746   5726586.45343  22519377.6024                   22519376.2274
   9032554.32046   7032695.78542  24552575.1254                   24552576.4924
  -7122259.96547  -5525299.69145  20950906.2894                   20950903.2814
   3241025.42646   2797220.65643  24598797.4844                   24598798.0944
  -9644496.43046  -6910885.99643  22951389.4384                   22951387.8754
   2215059.98847   1651049.73845  20493805.1484                   20493803.0744
   -888859.32847   -669605.43745  21006990.7974                   21006986.6294
  -7164242.69946  -5519296.21944  23267969.5234                   23267968.6454
   7864299.44947   6246536.65244  21914744.4774                   21914740.5274
  -9111699.68447  -7026207.06644  22499841.8754                   22499839.9104
 11  8 25 16 46 30.0000000  0 10G03G06G07G10G11G13G19G28G23G08
   7376200.41046   5731600.39144  22520602.2974                   22520600.6564
   9043433.50446   7041173.07442  24554645.9924                   24554646.2974
  -7257961.87947  -5631041.44145  20925083.1174                   20925080.3984
   3203301.89146   2767825.62543  24591619.2894                   24591620.4144
  -9808164.10246  -7038419.18043  22920244.8754                   22920243.1414
   2185528.68447   1628038.29345  20488186.1484                   20488183.4774
   -939497.55947   -709063.80945  20997354.6174                   20997350.2934
  -7301596.74646  -5626325.28944  23241832.0004                   23241830.6414
   7874485.62147   6254473.84845  21916683.2114                   21916679.5004
  -9273351.21547  -7152169.28544  22469080.2584                   22469078.8244
 11  8 25 16 47  0.0000000  0 10G03G06G07G10G11G13G19G28G23G08
   8958338.57046   6964435.24243  22821673.3364                   22821671.8984
  10629869.11345   8277356.58242  24856533.4144                   24856535.6724
  -5818085.97747  -4509060.21145  21199082.6724                   21199079.5204
   4741163.74646   3966159.46543  24884264.2424                   24884265.9924
  -8396267.35946  -5938239.82043  23188919.1884                   23188918.0164
   3731927.30147   2833024.18445  20782456.2424                   20782453.7154
    585846.61347    479516.05146  21287617.8674                   21287613.6914
  -5863336.23046  -4505602.76243  23515523.8524                   23515522.3324
   9460370.24647   7490228.01244  22218466.9064                   22218463.3984
  -7859597.71947  -6050543.16844  22738109.0164                   22738107.1644
 11  8 25 16 47 30.0000000  0 10G03G06G07G10G11G13G19G28G23G08
   8965339.53546   6969890.46943  22823005.8674                   22823004.3284
  10641021.45746   8286046.64142  24858656.7274                   24858657.3164
  -5953477.80947  -4614560.33645  21173317.7344                   21173314.8364
   4703767.82046   3937019.71543  24877148.8984                   24877149.3954
  -8559651.94546  -6065552.41843  23157828.9534                   23157827.1174
   3703414.16047   2810806.12545  20777030.0164                   20777027.6414
    536330.39847    440931.97745  21278195.9064                   21278191.0004
  -6000309.19946  -4612334.91443  23489459.0234                   23489456.7734
   9471113.34447   7498599.18044  22220511.2114                   22220507.6484
  -8021286.54747  -6176534.44144  22707339.6024                   22707338.3914
 11  8 25 16 48  0.0000000  0 10G03G06G07G10G11G13G19G28G23G08
   8972616.51646   6975560.74243  22824389.9694                   22824389.2424
  10652304.02346   8294838.13343  24860803.8204                   24860804.1454
  -6088714.56647  -4719939.61745  21147583.4384                   21147580.4694
   4666528.92646   3908002.33643  24870062.0004                   24870063.4064
  -8722893.10246  -6192753.23843  23126764.8204                   23126763.1484
   3675404.56647   2788980.41845  20771699.7974                   20771697.2894
    487370.82847    402781.63745  21268878.8524                   21268874.4184
  -6137095.03946  -4718921.24244  23463429.4304                   23463427.8444
   9482128.26647   7507182.14144  22222606.9304                   22222603.6644
  -8182994.66047  -6302540.74644  22676568.2344                   22676566.2894
 11  8 25 16 48 30.0000000  0 10G03G06G07G10G11G13G19G28G23G08
   8980171.30146   6981447.50843  22825827.9534                   22825826.5434
  10663718.76245   8303732.66842  24862975.3054                   24862976.6884
  -6223790.09447  -4825193.28945  21121879.2584                   21121875.9534
   4629448.99246   3879108.79742  24863006.0164                   24863007.5784
  -8885983.09446  -6319836.27043  23095729.5704                   23095727.8284
   3647901.00447   2767549.02045  20766466.2894                   20766463.7934
    438970.08247    365066.77045  21259668.2814                   21259664.2544
  -6273690.05546  -4825358.82843  23437436.5164                   23437434.4884
   9493416.36347   7515977.97344  22224756.0164                   22224751.7114
  -8344716.52047  -6428557.76644  22645793.8054                   22645792.1134
 11  8 25 16 49  0.0000000  0 10G03G06G07G10G11G13G19G28G23G08
   8987997.37146   6987545.68443  22827316.7344                   22827315.8134
  10675259.73445   8312725.53142  24865171.5084                   24865172.8554
  -6358706.29747  -4930322.78946  21096205.7814                   21096202.7504
   4592521.42245   3850333.98042  24855979.2114                   24855980.9614
  -9048922.77046  -6446802.18443  23064722.9224                   23064721.1524
   3620897.86747   2746507.57845  20761327.7814                   20761325.2274
    391123.10947    327783.39145  21250563.4144                   21250559.5784
  -6410098.56646  -4931651.14544  23411478.4774                   23411476.6914
   9504971.10947   7524981.58644  22226954.4534                   22226950.9884
  -8506454.57447  -6554587.40644  22615015.6954                   22615013.8874
 11  8 25 16 49 30.0000000  0 10G03G06G07G10G11G13G19G28G23G08
   8996092.91846   6993853.80943  22828857.3914                   22828856.3874
  10686925.67645   8321815.77742  24867391.5634                   24867393.1024
  -6493459.86747  -5035325.57846  21070563.0944                   21070559.9774
   4555744.83645   3821676.85542  24848980.3594                   24848983.1724
  -9211707.79746  -6573647.61343  23033745.8204                   23033743.9734
   3594394.46947   2725855.54345  20756283.9304                   20756281.6844
    343829.44947    290931.16845  21241564.1954                   21241559.8984
  -6546319.78146  -5037797.48443  23385555.9144                   23385554.7624
   9516790.93047   7534191.74644  22229203.7974                   22229200.2234
  -8668206.33647  -6680627.72344  22584235.9454                   22584233.8594
 11  8 25 16 50  0.0000000  0 10G03G06G07G10G11G13G19G28G23G08
   9004456.04746   7000370.44943  22830448.9454                   22830448.4694
  10698714.96145   8331002.17642  24869633.6024                   24869636.6024
  -6628048.30547  -5140199.68745  21044951.5554                   21044948.8594
   4519117.18445   3793135.78942  24842010.7344                   24842013.8794
  -9374334.09046  -6700369.32043  23002799.2584                   23002797.1844
   3568389.89147   2705592.18845  20751335.9844                   20751333.3324
    297088.52047    254509.64145  21232669.7734                   21232665.0634
  -6682353.50446  -5143797.74643  23359669.9384                   23359668.7464
   9528873.88747   7543606.93844  22231503.0554                   22231499.7544
  -8829969.61747  -6806677.01644  22553453.3914                   22553451.1054
 11  8 25 16 50 30.0000000  0 10G03G06G07G10G11G13G19G28G23G08
   9013081.48446   7007091.50043  22832090.3594                   22832089.4614
  10710622.86745   8340280.89842  24871901.4224                   24871902.7664
  -6762472.17247  -5244945.56646  21019372.0944                   21019368.9024
   4482633.305 5                  24835067.531
  -9536801.13746  -6826966.95343  22971883.1564                   22971881.1094
   3542879.64847   2685714.02745  20746481.5474                   20746479.3754
    250896.16447    218515.58246  21223879.5004                   21223874.9774
  -6818202.59846  -5249654.13344  23333818.3754                   23333816.8284
   9541214.78147   7553223.12544  22233851.7664                   22233848.4844
  -8991744.99247  -6932735.73044  22522668.5704                   22522666.5474
 11  8 25 16 51  0.0000000  0 10G03G06G07G10G11G13G19G28G23G08
   9021966.65646   7014014.94543  22833780.8134                   22833780.6414
  10722647.55145   8349650.67642  24874189.1954                   24874190.9304
  -6896729.41447  -5349561.59446  20993823.0394                   20993820.2734
   4446291.027 5                  24828152.180
  -9699105.33646  -6953437.71543  22940996.9144                   22940995.1684
   3517861.95747   2666219.68045  20741721.2114                   20741718.5594
    205251.33247    182948.16445  21215193.6414                   21215189.0394
  -6953867.44547  -5355366.96143  23308001.8594                   23308001.1254
   9553810.97747   7563038.24244  22236248.5164                   22236245.3524
  -9153530.92647  -7058802.65644  22491881.0234                   22491879.6644
 11  8 25 16 51 30.0000000  0  9G03G07G10G11G13G19G28G23G08
   9031110.52046   7021139.96943  22835521.6724                   22835519.9454
  -7030816.25447  -5454044.85245  20968307.4774                   20968304.7464
   4410089.21515                  24821263.625
  -9861241.91446  -7079777.84043  22910143.5554                   22910141.8054
   3493336.98047   2647109.26645  20737053.9384                   20737051.4184
    160153.80147    147807.20745  21206611.4614                   21206607.1214
  -7089346.95746  -5460935.36743  23282221.8524                   23282219.4494
   9566661.48447   7573051.52744  22238693.9304                   22238690.6884
  -9315324.57847  -7184875.62144  22461093.1174                   22461091.2664
 11  8 25 16 52  0.0000000  0  9G03G07G10G11G13G19G28G23G08
   9040510.89146   7028464.87143  22837310.9454                   22837309.4924
  -7164730.59047  -5558393.67245  20942824.2424                   20942821.6054
   4374025.836 5                  24814400.188
 -10023207.12546  -7205984.43443  22879322.4924                   22879321.1954
   3469302.70747   2628381.22345  20732480.1334                   20732477.9494
    115602.33647    113091.76245  21198133.9144                   21198129.6054
  -7224641.28546  -5566359.48044  23256476.0474                   23256474.3524
   9579764.24247   7583261.38744  22241187.4924                   22241184.3204
  -9477124.42647  -7310953.39844  22430303.6954                   22430301.4384
 11  8 25 16 52 30.0000000  0 10G03G24G07G10G11G13G19G28G23G08
   9050163.60946   7035986.41843  22839147.4224                   22839146.5164
  10776088.29715                  24312301.539
  -7298471.50447  -5662607.37545  20917374.2974                   20917371.2854
   4338097.070 5                  24807564.914
 -10184999.24646  -7332056.15243  22848534.4454                   22848532.6804
   3445756.16447   2610033.21545  20727999.8984                   20727997.0824
     71594.00447     78799.53145  21189759.1884                   21189755.0234
  -7359752.04346  -5671640.55143  23230764.5944                   23230763.2584
   9593115.04747   7593664.49244  22243728.1644                   22243725.0824
  -9638929.73447  -7437035.44544  22399512.7894                   22399511.2154
 11  8 25 16 53  0.0000000  0 10G03G24G07G10G11G13G19G28G23G08
   9060068.92646   7043704.77743  22841032.8204                   22841031.3634
  10615173.445 5                  24281680.820
  -7432034.45347  -5766682.39545  20891958.0234                   20891955.1214
   4302302.715 5                  24800753.086
 -10346612.27746  -7457988.31643  22817780.6954                   22817779.0824
   3422697.90247   2592065.68445  20723611.6564                   20723609.7814
     28129.95747     44931.41045  21181487.8284                   21181484.2934
  -7494676.90647  -5776776.78143  23205089.4844                   23205087.8874
   9606713.68447   7604260.73844  22246315.6954                   22246312.9844
  -9800736.11347  -7563118.32844  22368721.8284                   22368720.4064
 11  8 25 16 53 30.0000000  0 10G03G24G07G10G11G13G19G28G23G08
   9070219.16846   7051613.98043  22842963.5634                   22842963.0084
  10454169.84045   8477003.72352  24251042.9694                   24251045.2464
  -7565422.30947  -5870620.98446  20866575.2114                   20866572.3014
   4266635.570 5                  24793965.961
 -10508047.79346  -7583782.16843  22787060.9694                   22787058.4654
   3400121.54347   2574473.66845  20719316.2584                   20719313.9414
    -14796.11347     11482.50445  21173320.0394                   21173315.6214
  -7629421.66046  -5881772.66043  23179448.8444                   23179446.7934
   9620552.62947   7615044.25044  22248949.4064                   22248946.4884
  -9962547.54347  -7689205.12944  22337930.1564                   22337929.2344
 11  8 25 16 54  0.0000000  0 10G03G24G07G10G11G13G19G28G23G08
   9080610.66446   7059711.18043  22844941.4844                   22844940.1914
  10293079.79745   8351479.09842  24220388.9534                   24220391.4304
  -7698633.59847  -5974421.99246  20841225.7114                   20841223.3164
   4231092.215 6                  24787202.242
 -10669303.43446  -7709435.84443  22756374.5164                   22756372.4144
   3378023.95347   2557254.71945  20715110.8754                   20715108.4534
    -57186.76247    -21549.19545  21165253.2974                   21165248.8834
  -7763987.48446  -5986629.10944  23153841.5784                   23153840.0394
   9634628.37547   7626012.27344  22251628.1094                   22251625.0274
 -10124362.80947  -7815294.91844  22307138.3674                   22307136.2774
 11  8 25 16 54 30.0000000  0 10G03G24G07G10G11G13G19G28G23G08
   9091241.73446   7067995.04743  22846964.8444                   22846963.0434
  10131906.90246   8225889.87143  24189717.9774                   24189722.2304
  -7831665.73047  -6078083.39846  20815911.0554                   20815908.1914
   4195670.730 6                  24780461.477
 -10830375.31246  -7834946.34443  22725723.7584                   22725721.1684
   3356404.02747   2540407.97345  20710996.9144                   20710994.5984
    -99042.88747    -54164.38745  21157288.2274                   21157283.9414
  -7898373.86746  -6091345.74243  23128268.6884                   23128266.7584
   9648939.09447   7637163.39144  22254351.4614                   22254348.0044
 -10286179.67647  -7941385.96144  22276345.4224                   22276343.4534
 11  8 25 16 55  0.0000000  0 10G03G24G07G10G11G13G19G28G23G08
   9102108.70346   7076462.75043  22849031.9304                   22849031.4844
   9970653.13345   8100237.73842  24159031.3674                   24159036.4384
  -7964517.70747  -6181604.41846  20790630.3284                   20790627.2934
   4160367.555 6                  24773743.547
 -10991260.78146  -7960311.60244  22695108.1804                   22695106.5944
   3335259.21147   2523931.44545  20706973.1174                   20706970.5084
   -140367.11347    -86365.10545  21149424.3914                   21149420.4024
  -8032582.27346  -6195923.68743  23102729.5004                   23102727.9414
   9663481.56347   7648495.08644  22257118.6334                   22257116.0234
 -10447997.38747  -8067477.66044  22245552.3134                   22245550.5864
 11  8 25 16 55 30.0000000  0 10G03G24G07G10G11G13G19G28G23G08
  10688629.91846   8312712.96943  23150936.1254                   23150936.8484
  11384748.27045   9202130.18042  24428125.7894                   24428129.5474
  -6521761.46147  -5057378.76646  21065177.3054                   21065174.3364
   5700602.668 6                  25066840.641
  -9576529.71546  -6857923.71143  22964321.8914                   22964320.3674
   4890009.24247   3735424.93045  21002832.2344                   21002829.7814
   1394261.45347   1109449.33645  21441454.7584                   21441450.6174
  -6591187.53146  -5072758.94143  23377018.0634                   23377016.3594
  11253673.41047   8887605.52044  22559722.1254                   22559719.1214
  -9034387.57447  -6965963.50844  22514553.9064                   22514551.5394
 11  8 25 16 56  0.0000000  0  9G03G24G07G11G13G19G28G23G08
  10699964.65646   8321545.15243  23153094.0234                   23153093.4144
  11223345.15646   9076361.60242  24397412.1174                   24397415.6454
  -6654242.99247  -5160611.13346  21039966.9924                   21039963.9304
  -9737029.66446  -6982988.56644  22933779.7584                   22933778.1414
   4869811.64848   3719686.49645  20998989.2274                   20998985.9414
   1353999.32847   1078076.22745  21433793.0864                   21433788.9804
  -6725038.33646  -5177058.24643  23351546.7344                   23351544.8324
  11268673.66447   8899293.91044  22562576.1024                   22562573.7074
  -9196198.59847  -7092050.00044  22483761.4694                   22483759.6764
 11  8 25 16 56 30.0000000  0  9G03G24G07G11G13G19G28G23G08
  10711529.21546   8330556.40643  23155295.0554                   23155294.3014
  11061872.32446   8950538.72743  24366683.9304                   24366687.6804
  -6786535.92647  -5263696.53946  21014792.1954                   21014789.5004
  -9897331.20346  -7107898.82443  22903275.7344                   22903274.3054
   4850084.89848   3704314.95345  20995234.7274                   20995231.9184
   1314265.96947   1047115.14145  21426231.6334                   21426227.9614
  -6858710.60947  -5281218.43444  23326110.1954                   23326108.1884
  11283899.13347   8911157.79344  22565473.9454                   22565471.2234
  -9358003.71947  -7218131.90244  22452971.6954                   22452969.2584
 11  8 25 16 57  0.0000000  0  9G03G24G07G11G13G19G28G23G08
  10723321.12146   8339744.82443  23157539.9844                   23157537.9264
  10900332.34446   8824663.58643  24335944.2034                   24335947.4924
  -6918638.06647  -5366633.26645  20989654.6094                   20989651.2704
 -10057431.29346  -7232652.09444  22872809.3914                   22872807.8834
   4830827.40248   3689309.06645  20991570.1724                   20991568.0004
   1275060.04747   1016565.05145  21418771.3284                   21418767.4494
  -6992204.66046  -5385239.77043  23300707.0004                   23300705.2504
  11299347.21547   8923195.15644  22568413.7504                   22568411.3284
  -9519800.97347  -7344207.65244  22422182.0314                   22422180.2664
 11  8 25 16 57 30.0000000  0  9G03G24G07G11G13G19G28G23G08
  10735339.53946   8349109.73843  23159825.8134                   23159825.2504
  10738730.13746   8698739.91442  24305192.0394                   24305195.4804
  -7050545.87947  -5469418.58245  20964553.3134                   20964550.2304
 -10217324.59446  -7357244.24243  22842382.6564                   22842380.3914
   4812038.02748   3674667.94145  20987995.2504                   20987992.0944
   1236381.16047    986425.63745  21411410.9144                   21411406.7734
  -7125519.63346  -5489121.52743  23275337.8984                   23275336.2154
  11315016.88347   8935405.16444  22571395.4144                   22571392.5664
  -9681587.32047  -7470274.92644  22391394.8594                   22391393.8134
 11  8 25 16 58  0.0000000  0  9G03G24G07G11G13G19G28G23G08
  10747582.02046   8358649.22743  23162156.0084                   23162155.6294
  10577068.75446   8572770.16042  24274429.0084                   24274432.4734
  -7182257.09447  -5572050.69145  20939489.4614                   20939486.5314
 -10377008.38346  -7481673.14543  22811995.8674                   22811994.3984
   4793715.23047   3660390.38345  20984508.2584                   20984505.6884
   1198227.61347    956695.57045  21404150.6884                   21404146.2934
  -7258655.85246  -5592863.98043  23250002.9144                   23250001.2034
  11330905.70347   8947785.94144  22574419.4384                   22574416.6214
  -9843360.89147  -7596332.21944  22360610.9614                   22360608.8134
 11  8 25 16 58 30.0000000  0  9G03G24G07G11G13G19G28G23G08
  10760043.89546   8368359.70343  23164527.7814                   23164526.2114
  10415349.47346   8446755.31643  24243653.7424                   24243658.5824
  -7313771.51647  -5674529.46146  20914462.5474                   20914459.8984
 -10536480.96546  -7605937.44943  22781649.1484                   22781647.4924
   4775855.12148   3646473.36345  20981109.7274                   20981107.1644
   1160595.66847    927371.96545  21396989.8054                   21396985.1994
  -7391615.60946  -5696468.98443  23224700.7664                   23224699.8054
  11347008.88347   8960333.77044  22577483.9454                   22577481.1804
 -10005121.66447  -7722379.56244  22329828.9614                   22329826.8834
 11  8 25 16 59  0.0000000  0  9G03G24G07G11G13G19G28G23G08
  10772721.95346   8378238.61343  23166940.6804                   23166939.1684
  10253574.41046   8320696.95742  24212870.1724                   24212873.0084
  -7445087.65647  -5776853.73446  20889474.0164                   20889471.2504
 -10695739.88346  -7730035.28543  22751343.3984                   22751341.7814
   4758454.75047   3632914.58245  20977798.1884                   20977795.6684
   1123482.88747    898452.87945  21389927.4384                   21389923.3794
  -7524400.27046  -5799937.50043  23199432.9614                   23199431.6214
  11363323.11747   8973046.04344  22580587.9694                   22580585.6054
 -10166868.93047  -7848416.36744  22299048.6094                   22299047.8714
 11  8 25 16 59 30.0000000  0  9G03G24G07G11G13G19G28G23G08
  10785609.97346   8388281.18843  23169392.5084                   23169392.2704
  10091743.10546   8194594.77043  24182074.4384                   24182077.6684
  -7576207.25047  -5879024.85246  20864522.8834                   20864520.1684
 -10854785.21946  -7853966.65644  22721077.9064                   22721076.1644
   4741508.43447   3619709.60945  20974573.7894                   20974571.5124
   1086883.97747    869934.22345  21382962.7194                   21382958.4734
  -7657013.94546  -5903272.81243  23174197.7034                   23174195.6954
  11379842.04747   8985917.82844  22583731.6804                   22583729.2854
 -10328604.34847  -7974443.95744  22268272.1644                   22268270.2074
 11  8 25 17  0  0.0000000  0  9G03G24G07G11G13G19G28G23G08
  10798706.10546   8398485.85243  23171884.5234                   23171883.7734
   9929859.59446   8068451.96942  24151268.3754                   24151271.8404
  -7707126.85947  -5981040.14146  20839609.6644                   20839607.0514
 -11013612.88746  -7977728.44544  22690854.1254                   22690852.5274
   4725015.26247   3606857.73445  20971435.0554                   20971432.8164
   1050798.08247    841815.31345  21376095.8674                   21376091.8954
  -7789456.05146  -6006474.41443  23148995.0084                   23148992.5744
  11396564.11747   8998947.88744  22586914.3134                   22586911.8164
 -10490325.17647  -8100460.16444  22237497.3594                   22237495.5394
 11  8 25 17  0 30.0000000  0  9G03G24G07G11G13G19G28G23G08
  10812007.73846   8408850.67643  23174415.7274                   23174415.1484
   9767926.14546   7942270.19142  24120453.4924                   24120456.8284
  -7837844.95347  -6082898.41046  20814735.2734                   20814732.1484
 -11172220.14146  -8101318.46544  22660672.5784                   22660670.1764
   4708972.53547   3594356.85545  20968382.2504                   20968380.1454
   1015222.72747    814094.23045  21369325.8364                   21369321.6994
  -7921727.82046  -6109543.29744  23123824.2344                   23123822.5124
  11413485.68846   9012133.40644  22590134.7584                   22590131.9224
 -10652030.31647  -8226464.14144  22206726.2894                   22206724.5354
 11  8 25 17  1  0.0000000  0  9G03G24G07G11G13G19G28G23G08
  10825510.78546   8419372.44943  23176985.2734                   23176984.3834
   9605944.65246   7816051.00842  24089629.4694                   24089632.4924
  -7968360.77747  -6184599.05546  20789898.6334                   20789896.0514
 -11330604.91447  -8224735.13344  22630532.2344                   22630530.6844
   4693376.77047   3582204.26245  20965414.3054                   20965412.4344
    980155.17247    786768.83645  21362652.8674                   21362648.6884
  -8053830.79346  -6212480.64143  23098686.5004                   23098684.1134
  11430603.30547   9025471.70344  22593391.5234                   22593389.0434
 -10813719.15247  -8352455.43044  22175957.7424                   22175955.9574
 11  8 25 17  1 30.0000000  0  9G03G24G07G11G13G19G28G23G08
  10839213.86346   8430050.10243  23179592.7114                   23179592.4024
   9443919.79745   7689797.98042  24058796.3674                   24058800.5314
  -8098670.55947  -6286139.15246  20765101.6804                   20765098.5634
 -11488762.46947  -8347974.74644  22600436.2034                   22600434.2424
   4678227.04347   3570399.22745  20962531.6954                   20962529.9884
    945594.64547    759838.52745  21356076.1954                   21356072.0434
  -8185764.19147  -6315285.87144  23073579.3524                   23073578.1414
  11447915.58247   9038961.64844  22596686.4384                   22596683.6644
 -10975388.35247  -8478431.41444  22145193.2194                   22145191.0984
 11  8 25 17  2  0.0000000  0  9G03G24G07G11G13G19G28G23G08
  10853112.85246   8440880.38343  23182238.2584                   23182237.9654
   9281852.75845   7563512.15242  24027955.7344                   24027960.3284
  -8228774.27747  -6387518.67246  20740344.0084                   20740340.6604
 -11646691.54747  -8471036.32444  22570383.2424                   22570381.5204
   4663519.62547   3558938.83645  20959733.1174                   20959730.6094
    911537.39847    733300.37945  21349595.3834                   21349591.4304
  -8317530.37547  -6417960.79344  23048505.6954                   23048503.5944
  11465417.77047   9052599.57044  22600016.7584                   22600014.7704
 -11137038.30947  -8604392.40244  22114432.4844                   22114430.2544
 11  8 25 17  2 30.0000000  0  9G03G24G07G11G13G19G28G23G08
  10867203.99346   8451860.42843  23184919.3754                   23184919.0984
   9119745.87945   7437195.26242  23997108.0784                   23997112.5434
  -8358670.63747  -6488736.62945  20715625.2814                   20715622.5204
 -11804389.53547  -8593917.84444  22540374.4844                   22540372.8364
   4649251.39847   3547820.68045  20957018.4384                   20957015.3874
    877980.51247    707152.11345  21343209.8054                   21343205.6564
  -8449130.90646  -6520506.62544  23023462.6024                   23023460.9104
  11483106.55547   9066382.92244  22603383.3834                   22603380.7894
 -11298667.82847  -8730337.45744  22083675.1174                   22083672.9884
 11  8 25 17  3  0.0000000  0  9G03G24G07G11G13G19G28G23G08
  10881487.35546   8462990.23843  23187637.4304                   23187637.3524
   8957604.18845   7310851.18042  23966253.1954                   23966257.2344
  -8488355.19947  -6589789.53946  20690946.7424                   20690944.0704
 -11961851.08247  -8716615.10244  22510410.6254                   22510408.0474
   4635422.40647   3537044.79345  20954386.4144                   20954383.8834
    844924.32047    681394.01245  21336919.8134                   21336915.5474
  -8580564.09046  -6622922.05144  22998452.1024                   22998449.9804
  11500981.14846   9080311.02744  22606784.6644                   22606781.9304
 -11460273.24647  -8856263.73844  22052922.7584                   22052920.2894
 11  8 25 17  3 30.0000000  0  9G03G24G07G11G13G19G28G23G08
  10895960.80546   8474268.14143  23190391.8204                   23190391.7234
   8795431.52745   7184482.95742  23935393.1954                   23935396.7114
  -8617824.95347  -6690675.06645  20666309.9774                   20666307.2504
 -12119072.18747  -8839125.02744  22480492.1334                   22480490.0514
   4622031.03147   3526609.90245  20951837.7814                   20951835.6604
    812367.60247    656025.10545  21330724.2504                   21330720.3834
  -8711829.73847  -6725206.92644  22973472.5554                   22973470.8014
  11519039.70346   9094382.48844  22610221.4614                   22610218.3914
 -11621851.53547  -8982168.89144  22022175.1644                   22022173.2974
 11  8 25 17  4  0.0000000  0  9G03G24G07G11G13G19G28G23G08
  10910619.60546   8485690.46943  23193181.4454                   23193181.4024
   8633228.75045   7058091.37942  23904526.8134                   23904530.4184
  -8747080.21947  -6791393.44946  20641713.2894                   20641710.5004
 -12276051.78147  -8961446.75044  22450619.8984                   22450618.0314
   4609072.76647   3516512.49245  20949372.6414                   20949369.9104
    780306.19547    631042.16445  21324623.1174                   21324619.0904
  -8842930.28946  -6827363.17644  22948525.3054                   22948523.0044
  11537277.53147   9108593.66044  22613691.7734                   22613689.5784
 -11783403.10947  -9108053.22344  21991433.0394                   21991431.2854
 11  8 25 17  4 30.0000000  0  9G03G24G07G11G13G19G28G23G08
  12500880.37146   9724854.60943  23495798.8364   23495798.1254   10046424.00046
   8159282.58242                  24173449.8284                   24173452.8444
  -7300694.54347  -5664339.69546  20916951.4224                   20916948.5984
 -10857361.99647  -7855974.15644  22720587.7344                   22720585.5824
   6171965.51247   4734350.93445  21246781.0944                   21246778.7544
   2324158.93847   1834044.26645  21618409.0554                   21618404.2344
  -7398442.69146  -5701788.39844  23223401.5704                   23223400.0744
  13131110.53947  10350541.27744  22916988.3754                   22916985.9534
 -10369501.21947  -8006311.48844  22260489.5634                   22260487.7034
 11  8 25 17  5  0.0000000  0  9G03G24G07G11G13G19G28G23G08
  12515901.00446   9736558.89143  23498655.9774   23498656.4804
   9884169.29745   8032850.42642  24142572.8594                   24142576.0984
  -7429514.96147  -5764719.24646  20892438.0704                   20892434.9184
 -11013850.06246  -7977912.87544  22690808.3594                   22690806.7704
   6159865.68847   4724922.44145  21244478.5474                   21244476.4614
   2293081.40647   1809827.97745  21612494.8674                   21612490.2344
  -7529216.49246  -5803690.02044  23198516.4384                   23198514.6414
  13149697.14547  10365024.21144  22920525.3594                   22920522.8794
 -10530995.04747  -8132150.83244  22229758.1884                   22229755.9574
 11  8 25 17  5 30.0000000  0  9G03G24G07G11G13G19G28G23G08
  12531097.69546   9748400.38343  23501548.8834   23501548.2234
   9721892.12946   7906400.83642  24111692.2734                   24111695.6954
  -7558116.29747  -5864928.08646  20867965.4774                   20867963.0784
 -11170088.54347  -8099657.10944  22661077.7584                   22661075.5904
   6148190.34047   4715824.70345  21242256.5164                   21242254.5744
   2262491.31647   1785991.50045  21606673.8914                   21606669.3014
  -7659829.13746  -5905466.07044  23173661.4924                   23173660.0824
  13168452.66047  10379638.75044  22924094.5864                   22924092.1334
 -10692458.84047  -8257966.75044  22199032.6884                   22199030.9224
 11  8 25 17  6  0.0000000  0  9G03G24G07G11G13G19G28G23G08
  12546466.76646   9760376.17643  23504472.7974   23504472.7624
   9559594.59446   7779935.33643  24080807.2664                   24080811.0354
  -7686497.32447  -5964965.23846  20843535.6564                   20843532.7234
 -11326075.10947  -8221205.03944  22631394.2424                   22631392.4064
   6136936.36747   4707055.32045  21240115.3364                   21240113.1884
   2232385.71547   1762532.55945  21600945.3134                   21600940.9264
  -7790281.92247  -6007117.55144  23148837.2344                   23148835.5554
  13187373.84847  10394382.40244  22927694.8054                   22927692.7274
 -10853891.24247  -8383758.22744  22168313.4304                   22168311.5744
 11  8 25 17  6 30.0000000  0  9G03G24G07G11G13G19G28G23G08
  12562006.22346   9772484.73843  23507430.3834   23507430.4384
   9397280.32446   7653456.77742  24049921.1024                   24049923.3284
  -7814655.16847  -6064828.50446  20819148.2274                   20819145.1094
 -11481805.92647  -8342553.69144  22601759.7344                   22601757.8404
   6126101.99647   4698612.89145  21238054.1724                   21238051.6094
   2202763.02047   1739449.90645  21595307.9844                   21595303.7974
  -7920575.13747  -6108644.69144  23124043.6644                   23124041.9844
  13206458.30547  10409253.24644  22931326.6884                   22931324.2584
 -11015290.04347  -8509523.50444  22137599.7504                   22137598.3134
 11  8 25 17  7  0.0000000  0  9G03G24G07G11G13G19G28G23G08
  12577712.07846   9784722.97743  23510419.1484   23510419.3754
   9234950.89846   7526966.45742  24019030.0474                   24019033.2774
  -7942588.85247  -6164517.08646  20794802.7664                   20794800.2504
 -11637279.83247  -8463702.15644  22572174.1644                   22572172.3404
   6115683.19147   4690494.28545  21236071.0554                   21236068.6604
   2173619.85947   1716740.91845  21589762.2344                   21589758.0434
  -8050710.77046  -6210049.07044  23099279.3134                   23099277.1134
  13225701.65246  10424247.90244  22934988.6024                   22934986.7424
 -11176654.74247  -8635262.21945  22106892.8984                   22106891.4494
 11  8 25 17  7 30.0000000  0  9G03G24G07G11G13G19G28G23G08
  12593581.39546   9797088.58243  23513439.2274   23513438.9344
   9072609.52046   7400466.78543  23988138.1644                   23988140.3244
  -8070296.87547  -6264029.82846  20770500.5864                   20770497.8714
 -11792493.62547  -8584647.93744  22542637.5314                   22542635.5744
   6105677.66447   4682697.71545  21234167.0554                   21234165.0664
   2144953.75847   1694403.64845  21584306.8054                   21584303.0554
  -8180689.55947  -6311331.20744  23074544.9844                   23074543.2344
  13245101.18446  10439364.27743  22938680.3134                   22938678.4734
 -11337983.78547  -8760973.14545  22076193.6174                   22076191.4064
 11  8 25 17  8  0.0000000  0  9G03G24G07G11G13G19G28G23G08
  12609613.40246   9809580.97343  23516490.5164   23516489.3444
   8910260.81346   7273961.39843  23957243.7664                   23957246.0434
  -8197775.26247  -6363363.65246  20746242.5554                   20746239.5704
 -11947442.39146  -8705387.21144  22513151.9614                   22513150.2584
   6096084.68847   4675222.59845  21232342.0944                   21232339.6054
   2116764.40247   1672437.87545  21578943.0554                   21578938.5744
  -8310510.22346  -6412490.15244  23049841.2664                   23049839.2384
  13264655.83646  10454601.50843  22942401.7274                   22942399.4964
 -11499273.50847  -8886653.43744  22045500.9384                   22045498.8484
 11  8 25 17  8 30.0000000  0  9G03G24G07G11G13G19G28G23G08
  12625804.40246   9822197.24643  23519571.3754   23519570.7934
   8747906.57446   7147451.76243  23926348.7034                   23926351.3754
  -8325023.38747  -6462518.03946  20722028.1414                   20722025.4264
 -12102123.60947  -8825918.00044  22483716.5944                   22483715.2234
   6086900.56347   4668066.07045  21230594.3364                   21230592.0784
   2089048.59047   1650841.12145  21573669.0394                   21573664.8674
  -8440175.15646  -6513527.73444  23025166.5314                   23025164.9384
  13284361.55546  10469956.44543  22946151.8834                   22946149.5004
 -11660522.99647  -9012302.37544  22014816.1414                   22014814.4184
 11  8 25 17  9  0.0000000  0  9G03G24G07G11G13G19G28G23G08
  12642151.26246   9834934.96142  23522682.5084   23522681.9844
   8585549.28946   7020939.71143  23895452.3364                   23895455.3634
  -8452039.14547  -6561491.35546  20697858.1414                   20697855.2664
 -12256535.14847  -8946238.65244  22454333.7194                   22454331.7424
   6078122.03947   4661225.60245  21228923.5864                   21228921.4694
   2061803.41447   1629611.07445  21568484.3524                   21568480.0394
  -8569685.38746  -6614444.77344  23000521.7034                   23000519.8404
  13304215.19947  10485426.64843  22949929.8984                   22949927.6684
 -11821731.14847  -9137919.09844  21984138.9844                   21984137.1024
 11  8 25 17  9 30.0000000  0  9G03G24G07G11G13G19G28G23G08
  12658650.83646   9847791.71143  23525821.6884   23525821.8164
   8423191.81646   6894427.50443  23864556.9454                   23864559.5514
  -8578820.97747  -6660282.39845  20673732.1954                   20673729.0314
 -12410674.03146  -9066346.85244  22425001.0084                   22424999.9574
   6069746.77747   4654699.34845  21227329.7584                   21227328.1524
   2035026.45747   1608745.88745  21563389.3444                   21563384.7624
  -8699041.76646  -6715241.93744  22975905.8754                   22975903.8484
  13324213.40247  10501009.48443  22953735.5164                   22953734.0044
 -11982896.36347  -9263502.37144  21953470.1724                   21953468.9144
 11  8 25 17 10  0.0000000  0  9G03G24G07G11G13G19G28G23G08
  12675298.21146   9860763.57042  23528989.9694   23528990.3094
   8260834.55546   6767915.50842  23833661.5164                   23833664.2344
  -8705369.75047  -6758891.83646  20649650.2424                   20649647.8364
 -12564540.01247  -9186242.39544  22395722.2734                   22395720.1604
   6061769.10947   4648482.91445  21225811.5634                   21225809.9384
   2008712.57047   1588241.52045  21558381.1884                   21558377.4064
  -8828247.78147  -6815921.92244  22951319.0394                   22951317.1454
  13344350.74246  10516700.75043  22957567.8984                   22957565.7234
 -12144019.59447  -9389052.92644  21922809.5634                   21922807.8164
 11  8 25 17 10 30.0000000  0  9G03G24G07G11G13G19G28G23G08
  12692092.86346   9873850.19942  23532185.4384   23532186.1994
   8098482.78546   6641407.74643  23802767.2974                   23802769.1294
  -8831681.05147  -6857316.23445  20625614.4144                   20625611.4924
 -12718127.88747  -9305921.23044  22366495.0164                   22366493.3284
   6054189.00047   4642576.27345  21224369.4844                   21224367.4024
   1982861.40647   1568097.73045  21553462.2424                   21553457.6644
  -8957301.97347  -6916483.60943  22926760.3674                   22926758.6994
  13364626.56347  10532499.91844  22961426.7504                   22961423.7034
 -12305096.64547  -9514567.48845  21892157.1254                   21892155.8874
 11  8 25 17 11  0.0000000  0  9G03G24G07G11G13G19G28G23G08
  12709031.32846   9887048.98042  23535408.8984   23535409.1414
   7936138.77046   6514906.03543  23771874.0704                   23771877.0124
  -8957753.57847  -6955554.56646  20601623.3284                   20601620.2274
 -12871435.37147  -9425381.57844  22337322.3914                   22337320.0594
   6047003.15647   4636976.84445  21223002.2034                   21223000.1454
   1957470.19547   1548312.33645  21548630.7894                   21548626.7344
  -9086206.09046  -7016928.35244  22902230.8914                   22902228.6454
  13385037.21546  10548404.14543  22965310.4454                   22965308.5704
 -12466126.92647  -9640045.61744  21861515.0084                   21861512.9144
 11  8 25 17 11 30.0000000  0  9G03G24G07G11G13G19G28G23G08
  12726111.43046   9900358.01643  23538659.3914   23538659.2464
   7773806.11746   6388413.21143  23740983.3284                   23740986.4494
  -9083584.65247  -7053604.75846  20577678.9064                   20577675.8244
 -13024458.55947  -9544620.40244  22308203.1094                   22308201.1414
   6040209.46947   4631682.98845  21221709.4774                   21221707.8244
   1932537.19147   1528883.98045  21543885.5704                   21543881.6134
  -9214960.09446  -7117256.12144  22877729.1024                   22877727.8674
  13405580.55946  10564411.76243  22969220.2344                   22969217.6174
 -12627107.30947  -9765484.85945  21830881.7424                   21830879.5234
 11  8 25 17 12  0.0000000  0  9G03G24G07G11G13G19G28G23G08
  12743327.84846   9913773.35543  23541935.4144   23541935.8674
   7611485.04746   6261929.42243  23710094.5784                   23710097.4614
  -9209175.40647  -7151467.69146  20553779.3594                   20553776.6844
 -13177197.43747  -9663637.70344  22279137.8594                   22279135.4064
   6033802.28947   4626690.31345  21220490.0234                   21220488.2624
   1908056.93847   1509808.42245  21539227.8284                   21539223.4414
  -9343567.85546  -7217469.94944  22853256.6564                   22853254.6954
  13426250.48046  10580518.00043  22973154.0314                   22973151.8244
 -12788039.08247  -9890886.22744  21800257.5554                   21800255.1024
 11  8 25 17 12 30.0000000  0  9G03G24G07G11G13G19G28G23G08
  12760679.72346   9927294.18043  23545237.6334   23545237.4694
   7449180.45746   6135458.42642  23679208.1484                   23679210.9694
  -9334521.73047  -7249140.15646  20529927.1884                   20529923.9884
 -13329647.25447  -9782429.75444  22250127.5864                   22250124.5594
   6027780.85547   4621998.21145  21219344.2974                   21219342.6374
   1884029.20347   1491085.48045  21534655.3674                   21534650.6094
  -9472028.25046  -7317568.93744  22828810.9144                   22828809.1254
  13447046.10946  10596722.19943  22977111.0944                   22977109.1914
 -12948918.96947 -10016247.15244  21769642.7034                   21769640.8874
 11  8 25 17 13  0.0000000  0  9G03G24G07G11G13G19G28G23G08
  14353582.67646  11168517.18043  23848357.1334   23848356.9534
   8862319.47346   7236605.87942  23948120.0784                   23948121.8754
  -7884198.38347  -6119018.08246  20805914.2814                   20805911.3014
 -11906381.00846  -8673391.08644  22520964.7114                   22520963.6214
   7597561.67647   5845203.97345  21518063.4144                   21518061.9844
   3435871.15247   2700312.93845  21829961.0474                   21829956.6414
  -8024918.88746  -6189951.22344  23104187.0634                   23104185.0594
  15043383.30546  11840621.11343  23280883.6094                   23280881.8834
 -11534320.04347  -8913962.23844  22038831.9064                   22038829.6954
 11  8 25 17 13 30.0000000  0  9G03G24G07G11G13G19G28G23G08
  14371195.53946  11182241.37943  23851709.1804   23851708.8914
   8700055.00446   7110166.12543  23917241.7114                   23917243.9774
  -8009051.51247  -6216306.24246  20782155.3594                   20782152.8054
 -12058245.40247  -8791726.98044  22492066.8754                   22492064.9924
   7592302.15647   5841105.56645  21517062.9694                   21517061.3204
   3412739.09847   2682287.92645  21825559.0234                   21825554.8204
  -8153088.64146  -6289823.73444  23079796.9774                   23079795.3284
  15064420.40647  11857013.48043  23284887.1174                   23284885.5704
 -11695090.99647  -9039238.30944  22008238.0004                   22008236.0744
 11  8 25 17 14  0.0000000  0  9G03G24G07G11G13G19G28G23G08
  14388934.27346  11196063.67643  23855084.7504   23855084.0394
   8537814.55146   6983745.10942  23886368.3204                   23886370.3554
  -8133655.94147  -6313400.62146  20758444.1484                   20758441.0784
 -12209813.19147  -8909831.72744  22463224.0084                   22463222.2344
   7587419.31347   5837300.68845  21516133.7734                   21516132.1174
   3390050.62147   2664608.55145  21821241.9304                   21821237.7384
  -8281114.79346  -6389584.34844  23055434.7344                   23055432.6254
  15085573.34046  11873496.05944  23288912.1644                   23288910.6914
 -11855805.39547  -9164470.30145  21977655.0864                   21977653.3484
 11  8 25 17 14 30.0000000  0  9G03G24G07G11G13G19G28G23G08
  14406796.73046  11209982.40643  23858483.4304   23858482.9774
   8375601.21146   6857345.18843  23855500.8364                   23855502.5744
  -8258009.10947  -6410299.20746  20734780.8134                   20734777.8324
 -12361081.13747  -9027702.83644  22434438.8364                   22434437.2074
   7582910.04347   5833786.89845  21515275.9774                   21515273.9414
   3367803.40647   2647273.02345  21817008.4064                   21817003.8984
  -8408998.25446  -6489233.75844  23031099.1174                   23031097.5314
  15106838.96946  11890066.47343  23292959.9384                   23292957.9454
 -12016461.35247  -9289656.74245  21947082.9844                   21947081.0394
 11  8 25 17 15  0.0000000  0  9G03G24G07G11G13G19G28G23G08
  14424780.69946  11223995.79343  23861906.4064   23861905.1174
   8213419.35546   6730969.87543  23824637.3364                   23824640.2424
  -8382108.07047  -6506999.70746  20711164.9614                   20711162.5274
 -12512045.25847  -9145337.21944  22405711.6884                   22405709.3204
   7578772.83647   5830563.02745  21514488.6414                   21514486.5944
   3345996.32847   2630280.45745  21812859.1094                   21812854.6214
  -8536738.84046  -6588771.85944  23006791.2424                   23006789.1684
  15128215.75846  11906723.48443  23297027.1484                   23297025.9104
 -12177055.92647  -9414795.35944  21916523.4924                   21916521.0314
 11  8 25 17 15 30.0000000  0  9G03G24G07G11G13G19G28G23G08
  14442882.79746  11238101.17642  23865349.7114   23865350.4304
   8051270.25446   6604620.02743  23793781.7664                   23793783.6254
  -8505952.32847  -6603501.73446  20687598.6724                   20687595.8284
 -12662703.95347  -9262733.57444  22377042.1724                   22377039.9774
   7575003.50047   5827625.81345  21513771.5554                   21513769.2814
   3324625.05147   2613627.48045  21808791.5704                   21808787.8674
  -8664338.61347  -6688200.21944  22982509.3984                   22982507.7814
  15149699.24246  11923463.67243  23301115.1724                   23301114.3984
 -12337588.77747  -9539885.87544  21885974.7344                   21885972.5204
 11  8 25 17 16  0.0000000  0  9G03G24G07G11G13G19G28G23G08
  14461098.91046  11252295.47742  23868816.7664   23868817.3634
   7889155.78546   6478297.18043  23762932.1724                   23762934.6564
  -8629541.28547  -6699804.83246  20664080.4144                   20664077.3014
 -12813055.52047  -9379890.61744  22348431.3204                   22348429.0394
   7571598.35547   5824972.38345  21513123.6334                   21513121.5904
   3303686.06647   2597311.35245  21804807.2734                   21804803.2304
  -8791799.62546  -6787520.44144  22958254.0864                   22958252.3914
  15171285.59846  11940283.97743  23305223.9694                   23305222.2624
 -12498059.12947  -9664927.69944  21855437.4774                   21855436.6484
 11  8 25 17 16 30.0000000  0  9G03G24G07G11G13G19G28G23G08
  14479426.21546  11266576.40242  23872304.7424   23872305.3554
   7727078.94146   6352003.65643  23732089.5864                   23732092.0664
  -8752872.86347  -6795907.36746  20640610.9304                   20640608.3404
 -12963097.49247  -9496806.42644  22319879.4384                   22319877.0784
   7568554.17247   5822600.21145  21512543.9614                   21512542.0904
   3283176.55947   2581329.87545  21800904.3364                   21800900.3554
  -8919123.24247  -6886733.63344  22934025.0164                   22934023.1644
  15192971.61346  11957181.95343  23309351.3134                   23309349.0124
 -12658465.07847  -9789919.33244  21824913.7584                   21824912.0394
 11  8 25 17 17  0.0000000  0  9G03G24G07G11G13G19G28G23G08
  14497859.80546  11274708.15253  23875811.4534   23875811.8014
   7565040.56346   6225740.12143  23701255.4144                   23701257.5354
  -8875947.47747  -6891809.67646  20617191.0234                   20617188.0434
 -13112829.46947  -9613480.69144  22291385.3134                   22291383.7074
   7565866.06347   5820505.51245  21512033.2034                   21512030.6254
   3263091.91047   2565679.45345  21797082.2734                   21797078.6214
  -9046312.21147  -6985841.88344  22909822.3524                   22909820.1294
  15214751.89546  11974153.40243  23313494.9454                   23313493.5824
 -12818807.01647  -9914861.09845  21794401.2734                   21794399.7854
 11  8 25 17 17 30.0000000  0  9G03G24G07G11G13G19G28G23G08
  14516397.69546  11289153.12942  23879340.2034   23879341.3134
   7403043.90246   6099509.08643  23670428.3364                   23670430.4494
  -8998762.99647  -6987510.10246  20593819.5474                   20593817.2194
 -13262247.54747  -9729910.33244  22262952.1254                   22262950.1804
   7563531.62147   5818686.39145  21511588.5704                   21511586.4184
   3243429.87147   2550358.33245  21793340.6724                   21793336.6334
  -9173367.62947  -7084846.07444  22885644.8054                   22885642.6094
  15236623.96146  11991196.31643  23317657.9384                   23317656.1374
 -12979082.73847 -10039751.25845  21763902.2344                   21763900.4694
 11  8 25 17 18  0.0000000  0  9G03G24G07G11G13G19G28G23G08
  14535035.93045  11303676.38742  23882887.0084   23882888.3204
   7241090.65646   5973311.84043  23639609.3674                   23639611.2624
  -9121318.37147  -7083007.80546  20570498.1174                   20570495.7194
 -13411350.21546  -9846094.21544  22234579.0084                   22234576.3524
   7561546.56647   5817139.52045  21511210.5864                   21511208.6684
   3224186.25847   2535363.27745  21789678.9224                   21789674.9574
  -9300291.47347  -7183747.74244  22861491.3364                   22861489.3404
  15258583.77346  12008307.63743  23321836.7734                   23321834.9104
 -13139291.75447 -10164589.42645  21733415.1334                   21733413.4454
 11  8 25 17 18 30.0000000  0  9G03G24G07G11G13G19G28G23G08
  14553773.61346  11318277.07042  23886452.1414   23886454.2974
   7079186.02746   5847152.55943  23608799.2584                   23608802.0864
  -9243609.64147  -7178299.72346  20547227.2664                   20547224.2194
 -13560132.83246  -9962028.69944  22206266.8204                   22206264.8524
   7559910.34047   5815864.46545  21510899.3984                   21510898.1724
   3205361.02347   2520694.23445  21786096.7344                   21786092.9144
  -9427082.21547  -7282545.69144  22837364.3914                   22837362.1954
  15280630.46546  12025486.64543  23326032.4534                   23326030.8954
 -13299429.85247 -10289372.34845  21702942.3754                   21702940.5744
 11  8 25 17 19  0.0000000  0  9G03G24G07G11G13G19G28G23G08
  14572607.86346  11332953.09442  23890036.7034   23890037.6334
   6917332.32846   5721032.88743  23578000.2424                   23578002.1054
  -9365635.34447  -7273384.69946  20524006.2274                   20524003.7114
 -13708592.96547 -10077711.88744  22178015.2424                   22178013.4964
   7558619.34847   5814858.42645  21510653.7584                   21510652.0234
   3186950.79347   2506348.55545  21782593.9304                   21782589.5554
  -9553741.50047  -7381241.20344  22813261.7194                   22813259.5744
  15302760.43846  12042730.55143  23330243.5474                   23330242.9304
 -13459495.89147 -10414099.11345  21672482.6644                   21672480.6604
 11  8 25 17 19 30.0000000  0  9G03G24G07G11G13G19G28G23G08
  14591535.88346  11347702.10942  23893639.9304   23893639.7274
   6755532.39146   5594955.13743  23547210.0394                   23547212.5204
  -9487393.96547  -7368261.55146  20500836.3914                   20500833.6484
 -13856728.28947 -10193141.99244  22149826.0704                   22149824.3834
   7557670.50447   5814118.98845  21510473.4924                   21510471.3524
   3168952.64547   2492324.00045  21779168.5084                   21779164.1994
  -9680270.58247  -7479835.28944  22789184.0944                   22789182.1724
  15324970.60246  12060036.91043  23334470.4694                   23334469.3134
 -13619488.22347 -10538768.44145  21642037.0554                   21642035.4414
 11  8 25 17 20  0.0000000  0  9G03G24G07G11G13G19G28G23G08
  14610560.94946  11362526.77043  23897259.2584   23897259.8204
   6593795.17246   5468926.25843  23516432.5634                   23516434.4494
  -9608877.69147  -7462924.21146  20477718.5784                   20477716.2074
 -14004529.49247 -10308311.75044  22121700.7194                   22121698.7894
   7557067.10247   5813648.73045  21510358.5634                   21510357.0314
   3151370.12547   2478623.29745  21775822.6254                   21775818.5554
  -9806664.34447  -7578323.90244  22765132.1644                   22765130.1524
  15347263.98046  12077408.13743  23338713.0084                   23338711.2774
 -13779398.85947 -10663374.12145  21611606.8754                   21611605.2194
 11  8 25 17 20 30.0000000  0  9G03G24G07G11G13G19G28G23G08
  14629677.41846  11377422.62142  23900895.6334   23900898.4104
   6432120.70346   5342946.27043  23485665.8134                   23485668.7584
  -9730087.50047  -7557373.41446  20454653.7034                   20454650.6804
 -14151997.23447 -10423221.64844  22093638.2734                   22093636.2154
   7556803.19947   5813443.01645  21510308.0474                   21510307.2424
   3134197.08247   2465241.66045  21772554.3674                   21772550.5164
  -9932926.67647  -7676710.10244  22741104.6334                   22741103.1214
  15369634.77346  12094839.66443  23342970.0234                   23342968.9614
 -13939228.64847 -10787916.80144  21581193.2274                   21581190.8164
 11  8 25 17 21  0.0000000  0  9G03G24G07G11G13G19G28G23G08
  14648882.25846  11392387.37142  23904551.2114   23904553.1094
   6270511.83246   5217017.36343  23454913.4384                   23454915.2734
  -9851021.39847  -7651607.62946  20431640.3284                   20431638.2704
 -14299128.81247 -10537869.62144  22065640.7664                   22065638.3874
   7556875.54747   5813499.30545  21510322.8204                   21510320.6804
   3117431.29747   2452177.37945  21769364.2974                   21769360.3554
 -10059059.03147  -7774995.06644  22717102.7194                   22717100.3364
  15392079.56646  12112328.86343  23347240.8364                   23347240.0394
 -14098975.95347 -10912395.20745  21550793.7894                   21550791.3794
 11  8 25 17 21 30.0000000  0  9G03G24G07G11G13G19G28G23G08
  14668171.97746  11407418.28542  23908221.9614   23908222.6684
   6108970.68046   5091141.23843  23424173.4384                   23424175.0204
  -9971678.61347  -7745626.23846  20408680.5234                   20408677.8984
 -14445922.13347 -10652254.00844  22037706.4694                   22037704.6524
   7557280.30947   5813814.61745  21510399.4144                   21510397.4414
   3101068.69147   2439427.26245  21766251.4384                   21766246.6174
 -10185063.18447  -7873180.09044  22693124.6414                   22693122.6564
  15414594.41446  12129872.64143  23351526.1414                   23351525.3874
 -14258639.99247 -11036808.72745  21520410.4614                   21520408.5944
 11  8 25 17 22  0.0000000  0  9G03G24G07G11G13G19G28G23G08
  16262962.48846  12650112.14542  24211701.6804   24211701.5594
   7522924.72346   6192923.72343  23693239.7814                   23693241.9344
  -8516634.21547  -6611825.41046  20685565.6484                   20685562.8954
 -13016950.70747  -9538769.76244  22309630.5554                   22309628.4384
   9133433.58647   7041985.91845  21810331.5234                   21810329.8594
   4660526.14847   3654588.87945  22063005.6254                   22063001.7544
  -8735516.67647  -6743663.31244  22968964.5234                   22968962.4534
  17012594.89846  13375067.55943  23655615.2034                   23655614.5984
 -12842794.39847  -9933552.39545  21789836.5554                   21789834.8984
 11  8 25 17 22 30.0000000  0  9G03G24G07G11G13G19G28G23G08
  16282411.69546  12665267.26643  24215401.9774   24215403.0594
   7361525.01246   6067157.79743  23662526.4454                   23662528.2934
  -8636735.15647  -6705410.56646  20662711.7034                   20662708.7234
 -13163062.39147  -9652623.01244  22281825.9924                   22281824.5944
   9134491.61747   7042810.28145  21810532.9694                   21810531.3284
   4644958.97747   3642458.57845  22060043.0314                   22060039.0984
  -8861269.86347  -6841652.79744  22945034.3054                   22945032.3524
  17035238.73846  13392711.84843  23659924.3674                   23659923.6684
 -13002288.42647 -10057833.45345  21759486.5394                   21759484.0984
 11  8 25 17 23  0.0000000  0  9G03G24G07G11G13G19G28G23G08
  16301936.35245  12680481.17242  24219118.2424   24219117.7814
   7200200.19946   5941450.25043  23631827.9304                   23631829.4804
  -8756555.52047  -6798777.08246  20639910.8594                   20639907.4414
 -13308829.64547  -9766207.86744  22254088.3134                   22254086.0234
   9135871.57047   7043885.48845  21810795.6644                   21810794.0314
   4629785.58247   3630635.12145  22057156.1724                   22057151.9734
  -8986899.32447  -6939545.85244  22921127.9304                   22921125.8054
  17057942.41446  13410402.72743  23664246.0394                   23664244.4104
 -13161694.87547 -10182046.26245  21729152.0784                   21729149.8984
 11  8 25 17 23 30.0000000  0  9G03G24G07G11G13G19G28G23G08
  16321532.86345  12695751.06642  24222846.5864   24222848.4384
   7038952.29746   5815802.62143  23601142.5084                   23601144.3164
  -8876094.31247  -6891924.21146  20617163.1804                   20617160.3634
 -13454250.37947  -9879522.71144  22226415.5554                   22226413.6484
   9137569.62947   7045208.55545  21811118.9144                   21811117.0784
   4615001.98447   3619115.40245  22054342.2194                   22054339.0084
  -9112407.13747  -7037344.10544  22897244.2504                   22897242.7934
  17080701.82446  13428137.08243  23668576.3054                   23668575.5164
 -13321012.91047 -10306190.16845  21698835.2114                   21698833.2034
 11  8 25 17 24  0.0000000  0  9G03G24G07G11G13G19G28G23G08
  16341198.24645  12711074.60542  24226588.3834   24226590.9534
   6877783.67546   5690216.77543  23570472.7114                   23570474.9844
  -8995350.36747  -6984851.00846  20594469.6024                   20594466.5984
 -13599322.83647  -9992566.18744  22198809.3674                   22198807.1954
   9139581.92247   7046776.48845  21811501.6024                   21811500.1564
   4600604.70747   3607896.70345  22051602.9844                   22051599.0784
  -9237795.16447  -7135049.04344  22873384.0784                   22873381.9924
  17103513.37146  13445912.02743  23672917.3284                   23672916.8204
 -13480240.88347 -10430263.89145  21668534.8834                   21668533.3984
 11  8 25 17 24 30.0000000  0  8G24G07G11G13G19G28G23G08
   6716698.46946   5564695.91443  23539820.0944                   23539821.5274
  -9114320.57447  -7077555.07046  20571830.1724                   20571826.9264
 -13744043.16847 -10105335.26644  22171270.2114                   22171267.8484
   9141906.52747   7048587.78545  21811944.2504                   21811942.5554
   4586592.07047   3596977.71145  22048936.6334                   22048932.8714
  -9363062.86747  -7232660.19944  22849546.0084                   22849543.8054
  17126375.10546  13463726.08243  23677268.6254                   23677268.1914
 -13639376.22747 -10554265.43745  21638252.0864                   21638250.0784
 11  8 25 17 25  0.0000000  0  8G24G07G11G13G19G28G23G08
   6555700.58246   5439243.11743  23509182.7584                   23509184.4654
  -9233002.41047  -7170034.42646  20549246.1564                   20549243.0004
 -13888408.01647 -10217827.34444  22143797.6884                   22143796.1564
   9144541.34847   7050640.80545  21812445.6644                   21812443.9884
   4572962.01247   3586356.85945  22046342.5554                   22046338.9774
  -9488210.94147  -7330178.14844  22825731.3594                   22825729.0204
  17149285.00446  13481577.68843  23681628.2274                   23681627.3364
 -13798416.09047 -10678192.59045  21607988.4534                   21607986.5434
 11  8 25 17 25 30.0000000  0  8G24G07G11G13G19G28G23G08
   6394794.89846   5313862.15643  23478563.2194                   23478564.7624
  -9351392.22347  -7262286.24246  20526717.0474                   20526713.9844
 -14032412.92247 -10330038.94144  22116394.0864                   22116392.8674
   9147485.21547   7052934.64845  21813006.0084                   21813004.6564
   4559713.74647   3576033.49645  22043821.6334                   22043818.1844
  -9613238.12147  -7427601.89544  22801939.2034                   22801937.9184
  17172241.98046  13499465.95443  23685996.8834                   23685995.7344
 -13957356.30947 -10802042.08245  21577742.7894                   21577740.9454
 11  8 25 17 26  0.0000000  0  8G24G07G11G13G19G28G23G08
   6233988.16846   5188558.27743  23447962.4224                   23447964.1094
  -9469484.09447  -7354305.88746  20504244.6334                   20504241.8324
 -14176051.09447 -10441964.79344  22089061.2974                   22089059.2624
   9150738.75847   7055469.78144  21813625.2974                   21813624.0864
   4546848.30147   3566008.44145  22041373.3284                   22041369.3634
  -9738141.76247  -7524929.39544  22778171.4844                   22778169.6724
  17195246.90646  13517391.58243  23690374.7424                   23690374.3634
 -14116190.96547 -10925809.33245  21547517.7894                   21547515.4614
 11  8 25 17 26 30.0000000  0  8G24G07G11G13G19G28G23G08
   6073281.43846   5063332.35943  23417380.4694                   23417382.3404
  -9587278.15247  -7446093.47346  20481829.2814                   20481826.6094
 -14319321.91847 -10553604.37944  22061797.9384                   22061795.5664
   9154297.47347   7058242.70744  21814302.4694                   21814301.0164
   4534360.82847   3556277.92645  22038997.3984                   22038993.0824
  -9862924.77747  -7622162.87544  22754425.9304                   22754423.6954
  17218294.95746  13535350.82843  23694760.4774                   23694760.7894
 -14274920.09047 -11049494.34845  21517312.5554                   21517310.0394
 11  8 25 17 27  0.0000000  0  8G24G07G11G13G19G28G23G08
   5912676.77746   4938185.96543  23386819.4304                   23386820.9304
  -9704773.21547  -7537648.07046  20459470.5004                   20459467.8914
 -14462223.69547 -10664956.41444  22034604.2114                   22034602.4144
   9158157.10547   7061250.11345  21815036.9304                   21815035.6334
   4522247.82447   3546839.16445  22036692.2274                   22036688.2504
  -9987588.74247  -7719303.57844  22730702.8364                   22730700.8834
  17241382.39546  13553340.78942  23699154.5164                   23699153.5984
 -14433542.39547 -11173096.13745  21487127.5474                   21487125.6804
 11  8 25 17 27 30.0000000  0  8G24G07G11G13G19G28G23G08
   5752175.03146   4813119.75043  23356277.7274                   23356277.9924
  -9821969.78547  -7628970.07846  20437169.2424                   20437166.1994
 -14604755.82047 -10776020.39144  22007481.4534                   22007479.7304
   9162312.18847   7064487.75044  21815827.8674                   21815826.4844
   4510504.23847   3537688.27345  22034457.2504                   22034453.8484
 -10112137.34847  -7816354.41444  22707001.3594                   22706999.5004
  17264503.94746  13571357.26643  23703554.5004                   23703553.7504
 -14592058.19947 -11296614.93045  21456962.9384                   21456960.8984
 11  8 25 17 28  0.0000000  0  8G24G07G11G13G19G28G23G08
   5591779.28546   4688136.14143  23325753.9454                   23325755.8284
  -9938866.14547  -7720058.15646  20414924.4774                   20414921.8054
 -14746915.91847 -10886794.49644  21980429.6644                   21980427.1604
   9166760.20747   7067953.63344  21816673.7034                   21816672.9384
   4499127.37147   3528823.15245  22032291.8444                   22032288.2664
 -10236571.27747  -7913315.88344  22683322.8524                   22683320.8204
  17287657.03546  13589398.31343  23707960.0784                   23707960.3164
 -14750465.87947 -11420049.46545  21426819.1024                   21426817.3794
 11  8 25 17 28 30.0000000  0  8G24G07G11G13G19G28G23G08
   5431490.54346   4563235.88743  23295252.2504                   23295253.7934
 -10055462.43447  -7810912.40646  20392736.8524                   20392734.4344
 -14888703.27747 -10997278.13344  21953448.4304                   21953446.1764
   9171496.23447   7071643.94944  21817575.0234                   21817574.0274
   4488112.28147   3520239.90645  22030196.7664                   22030192.9964
 -10360893.71547  -8010190.47344  22659665.4384                   22659662.9734
  17310836.10546  13607459.62943  23712371.4844                   23712371.4414
 -14908765.12547 -11543399.51245  21396694.8674                   21396693.6684
 11  8 25 17 29  0.0000000  0  9G17G24G07G11G13G19G28G23G08
  17020390.44515                  24514340.922
   5271308.22346   4438418.57043  23264770.5394                   23264772.0664
 -10171760.21547  -7901534.05946  20370606.2504                   20370603.1644
 -15030118.93047 -11107472.13744  21926536.6414                   21926535.5084
   9176513.23447   7075553.21544  21818530.3364                   21818528.8204
   4477452.33647   3511933.41445  22028168.6644                   22028164.3794
 -10485109.28547  -8106981.79744  22636027.9304                   22636026.0124
  17334034.96546  13625536.35943  23716786.5004                   23716786.4144
 -15066957.28547 -11666666.12545  21366592.8914                   21366590.9304
 11  8 25 17 29 30.0000000  0  9G17G24G07G11G13G19G28G23G08
  16825512.46145  13430815.75852  24477258.2664                   24477262.6374
   5111236.69946   4313687.58643  23234309.8054                   23234311.3404
 -10287756.39547  -7991920.69946  20348532.6804                   20348530.5004
 -15171158.67647 -11217373.22744  21899698.3914                   21899696.1884
   9181809.42647   7079680.02744  21819538.4614                   21819536.8794
   4467146.37947   3503902.75445  22026206.6024                   22026203.2934
 -10609217.50047  -8203689.47344  22612411.0784                   22612409.0944
  17357251.97746  13643627.22343  23721205.2034                   23721204.4384
 -15225038.89547 -11789846.57445  21336510.7424                   21336508.6604
 11  8 25 17 30  0.0000000  0  9G17G24G07G11G13G19G28G23G08
  16630711.62545  13279023.04742  24440188.1804                   24440192.3874
   4951275.77346   4189042.78943  23203870.5474                   23203872.3244
 -10403452.30147  -8082073.34846  20326516.3984                   20326514.2974
 -15311823.73847 -11326982.35544  21872930.5164                   21872928.4964
   9187378.44547   7084019.42644  21820597.6254                   21820596.8244
   4457188.25447   3496143.12545  22024311.6174                   22024308.5004
 -10733223.03147  -8300317.12544  22588813.2814                   22588811.2424
  17380481.03146  13661727.50443  23725624.8444                   23725625.1564
 -15383010.98447 -11912941.69945  21306449.0084                   21306447.7974
 11  8 25 17 30 30.0000000  0  9G17G24G07G11G13G19G28G23G08
  18011416.84845  14354897.35942  24702928.5234                   24702931.0664
   6366854.33646   5292091.09043  23473245.9844                   23473247.0744
  -8943421.70747  -6944387.18046  20604351.3674                   20604348.2034
 -13876686.24647 -10208693.38744  22146028.6174                   22146026.2544
  10768637.59047   8316169.31644  22121501.2974                   22121500.5634
   6022995.56347   4716252.67644  22322275.1644                   22322271.7194
  -9281701.71947  -7169261.53144  22865028.2584                   22865026.3484
  18979139.32046  14907434.92643  24029840.3204                   24029840.6994
 -13965446.10947 -10808345.68445  21576203.1484                   21576201.0004
 11  8 25 17 31  0.0000000  0  9G17G24G07G11G13G19G28G23G08
  17816776.06346  14203229.35943  24665888.5394                   24665891.6094
   6207123.58646   5167625.61343  23442849.5234                   23442851.1884
  -9058511.79347  -7034067.78146  20582450.0234                   20582447.5474
 -14016594.00447 -10317712.41844  22119404.5704                   22119402.7664
  10774743.11747   8320926.76244  22122663.5394                   22122662.1644
   6013724.16847   4709028.15645  22320510.7424                   22320507.2624
  -9405504.26247  -7265731.01644  22841470.2974                   22841467.2894
  19002383.98846  14925547.37143  24034264.3754                   24034264.8444
 -14123193.88347 -10931266.02745  21546184.6334                   21546182.9884
 11  8 25 17 31 30.0000000  0  9G17G24G07G11G13G19G28G23G08
  17622220.63346  14051627.85543  24628865.6174                   24628868.6374
   6047514.25846   5043254.77743  23412477.3914                   23412478.2664
  -9173294.34847  -7123508.75046  20560607.6094                   20560605.1684
 -14156117.34047 -10426431.88744  22092854.3284                   22092852.5784
  10781114.44547   8325891.32044  22123875.8364                   22123875.0864
   6004793.87947   4702069.44945  22318811.6334                   22318808.0204
  -9529205.03547  -7362121.19544  22817930.8754                   22817928.0004
  19025633.79346  14943663.79743  24038688.4844                   24038689.0704
 -14280824.10947 -11054094.76645  21516188.6484                   21516187.0474
 11  8 25 17 32  0.0000000  0  9G17G24G07G11G13G19G28G23G08
  17427751.91446  13900093.89143  24591859.1804                   24591862.3204
   5888028.88746   4918980.51643  23382128.6724                   23382129.5004
  -9287767.78547  -7212708.84046  20538824.2584                   20538821.4614
 -14295254.15647 -10534850.16844  22066377.2734                   22066375.6884
  10787747.72347   8331060.01644  22125139.0554                   22125137.4694
   5996201.55147   4695374.07845  22317176.6804                   22317173.1454
  -9652805.10246  -7458432.90244  22794409.3984                   22794407.5474
  19048885.74646  14961781.85543  24043113.0394                   24043113.1134
 -14438335.02747 -11176830.54345  21486215.7894                   21486213.3324
 11  8 25 17 32 30.0000000  0  9G17G24G07G11G13G19G28G23G08
  17233374.01646  13748630.73843  24554870.9924                   24554873.0084
   5728672.37546   4794806.66443  23351803.3984                   23351804.6484
  -9401928.42247  -7301665.19946  20517100.2114                   20517097.0824
 -14433999.91447 -10642963.73844  22039974.9064                   22039973.1334
  10794642.02047   8336432.07444  22126450.6724                   22126449.4614
   5987946.19947   4688941.27345  22315605.4774                   22315602.2504
  -9776304.29747  -7554666.02044  22770909.1484                   22770906.3324
  19072138.47746  14979900.55143  24047538.0784                   24047539.1054
 -14595722.99647 -11299470.52045  21456265.4534                   21456263.5084
 11  8 25 17 33  0.0000000  0  9G17G24G07G11G13G19G28G23G08
  17039088.82046  13597239.73843  24517898.5944                   24517901.5394
   5569447.65246   4670735.50443  23321503.9774                   23321505.7234
  -9515774.60547  -7390376.52346  20495435.7504                   20495433.5664
 -14572352.58247 -10750771.00444  22013647.7194                   22013645.3524
  10801793.88747   8342004.86744  22127811.6644                   22127810.2504
   5980024.75847   4682768.67245  22314098.6414                   22314094.7114
  -9899703.28947  -7650821.04744  22747426.8674                   22747424.5944
  19095389.43846  14998017.84443  24051962.9924                   24051963.5904
 -14752985.93747 -11422013.05945  21426339.4694                   21426337.4884
 11  8 25 17 33 30.0000000  0  9G17G24G07G11G13G19G28G23G08
  16844897.04046  13445921.57343  24480945.5474                   24480947.8834
   5410356.96546   4546768.79743  23291229.5084                   23291231.4844
  -9629305.66847  -7478842.29746  20473831.7504                   20473828.8134
 -14710310.68447 -10858270.80544  21987394.6414                   21987393.0354
  10809199.38347   8347775.27344  22129221.0394                   22129220.3484
   5972432.96947   4676852.95745  22312652.8134                   22312650.0784
 -10023004.21947  -7746899.65644  22723963.1024                   22723961.1724
  19118634.33246  15016130.44942  24056386.1174                   24056387.2544
 -14910122.53947 -11544457.15245  21396437.0944                   21396435.0204
 11  8 25 17 34  0.0000000  0  9G17G24G07G11G13G19G28G23G08
  16650801.99646  13294678.80543  24444010.7344                   24444013.0124
   5251404.13346   4422909.50043  23260981.7274                   23260984.4774
  -9742518.81247  -7567060.34846  20452288.2424                   20452285.2854
 -14847870.66447 -10965460.39144  21961217.8754                   21961216.0904
  10816856.50847   8353741.75044  22130677.5784                   22130677.3364
   5965169.57847   4671193.12544  22311271.1024                   22311267.8754
 -10146206.99647  -7842901.79744  22700518.2504                   22700516.7194
  19141871.28546  15034236.81642  24060808.8984                   24060809.6604
 -15067129.63347 -11666800.33645  21366559.9774                   21366557.7704
 11  8 25 17 34 30.0000000  0  9G17G24G07G11G13G19G28G23G08
  16456801.60946  13143509.77042  24407093.3204                   24407096.1174
   5092588.50846   4299157.14843  23230760.4844                   23230762.2544
  -9855415.85247  -7655032.08246  20430804.5554                   20430802.1414
 -14985033.69947 -11072340.64844  21935117.2664                   21935114.6134
  10824758.26247   8359898.86744  22132181.5784                   22132180.4144
   5958227.69547   4665783.80945  22309950.2034                   22309946.5164
 -10269316.56647  -7938831.30144  22677091.4384                   22677089.5634
  19165093.86746  15052332.04742  24065227.6094                   24065229.0744
 -15224008.88347 -11789043.90245  21336706.9694                   21336705.0004
 11  8 25 17 35  0.0000000  0  9G17G24G07G11G13G19G28G23G08
  16262900.32446  12992417.99242  24370195.4454                   24370197.4024
   4933915.23446   4175515.64543  23200565.6414                   23200567.7934
  -9967992.73047  -7742754.32846  20409381.6254                   20409379.6054
 -15121795.62947 -11178908.37944  21909091.8054                   21909089.6684
  10832903.93447   8366246.02744  22133731.7894                   22133730.9224
   5951606.52347   4660624.39845  22308691.1414                   22308687.6484
 -10392331.69147  -8034687.21144  22653682.3054                   22653680.1054
  19188301.46146  15070415.50842  24069644.9774                   24069645.3444
 -15380756.21947 -11911184.66845  21306878.4694                   21306876.5784
 11  8 25 17 35 30.0000000  0  9G17G24G07G11G13G19G28G23G08
  16069097.81646  12841403.22742  24333315.0474                   24333318.4694
   4775384.84846   4051985.54743  23170398.4384                   23170400.0554
 -10080250.28547  -7830227.75846  20388020.0314                   20388017.5234
 -15258156.14847 -11285163.31244  21883143.3674                   21883141.0944
  10841287.15247   8372778.30144  22135326.8444                   22135326.1414
   5945300.69147   4655710.71945  22307490.6724                   22307487.0274
 -10515255.89547  -8130472.27744  22630290.7194                   22630288.3914
  19211488.59846  15088483.12943  24074057.1484                   24074058.3364
 -15537371.66047 -12033222.66045  21277075.8914                   21277073.5044
 11  8 25 17 36  0.0000000  0  9G17G24G07G11G13G19G28G23G08
  15875395.88746  12690466.75842  24296455.1024                   24296457.9534
   4617000.35546   3928569.09843  23140259.6954                   23140260.8984
 -10192186.74247  -7917450.98046  20366719.0394                   20366716.3754
 -15394112.84447 -11391103.57844  21857271.8284                   21857269.4304
  10849905.23847   8379493.57844  22136967.4774                   22136966.2974
   5939307.46947   4651040.60245  22306350.2194                   22306347.1414
 -10638090.21547  -8226187.30544  22606916.0784                   22606914.1764
  19234652.57846  15106532.64542  24078464.6334                   24078466.1884
 -15693853.12147 -12155156.26245  21247298.5704                   21247296.0274
 11  8 25 17 36 30.0000000  0  9G17G24G07G11G13G19G28G23G08
  15681799.39546  12539612.47342  24259614.0944                   24259617.2664
   4458767.97746   3805271.14843  23110148.5554                   23110149.9264
 -10303797.18047  -8004420.16446  20345480.3054                   20345477.4694
 -15529660.50447 -11496725.12544  21831477.8444                   21831475.6994
  10858758.27047   8386391.93044  22138652.2504                   22138650.9384
   5933626.73047   4646614.02044  22305269.3914                   22305265.7234
 -10760832.77747  -8321830.84844  22583558.9224                   22583556.4264
  19257793.36346  15124564.09443  24082869.7664                   24082870.6134
 -15850195.51247 -12276981.48845  21217547.1564                   21217545.1564
 11  8 25 17 37  0.0000000  0  9G17G24G07G11G13G19G28G23G08
  15488306.91846  12388839.28542  24222794.3054                   24222796.3714
   4300687.08646   3682091.28143  23080066.4924                   23080067.8094
 -10415083.26647  -8091136.60946  20324303.2504                   20324300.4924
 -15664800.35547 -11602028.90645  21805761.6024                   21805759.2074
  10867839.61747   8393468.18444  22140379.9774                   22140379.4694
   5928252.14547   4642425.98044  22304246.6564                   22304243.0634
 -10883487.88347  -8417406.24244  22560218.6254                   22560216.4304
  19280904.50446  15142572.43843  24087267.1174                   24087268.5704
 -16006400.35547 -12398699.52745  21187822.3054                   21187820.2584
 11  8 25 17 37 30.0000000  0  9G17G24G07G11G13G19G28G23G08
  15294920.87946  12238149.05543  24185993.9144                   24185996.0434
   4142761.18446   3559032.19543  23050014.3134                   23050015.9534
 -10526043.21547  -8177598.91846  20303188.2344                   20303185.5944
 -15799529.36347 -11707012.53944  21780123.5704                   21780121.3794
  10877146.03547   8400719.82444  22142151.3204                   22142150.6804
   5923181.33647   4638474.65645  22303281.9144                   22303278.4384
 -11006056.20747  -8512914.00844  22536894.5314                   22536892.3484
  19303983.62146  15160555.82443  24091659.7664                   24091660.6414
 -16162464.51647 -12520307.95345  21158124.1484                   21158122.7854
 11  8 25 17 38  0.0000000  0  9G17G24G07G11G13G19G28G23G08
  15101643.25446  12087543.23843  24149214.9614                   24149216.4224
   3984993.30146   3436096.20743  23019991.7664                   23019993.1414
 -10636674.87147  -8263805.41846  20282135.6644                   20282132.9104
 -15933845.18447 -11811674.19944  21754563.9534                   21754561.5084
  10886674.73447   8408144.65244  22143964.6564                   22143963.6214
   5918411.46547   4634757.81644  22302374.5314                   22302370.8014
 -11128538.88347  -8608355.03144  22513587.2814                   22513584.5084
  19327028.02346  15178512.16443  24096045.3524                   24096046.7894
 -16318385.75447 -12641805.01245  21128453.8284                   21128451.1174
 11  8 25 17 38 30.0000000  0  9G17G24G07G11G13G19G28G23G08
  14908477.37546  11937024.52743  24112455.8674                   24112457.6954
   3827387.61346   3313286.65243  22990001.2814                   22990002.3834
 -10746975.28547  -8349753.80546  20261146.2034                   20261143.6914
 -16067744.53147 -11916011.35544  21729083.4614                   21729081.2424
  10896424.08647   8415741.41844  22145820.5084                   22145819.0554
   5913940.67247   4631274.04344  22301523.4844                   22301520.0664
 -11250935.51247  -8703729.01244  22490295.6174                   22490293.0784
  19350036.25846  15196440.31343  24100424.0394                   24100425.3484
 -16474161.20747 -12763188.46545  21098810.7814                   21098808.4924
 11  8 25 17 39  0.0000000  0  9G17G24G07G11G13G19G28G23G08
  14715424.55946  11786593.90643  24075719.2194                   24075721.5664
   3669946.71146   3190605.46143  22960040.3054                   22960042.1644
 -10856943.40647  -8435443.26646  20240219.6644                   20240217.6604
 -16201225.59447 -12020022.54745  21703682.9924                   21703681.3324
  10906389.96547   8423506.91844  22147715.7194                   22147716.1374
   5909765.82846   4628020.88344  22300729.4454                   22300725.8594
 -11373247.71147  -8799037.19544  22467019.8524                   22467018.0004
  19373005.14846  15214337.81643  24104794.7894                   24104796.4344
 -16629788.71147 -12884456.64145  21069195.4304                   21069193.4414
 11  8 25 17 39 30.0000000  0  9G17G24G07G11G13G19G28G23G08
  16097911.92646  12863856.91843  24338798.3594                   24338799.7424
   5088097.40246   4295657.97343  23229905.1884                   23229907.5784
  -9391155.15247  -7293270.61346  20519150.4694                   20519147.8164
 -14758862.90247 -10896103.57445  21978155.4844                   21978153.2194
  12491987.74247   9659037.53544  22449446.1334                   22449445.1954
   7481302.57447   5852594.91044  22599781.8204                   22599779.4924
  -9920053.73847  -7666678.22344  22743554.2814                   22743551.8674
  20971349.03146  16459800.27042  24408949.2814                   24408951.6884
 -15209842.61747 -11778005.12145  21339401.9924                   21339400.0664
 11  8 25 17 40  0.0000000  0  9G17G24G07G11G13G19G28G23G08
  15905090.32446  12713606.46543  24302105.1254                   24302106.7114
   4930994.16046   4173239.89843  23200009.6644                   23200011.7704
  -9500454.27048  -7378438.77346  20498351.5704                   20498348.8594
 -14891500.99647 -10999457.91844  21952915.0864                   21952913.2304
  12502376.84447   9667132.82044  22451423.3364                   22451422.1024
   7477709.60947   5849795.16444  22599099.7034                   22599095.6134
 -10042201.01247  -7761857.89144  22720310.3054                   22720307.9494
  20994228.95346  16477628.38742  24413303.4774                   24413305.5204
 -15365168.59447 -11899038.34445  21309844.5474                   21309842.5664
 11  8 25 17 40 30.0000000  0  9G17G24G07G11G13G19G28G23G08
  15712388.41846  12563449.23043  24265434.7734                   24265436.6094
   4774065.27746   4050957.68443  23170147.3364                   23170148.9184
  -9609415.16047  -7463343.37546  20477616.7974                   20477614.1374
 -15023713.49647 -11102480.62944  21927756.1334                   21927754.0984
  12512973.78147   9675390.04344  22453439.6644                   22453438.8554
   7474404.07847   5847219.38744  22598469.7584                   22598466.0944
 -10164266.60547  -7856973.91044  22697081.9454                   22697079.0664
  21017061.46546  16495419.62143  24417648.8364                   24417650.7734
 -15520339.39847 -12019950.63745  21280316.4774                   21280314.7234
 11  8 25 17 41  0.0000000  0  9G17G24G07G11G13G19G28G23G08
  15519806.15646  12413385.23043  24228787.4844                   24228789.5704
   4617311.90646   3928812.24243  23140317.5944                   23140318.7274
  -9718037.98847  -7547984.53946  20456946.7424                   20456944.0314
 -15155499.64147 -11205171.12944  21902677.8204                   21902676.0274
  12523773.48847   9683805.26644  22455494.7974                   22455494.1374
   7471381.27347   5844863.90244  22597894.3054                   22597890.6884
 -10286253.25447  -7952028.41844  22673868.2734                   22673865.8714
  21039841.66445  16513170.03542  24421984.4064                   24421986.3524
 -15675354.29747 -12140741.45345  21250818.3674                   21250816.0984
 11  8 25 17 41 30.0000000  0  9G17G24G07G11G13G19G28G23G08
  15327345.46946  12263415.95743  24192164.1024                   24192165.2624
   4460736.84846   3806805.75843  23110522.4694                   23110523.4734
  -9826321.17247  -7632361.05546  20436341.1884                   20436338.5744
 -15286857.70747 -11307528.05545  21877681.6024                   21877679.0704
  12534772.63347   9692375.89144  22457587.6564                   22457587.4104
   7468638.49646   5842726.64144  22597372.9224                   22597369.4024
 -10408161.73047  -8047022.01644  22650670.1954                   22650667.8014
  21062567.06345  16530877.75042  24426308.5864                   24426311.1914
 -15830211.75847 -12261409.59045  21221350.1724                   21221347.9384
 11  8 25 17 42  0.0000000  0  9G17G24G07G11G13G19G28G23G08
  15135008.64846  12113543.22343  24155563.3134                   24155565.0744
   4304343.78146   3684941.07043  23080762.0864                   23080763.2274
  -9934262.68047  -7716471.33646  20415800.7504                   20415797.7934
 -15417784.87947 -11409549.21944  21852766.7344                   21852764.5984
  12545968.74647   9701100.00044  22459718.7034                   22459717.8244
   7466172.93046   5840805.38344  22596903.7344                   22596900.1054
 -10529992.94547  -8141955.41444  22627485.8524                   22627483.9264
  21085235.32845  16548541.02342  24430621.8984                   24430625.8054
 -15984908.93447 -12381952.83645  21191912.0704                   21191909.6724
 11  8 25 17 42 30.0000000  0  9G17G24G07G11G13G19G28G23G08
  14942795.07046  11963766.46543  24118986.0004                   24118987.8014
   4148132.83246   3563218.31343  23051036.0474                   23051037.7234
 -10041863.11347  -7800315.84846  20395325.1724                   20395322.2974
 -15548281.65247 -11511235.00844  21827933.7194                   21827932.0554
  12557356.00847   9709973.05144  22461885.3524                   22461885.0314
   7463979.40647   5839096.10244  22596486.3914                   22596482.9104
 -10651750.24247  -8236831.20344  22604316.7344                   22604314.1024
  21107840.53945  16566155.14142  24434924.2664                   24434926.6484
 -16139446.03947 -12502371.34045  21162504.7274                   21162502.6564
 11  8 25 17 43  0.0000000  0  9G17G24G07G11G13G19G28G23G08
  14750707.54746  11814087.94143  24082433.0784                   24082434.2114
   3992108.00446   3441640.57043  23021344.9774                   23021346.8014
 -10149119.98047  -7883892.64546  20374914.6024                   20374911.9534
 -15678344.73047 -11612582.86345  21803183.8674                   21803181.7664
  12568932.18047   9718993.30544  22464088.3754                   22464087.9964
   7462055.84847   5837597.18044  22596120.3984                   22596116.7504
 -10773433.66447  -8331649.41844  22581160.3834                   22581158.1684
  21130381.30145  16583719.01242  24439213.8284                   24439216.9734
 -16293819.91847 -12622662.66845  21133127.9924                   21133126.0664
 11  8 25 17 43 30.0000000  0  9G17G24G07G11G13G19G28G23G08
  14558746.50046  11664507.99643  24045902.9064                   24045905.3914
   3836270.54346   3320208.84443  22991690.6644                   22991691.7344
 -10256033.34047  -7967201.78146  20354569.8284                   20354566.8674
 -15807973.89147 -11713592.59844  21778516.6174                   21778514.2734
  12580692.10247   9728156.71944  22466326.8594                   22466326.3794
   7460397.22347   5836304.71544  22595804.4454                   22595801.3324
 -10895046.36747  -8426412.53944  22558018.7274                   22558016.3014
  21152853.02045  16601229.09842  24443490.2504                   24443494.1054
 -16448029.88747 -12742826.27345  21103783.1334                   21103781.1954
 11  8 25 17 44  0.0000000  0  8G17G24G07G11G13G19G28G08
  14366914.83646  11515028.85243  24009398.9064                   24009401.5314
   3680624.37946   3198926.16043  22962071.2034                   22962073.2344
 -10362600.69148  -8050241.27046  20334290.3364                   20334287.8754
 -15937165.94547 -11814261.75045  21753931.7664                   21753929.8674
  12592633.90647   9737461.86344  22468599.0164                   22468598.4384
   7459001.87147   5835217.36744  22595538.7894                   22595535.0784
 -11016588.44147  -8521120.63744  22534890.3204                   22534887.7194
 -16602072.53147 -12862859.49245  21074469.6174                   21074467.4264
 11  8 25 17 44 30.0000000  0  8G17G24G07G11G13G19G28G08
  14175214.60946  11365652.10543  23972919.8134                   23972921.6134
   3525173.15646   3077795.38743  22932490.8284                   22932492.2664
 -10468819.84447  -8133009.45346  20314078.0864                   20314075.4414
 -16065918.29747 -11914588.25445  21729431.0864                   21729428.8714
  12604754.71147   9746906.49644  22470905.6254                   22470905.5044
   7457867.05947   5834333.05544  22595323.4774                   22595320.2154
 -11138059.93447  -8615773.72744  22511774.4304                   22511772.5784
 -16755945.26247 -12982760.31245  21045188.7664                   21045186.5004
 11  8 25 17 45  0.0000000  0  8G17G24G07G11G13G19G28G08
  13983650.06346  11216381.11343  23936466.4844                   23936468.4264
   3369921.78846   2956820.33243  22902947.2114                   22902948.0744
 -10574686.84847  -8215503.25446  20293931.6484                   20293929.1174
 -16194227.00447 -12014569.06244  21705014.7424                   21705012.7274
  12617053.43047   9756489.77744  22473246.5634                   22473245.8164
   7456992.07846   5833651.22344  22595156.5004                   22595153.3524
 -11259460.40247  -8710371.48444  22488672.6094                   22488670.6604
 -16909644.21547 -13102525.72345  21015940.8984                   21015938.2894
 11  8 25 17 45 30.0000000  0  8G17G24G07G11G13G19G28G08
  13792222.50446  11067216.85543  23900038.5784                   23900040.2894
   3214873.00846   2836003.19543  22873442.3444                   22873443.5124
 -10680200.98047  -8297722.07446  20273853.2424                   20273850.8134
 -16322090.27047 -12114202.77345  21680683.2344                   21680681.3554
  12629526.31647   9766208.76244  22475619.8834                   22475619.2344
   7456373.58247   5833169.23444  22595038.8524                   22595035.9384
 -11380790.81247  -8804914.62944  22465584.7974                   22465582.1374
 -17063167.20747 -13222154.01645  20986725.8524                   20986724.3244
 11  8 25 17 46  0.0000000  0  8G17G24G07G11G13G19G28G08
  13600933.59046  10918160.63343  23863638.0164                   23863639.1414
   3060029.32846   2715345.83643  22843976.3284                   22843977.1994
 -10785360.67247  -8379664.69546  20253842.0784                   20253839.7624
 -16449506.32847 -12213488.02045  21656436.9534                   21656434.7704
  12642170.21147   9776061.01644  22478025.3594                   22478025.5904
   7456008.40646   5832884.64544  22594970.0784                   22594966.3324
 -11502052.70747  -8899404.39144  22442509.0314                   22442506.7304
 -17216512.15647 -13341643.58245  20957545.5704                   20957543.5044
 11  8 25 17 46 30.0000000  0  8G17G24G07G11G13G19G28G08
  13409786.76246  10769215.12543  23827263.9774                   23827264.9694
   2905395.29746   2594851.80943  22814550.5004                   22814551.7734
 -10890162.49247  -8461328.46146  20233898.9924                   20233896.3484
 -16576471.42247 -12312421.85944  21632276.0234                   21632274.1334
  12654983.37947   9786045.16844  22480464.4224                   22480464.0234
   7455895.30547   5832796.47344  22594949.0634                   22594945.1334
 -11623245.30947  -8993840.16044  22419447.3984                   22419444.4654
 -17369674.91847 -13460991.17245  20928399.6024                   20928397.8324
 11  8 25 17 47  0.0000000  0  9G17G24G07G26G11G13G19G28G08
  13218781.77046  10620380.14543  23790916.1414                   23790918.0944
   2750971.56646   2474521.68043  22785164.4144                   22785165.8834
 -10994607.37947  -8542714.10246  20214023.5084                   20214020.9184
  20265326.34855  15942886.88752  24114784.2274                   24114783.8404
 -16702986.07447 -12411004.69945  21608201.2114                   21608199.3674
  12667960.19947   9796156.80143  22482933.4924                   22482933.4144
   7456028.98447   5832900.58644  22594973.0944                   22594970.8134
 -11744371.94147  -9088224.53944  22396397.2974                   22396395.4344
 -17522655.96947 -13580197.18045  20899288.0864                   20899286.5164
 11  8 25 17 47 30.0000000  0  9G17G24G07G26G11G13G19G28G08
  13027919.41846  10471656.32043  23754596.7114                   23754598.1374
   2596759.99246   2354356.86743  22755818.7974                   22755820.3444
 -11098694.77347  -8623821.16846  20194216.7114                   20194213.9654
  20087427.02345  15804264.21142  24080930.8984                   24080932.0984
 -16829049.47747 -12509235.91845  21584211.7504                   21584209.7304
  12681096.62547   9806392.81643  22485433.3364                   22485433.3834
   7456405.32047   5833193.80544  22595045.4304                   22595042.6884
 -11865435.22347  -9182559.53144  22373359.9534                   22373357.3834
 -17675453.88747 -13699260.48445  20870211.7734                   20870209.6994
 11  8 25 17 48  0.0000000  0  9G17G24G07G26G11G13G19G28G08
  14412627.60246  11550649.79343  24018098.1024                   24018099.6174
   4018188.80546   3461963.77743  23026308.1094                   23026309.2774
  -9626999.39147  -7477045.55946  20474270.9064                   20474268.0314
  21485308.94145  16893522.80942  24346938.9534                   24346940.5594
 -15379235.04747 -11379510.39145  21860102.7194                   21860100.3754
  14269808.74647  11044350.15644  22787755.8364                   22787755.4964
   9032441.01647   7061273.52044  22894955.0634                   22894951.9184
 -10411011.90647  -8049242.64544  22650127.3524                   22650125.4694
 -16252640.80147 -12590574.95345  21140964.2034                   21140961.9574
 11  8 25 17 48 30.0000000  0  9G17G24G07G26G11G13G19G28G08
  14222053.59846  11402150.66043  23981832.8834                   23981834.5744
   3864408.06346   3342134.69543  22997044.3914                   22997046.0274
  -9730369.32047  -7557593.56646  20454600.1414                   20454597.3324
  21308120.59845  16755454.00842  24313220.9774                   24313222.4224
 -15504391.78147 -11477035.10245  21836286.3674                   21836283.9884
  14283252.11746  11054825.33244  22790313.8594                   22790313.8204
   9033291.60247   7061936.27344  22895117.4224                   22895113.3094
 -10531953.06647  -8143482.48444  22627113.3284                   22627110.5864
 -16405067.16847 -12709348.74245  21111958.8524                   21111956.3094
 11  8 25 17 49  0.0000000  0  9G17G24G07G26G11G13G19G28G08
  14031628.54346  11253767.58243  23945596.0784                   23945597.5434
   3710849.32846   3222478.59043  22967823.9924                   22967824.1884
  -9833376.17247  -7637858.66446  20434998.5474                   20434995.8204
  21131293.90645  16617666.96942  24279572.1024                   24279573.4414
 -15629090.42647 -11574202.87145  21812556.7034                   21812554.8054
  14296846.35247  11065418.08244  22792900.8364                   22792901.1524
   9034376.96946   7062781.96544  22895322.8594                   22895319.9694
 -10652832.39547  -8237674.13744  22604109.5634                   22604108.1644
 -16557302.52747 -12827973.68045  21082989.4144                   21082987.0664
 11  8 25 17 49 30.0000000  0  9G17G24G07G26G11G13G19G28G08
  13841354.64546  11105502.30543  23909387.9064                   23909389.0004
   3557515.87146   3102998.02043  22938644.7894                   22938645.7154
  -9936017.72747  -7717839.10546  20415466.6644                   20415463.7854
  20954831.65646  16480163.97343  24245993.0554                   24245993.4844
 -15753328.80547 -11671011.99244  21788914.6804                   21788912.7854
  14310588.66047  11076126.19544  22795516.6334                   22795516.1024
   9035694.54746   7063808.61344  22895573.9064                   22895570.3134
 -10773650.84447  -8331818.37144  22581119.8594                   22581117.5474
 -16709344.25847 -12946447.75445  21054056.7664                   21054054.2114
 11  8 25 17 50  0.0000000  0  9G17G24G07G26G11G13G19G28G08
  13651233.86746  10957356.32443  23873208.7034                   23873210.4804
   3404410.57446   2983695.23043  22909509.8204                   22909511.0084
 -10038292.50447  -7797533.75446  20396004.2274                   20396001.5204
  20778736.86746  16342947.29743  24212483.3914                   24212483.5394
 -15877104.72747 -11767460.75445  21765361.2114                   21765359.0514
  14324475.76247  11086947.13744  22798158.8364                   22798159.1174
   9037241.54746   7065014.01644  22895868.5004                   22895865.0634
 -10894409.10947  -8425915.68744  22558140.1484                   22558137.3404
 -16861189.74247 -13064768.89545  21025161.5784                   21025158.9534
 11  8 25 17 50 30.0000000  0  9G17G24G07G26G11G13G19G28G08
  13461268.80146  10809331.69943  23837059.7114                   23837060.7074
   3251537.09846   2864573.10943  22880418.7344                   22880420.0944
 -10140198.40647  -7876940.96146  20376612.6884                   20376609.8954
  20603012.59046  16206019.32842  24179043.7814                   24179044.1844
 -16000415.42647 -11863547.00844  21741896.3284                   21741893.7384
  14338505.23847  11097879.03144  22800829.0634                   22800828.7424
   9039015.76246   7066396.48044  22896206.3284                   22896203.0124
 -11015107.69147  -8519966.51644  22535171.4144                   22535169.0234
 -17012836.24647 -13182935.00445  20996303.9144                   20996301.6094
 11  8 25 17 51  0.0000000  0  9G17G24G07G26G11G13G19G28G08
  13271464.94546  10661432.68843  23800941.0084                   23800941.7934
   3098901.87146   2745636.63743  22851373.8444                   22851374.6764
 -10241730.52047  -7956056.89846  20357291.5704                   20357288.8874
  20427664.54346  16069384.58242  24145676.0634                   24145676.6844
 -16123256.01247 -11959266.92645  21718520.1724                   21718517.9964
  14352677.44147  11108922.13343  22803525.3754                   22803525.9574
   9041017.50046   7067956.23044  22896587.3754                   22896584.3874
 -11135743.92247  -8613968.74644  22512214.4844                   22512212.5984
 -17164277.68747 -13300941.31245  20967485.7344                   20967483.5394
 11  8 25 17 51 30.0000000  0  9G17G24G07G26G11G13G19G28G08
  13081822.37546  10513659.34843  23764853.5864                   23764854.3634
   2946506.42646   2626887.00444  22822372.7894                   22822374.6024
 -10342888.63347  -8034881.42246  20338041.9454                   20338039.0474
  20252694.33246  15933044.13742  24112380.3754                   24112381.2464
 -16245625.85547 -12054620.03545  21695233.8364                   21695231.9694
  14366987.49247  11120072.66843  22806249.3364                   22806249.2464
   9043242.50046   7069689.95344  22897010.2894                   22897007.9024
 -11256320.62547  -8707924.60544  22489270.5634                   22489268.1564
 -17315513.12147 -13418787.10545  20938706.3364                   20938704.4654
 11  8 25 17 52  0.0000000  0  9G17G24G07G26G11G13G19G28G08
  12892343.73846  10366013.78943  23728796.8284                   23728797.7234
   2794354.35546   2508326.99243  22793418.6564                   22793420.6524
 -10443670.31247  -8113412.60946  20318863.4614                   20318861.2304
  20078105.07446  15797000.60942  24079157.3054                   24079158.1604
 -16367522.81647 -12149604.66444  21672037.3204                   21672035.0274
  14381433.09847  11131328.80143  22808997.8914                   22808998.2194
   9045688.65646   7071595.97744  22897476.3284                   22897473.1564
 -11376837.92247  -8801834.16444  22466336.1334                   22466334.7344
 -17466539.37147 -13536469.89545  20909966.6254                   20909964.9304
 11  8 25 17 52 30.0000000  0  9G17G24G07G26G11G13G19G28G08
  12703032.83246  10218498.92243  23692771.9694                   23692773.5784
   2642450.48446   2389960.36743  22764513.9304                   22764514.4844
 -10544072.14147  -8191647.81246  20299757.9924                   20299755.4734
  19903901.18445  15661257.35942  24046007.6884                   24046008.5744
 -16488942.89547 -12244217.71545  21648932.2274                   21648929.8984
  14396013.22747  11142689.76643  22811772.1414                   22811772.8914
   9048354.87146   7073673.50444  22897983.8524                   22897980.0164
 -11497294.72347  -8895696.59844  22443414.1334                   22443412.2154
 -17617351.83647 -13653986.10545  20881268.6094                   20881266.1804
 11  8 25 17 53  0.0000000  0  9G17G24G07G26G11G13G19G28G08
  12513892.07846  10071116.62543  23656780.1334                   23656780.8054
   2490798.80946   2271790.25443  22735654.6724                   22735655.8914
 -10644091.93747  -8269585.32846  20280724.5784                   20280722.0634
  19730086.02345  15525816.92642  24012930.9064                   24012933.9694
 -16609883.28947 -12338456.96545  21625918.2504                   21625916.0084
  14410725.35946  11154153.55943  22814572.3674                   22814572.7624
   9051239.10246   7075920.89544  22898532.5864                   22898529.8404
 -11617691.36347  -8989512.14144  22420503.1174                   22420501.0474
 -17767947.91847 -13771333.69145  20852610.7974                   20852608.9344
 11  8 25 17 53 30.0000000  0  9G17G24G07G26G11G13G19G28G08
  12324924.32446   9923869.14543  23620820.8134                   23620821.2504
   2339402.40246   2153819.07443  22706845.5944                   22706846.0124
 -10743727.81247  -8347223.68746  20261764.5084                   20261761.9804
  19556663.00845  15390682.25842  23979929.3594                   23979932.5084
 -16730341.78147 -12432320.71545  21602995.3594                   21602993.1724
  14425567.02046  11165718.30543  22817397.0474                   22817397.3714
   9054339.21546   7078336.52744  22899122.6414                   22899118.7504
 -11738028.13347  -9083281.03944  22397604.3674                   22397601.5124
 -17918324.63747 -13888510.35945  20823995.0704                   20823992.9964
 11  8 25 17 54  0.0000000  0  9G17G24G07G26G11G13G19G28G08
  12136134.82046   9776760.56644  23584895.0554                   23584895.9454
   2188267.77746   2036051.88744  22678085.3594                   22678086.0634
 -10842974.79747  -8424559.00846  20242878.4694                   20242876.0784
  19383638.04745  15255857.71942  23947004.1804                   23947006.8714
 -16850313.21947 -12525804.95745  21580165.7344                   21580163.4224
  14440538.07847  11177383.88743  22820245.8984                   22820246.0274
   9057655.75046   7080920.78944  22899753.7894                   22899750.2344
 -11858302.34847  -9177001.18044  22374716.6884                   22374714.5634
 -18068476.07447 -14005511.47345  20795422.3754                   20795420.3634
 11  8 25 17 54 30.0000000  0  9G17G24G07G26G11G13G19G28G08
  11947525.73146   9629792.56343  23549003.5314                   23549004.9574
   2037398.77346   1918491.64543  22649375.7664                   22649376.8914
 -10941830.43747  -8501589.39846  20224066.5944                   20224064.0634
  19211014.42645  15121345.87142  23914154.0784                   23914157.3164
 -16969794.95747 -12618907.59445  21557429.1414                   21557427.4024
  14455636.18846  11189148.42643  22823119.5784                   22823119.0124
   9061186.41046   7083671.88744  22900425.5234                   22900422.6214
 -11978514.46547  -9270672.94544  22351841.5004                   22351838.4884
 -18218398.98447 -14122334.52045  20766892.8284                   20766890.4804
 11  8 25 17 55  0.0000000  0  9G17G24G07G26G11G13G19G28G08
  11759098.29746   9482966.11343  23513147.1334                   23513148.0704
   1886797.40646   1801139.96143  22620716.9304                   22620718.2464
 -11040293.93447  -8578314.21946  20205330.0704                   20205327.0944
  19038793.77045  14987148.05542  23881382.1484                   23881384.2424
 -17088786.14847 -12711627.99245  21534785.7194                   21534783.4614
  14470858.10947  11201009.48043  22826016.2274                   22826016.0004
   9064927.63346   7086587.05944  22901137.1644                   22901134.1454
 -12098666.12547  -9364297.60244  22328977.3834                   22328974.8554
 -18368091.68747 -14238978.18445  20738407.0474                   20738405.6994
 11  8 25 17 55 30.0000000  0  9G17G24G07G26G11G13G19G28G08
  11570855.73446   9336283.71144  23477325.5084                   23477326.7894
   1736468.23846   1684000.38743  22592110.4614                   22592111.1524
 -11138362.34047  -8654731.17646  20186668.3284                   20186665.2704
  18866980.57446  14853267.67242  23848686.4064                   23848688.7664
 -17207283.50447 -12803963.58244  21512236.0554                   21512234.2034
  14486202.09447  11212965.62543  22828936.2194                   22828936.6374
   9068878.28947   7089665.45744  22901889.4224                   22901886.3484
 -12218756.67647  -9457874.62944  22306124.4304                   22306122.5044
 -18517549.85947 -14355439.09445  20709966.2034                   20709964.3094
 11  8 25 17 56  0.0000000  0  9G17G24G07G26G11G13G19G28G08
  11382806.43046   9189751.89844  23441540.1724                   23441541.5984
   1586420.60246   1567080.19143  22563557.7274                   22563558.4884
 -11236027.72347  -8730834.09446  20168082.9924                   20168080.3874
  18695583.25046  14719711.41442  23816071.5164                   23816072.4494
 -17325279.21147 -12895908.28145  21489782.7424                   21489780.5314
  14501671.07447  11225019.19144  22831879.6334                   22831880.6294
   9073041.65246   7092909.57844  22902681.5944                   22902678.4184
 -12338780.67647  -9551399.80944  22283284.4534                   22283282.6454
 -18666764.84047 -14471710.50045  20681570.9064                   20681568.7464
 11  8 25 17 56 30.0000000  0  9G17G24G07G26G11G13G19G28G08
  12770376.28946  10270975.27043  23705586.8984                   23705587.1524
   3012079.98446   2677983.64143  22834852.0474                   22834852.5274
  -9757867.59047  -7579021.02346  20449367.5634   20449364.9654   20100028.09046
  15814084.06342                  24083328.2114                   24083329.0314
 -15867349.46547 -11759859.12945  21767217.3594                   21767214.7274
  16092679.18446  12464765.55943  23134639.1174                   23134639.4344
  10652832.54346   8323915.39544  23203305.8984                   23203302.5784
 -10883317.22747  -8417272.42644  22560250.0554                   22560247.8554
 -17240311.78547 -13360188.64145  20953016.8914                   20953014.3914
 11  8 25 17 57  0.0000000  0  9G17G24G07G26G11G13G19G28G08
  12582717.11346  10124747.46943  23669875.7274                   23669876.8404
   2862602.12946   2561507.44543  22806406.1094                   22806407.3754
  -9854724.59447  -7654494.03146  20430936.4774   20430933.5594   19929468.60246
  15681180.64143                  24050871.9454                   24050871.8284
 -15984338.10547 -11851019.10245  21744954.6954                   21744953.3754
  16108387.10946  12477005.29743  23137628.1484                   23137628.5434
  10657411.04746   8327483.01644  23204177.2344                   23204173.7894
 -11003212.59447  -8510697.36744  22537435.2814                   22537432.5664
 -17389035.30147 -13476077.10245  20924715.5944                   20924713.4534
 11  8 25 17 57 30.0000000  0  9G17G24G07G26G11G13G19G28G08
  12395255.16446   9978673.32043  23634203.3364                   23634203.6994
   2713412.98046   2445256.19143  22778016.6414                   22778018.1884
  -9951175.73847  -7729650.79346  20412582.4534   20412579.9264   19759331.55946
  15548606.37943                  24018495.8284                   24018496.0044
 -16100821.12947 -11941785.07845  21722789.1484                   21722787.3204
  16124209.31346  12489334.10943  23140639.0554                   23140639.4344
  10662192.36346   8331208.66044  23205086.9534                   23205084.1174
 -11123045.67247  -8604073.78944  22514631.4144                   22514629.4264
 -17537509.71947 -13591771.45745  20896461.8204                   20896459.9494
 11  8 25 17 58  0.0000000  0  9G17G24G07G26G11G13G19G28G08
  12207998.16846   9832758.90243  23598569.0474                   23598569.5004
   2564521.12946   2329236.60244  22749683.3444                   22749684.8914
 -10047213.81247  -7804485.67246  20394306.8594   20394304.1994   19589625.08646
  15416367.60243                  23986200.9774                   23986201.1484
 -16216791.23847 -12032151.39145  21700720.8984                   21700718.7384
  16140148.60946  12501754.13343  23143672.3754                   23143672.6684
  10667179.82446   8335094.93443  23206036.0474                   23206032.6764
 -11242811.32447  -8697397.67644  22491840.6644                   22491838.4494
 -17685726.88747 -13707265.36345  20868257.5164                   20868255.2854
 11  8 25 17 58 30.0000000  0  9G17G24G07G26G11G13G19G28G08
  12020946.14546   9687004.17243  23562974.1334                   23562975.2504
   2415927.79346   2213449.61744  22721407.4614                   22721408.2704
 -10142839.25447  -7878999.02346  20376109.9224   20376107.2704   19420349.64846
  15284464.73443                  23953989.4304                   23953989.8714
 -16332248.89547 -12122118.38745  21678749.6254                   21678747.3794
  16156200.06646  12514261.53543  23146727.4224                   23146727.1484
  10672368.25046   8339137.80544  23207023.7114                   23207020.7274
 -11362512.49647  -8790671.28944  22469062.2274                   22469059.9264
 -17833685.91847 -13822558.11745  20840101.2114                   20840098.9534
 11  8 25 17 59  0.0000000  0  9G17G24G07G26G11G13G19G28G08
  11834100.43046   9541410.23043  23527418.3914                   23527418.9884
   2267635.86346   2097897.48444  22693188.4384                   22693189.2034
 -10238050.55547  -7953189.66446  20357992.3674   20357989.4734   19251507.66446
  15152899.57843                  23921859.6174                   23921859.9774
 -16447192.41447 -12211684.75845  21656876.5634                   21656874.8094
  16172360.52746  12526853.92643  23149802.2974                   23149802.9384
  10677755.07846   8343335.28943  23208048.1414                   23208046.0704
 -11482149.81247  -8883895.17645  22446296.1804                   22446294.4734
 -17981384.52047 -13937647.94545  20811995.1564                   20811993.1604
 11  8 25 17 59 30.0000000  0  9G17G24G07G26G11G13G19G28G08
  11647464.30546   9395979.60244  23491903.3284                   23491903.9964
   2119649.13346   1982583.18044  22665026.9224                   22665028.0744
 -10332845.14847  -8027055.61746  20339953.0944   20339950.5274   19083102.75846
  15021675.01643                  23889813.7034                   23889814.0664
 -16561619.21147 -12300848.48845  21635101.8594                   21635099.6884
  16188627.90646  12539529.57843  23152897.6954                   23152898.8324
  10683338.67246   8347686.06344  23209111.4224                   23209108.4924
 -11601723.47747  -8977069.44944  22423542.6724                   22423540.0824
 -18128819.24247 -14052532.14545  20783939.2344                   20783936.9694
 11  8 25 18  0  0.0000000  0  9G17G24G07G26G11G13G19G28G08
  11461037.68446   9250712.21943  23456426.4064                   23456427.7304
   1971968.75846   1867507.60944  22636924.8054                   22636925.7894
 -10427223.50047  -8100597.19546  20321993.4694   20321991.1374   18915135.93846
  14890791.83642                  23857849.4384                   23857850.3524
 -16675529.38347 -12389609.64145  21613425.3984                   21613423.4924
  16204997.62146  12552284.99243  23156013.1024                   23156013.8484
  10689114.46946   8352186.62544  23210210.5944                   23210207.6254
 -11721235.63747  -9070195.78945  22400799.1954                   22400797.4064
 -18275989.23447 -14167210.06245  20755933.5944                   20755931.7934
 11  8 25 18  0 30.0000000  0  9G17G24G07G26G11G13G19G28G08
  11274829.40246   9105614.98043  23420991.8134                   23420993.6214
   1824604.85546   1752678.63343  22608881.8594                   22608883.0514
 -10521177.36347  -8173808.01646  20304114.7424   20304112.0824   18747616.30146
  14760257.11742                  23825972.9454                   23825972.5234
 -16788914.37547 -12477961.58245  21591849.4924                   21591847.6804
  16221473.41846  12565123.05943  23159148.0784                   23159149.2774
  10695086.33646   8356839.95344  23211346.6174                   23211344.4804
 -11840680.45347  -9163269.66044  22378069.9384                   22378067.9384
 -18422884.86747 -14281674.18745  20727980.3284                   20727978.3404
 11  8 25 18  1  0.0000000  0  9G17G24G07G26G11G13G19G28G08
  11088838.88746   8960687.42644  23385599.5234                   23385600.5084
   1677558.05146   1638096.72743  22580899.3444                   22580901.5434
 -10614707.27747  -8246688.50846  20286316.6724   20286313.9024   18580544.20346
  14630071.05942                  23794179.7894                   23794180.1214
 -16901775.05147 -12565904.95345  21570372.7504                   21570370.7234
  16238050.39546  12578039.96543  23162303.7274                   23162304.3984
  10701249.33246   8361642.22744  23212519.4384                   23212516.7664
 -11960061.17247  -9256293.58645  22355353.7734                   22355350.1334
 -18569506.12147 -14395924.52345  20700079.3754                   20700077.3444
 11  8 25 18  1 30.0000000  0  9G17G24G07G26G11G13G19G28G08
  10903068.23046   8815931.17244  23350248.5314                   23350249.4454
   1530831.25846   1523764.22344  22552979.4694                   22552979.5044
 -10707811.89847  -8319237.58246  20268599.4534   20268596.6414   18413922.28546
  14500235.79742                  23762473.0784                   23762472.9384
 -17014109.37547 -12653438.19145  21548996.4614                   21548994.3444
  16254724.61346  12591032.64143  23165475.7034                   23165477.6764
  10707601.48046   8366591.89844  23213728.4924                   23213725.8634
 -12079377.62547  -9349267.43044  22332646.3444                   22332644.5434
 -18715850.25447 -14509958.92245  20672231.4144                   20672228.9344
 11  8 25 18  2  0.0000000  0  9G17G24G07G26G11G13G19G28G08
  10717519.18446   8671347.61744  23314939.6954                   23314940.7894
   1384427.22346   1409683.19543  22525119.4064                   22525120.0514
 -10800489.95747  -8391454.27046  20250962.8834   20250961.1254   18247752.59445
  14370752.99242                  23730851.4844                   23730852.3094
 -17125916.30547 -12740560.47745  21527720.2814                   21527717.9454
  16271493.71546  12604099.25043  23168667.9774                   23168669.0824
  10714139.52346   8371686.38344  23214972.6334                   23214970.0044
 -12198631.69547  -9442192.65244  22309954.6094                   22309951.8204
 -18861914.80547 -14623775.45745  20644435.9454                   20644433.9384
 11  8 25 18  2 30.0000000  0  9G17G24G07G26G11G13G19G28G08
  10532194.85546   8526939.16044  23279673.8984                   23279674.7854
   1238350.05146   1295856.86344  22497321.7894                   22497321.8674
 -10892738.37547  -8463336.16846  20233408.8054   20233406.4804   18082039.11345
  14241625.63342                  23699316.6724                   23699317.4694
 -17237192.73847 -12827269.37545  21506545.1334                   21506543.0434
  16288355.94146  12617238.42243  23171876.5554                   23171877.6254
  10720861.97346   8376924.59844  23216251.8754                   23216249.2304
 -12317822.55547  -9535068.63345  22287273.3834                   22287270.4064
 -19007695.83647 -14737371.06245  20616694.5474                   20616692.9574
 11  8 25 18  3  0.0000000  0  9G17G24G07G26G11G13G19G28G08
  10347099.08246   8382708.78944  23244450.8914                   23244451.8364
   1092604.92646   1182289.27744  22469587.0704                   22469587.9574
 -10984554.23047  -8534881.00846  20215936.7734   20215934.4144   17916786.14546
  14112857.13742                  23667869.7734                   23667870.4384
 -17347935.37147 -12913562.33245  21485471.2034                   21485469.0984
  16305310.40646  12630449.47743  23175103.9304                   23175104.3714
  10727768.18846   8382305.98044  23217566.2894                   23217563.6054
 -12436948.76247  -9627894.23445  22264603.8524                   22264601.6844
 -19153188.71147 -14850742.12545  20589008.3364                   20589006.4104
 11  8 25 18  3 30.0000000  0  9G17G24G07G26G11G13G19G28G08
  10162230.51246   8238655.43843  23209271.4224                   23209271.9304
    947191.64146   1068980.25043  22441915.7584                   22441916.5084
 -11075939.04347  -8606089.98046  20198546.6724   20198544.5634   17751993.27346
  13984447.12142                  23636511.7424                   23636511.8244
 -17458145.99647 -12999440.73445  21464498.3364                   21464496.8594
  16322351.23446  12643727.79743  23178345.9534                   23178347.3874
  10734852.68046   8387826.28144  23218914.2894                   23218911.5634
 -12556014.19947  -9720672.47744  22241946.7424                   22241943.9734
 -19298394.01247 -14963889.11345  20561376.8284                   20561374.6644
 11  8 25 18  4  0.0000000  0  9G17G24G07G26G11G13G19G28G08
   9977593.01646   8094782.15244  23174135.3444                   23174136.3444
    802114.81546    955933.44343  22414308.3984                   22414309.1254
 -11166889.32447  -8676960.34446  20181239.9844   20181237.3834   17587664.77346
  13856398.96542                  23605241.1564                   23605241.0314
 -17567820.93447 -13084901.73045  21443628.3674                   21443626.4024
  16339477.16046  12657072.41843  23181605.7344                   23181606.6604
  10742114.81646   8393484.99644  23220296.7274                   23220293.9024
 -12675017.39147  -9813402.22344  22219301.5634                   22219298.5474
 -19443307.13347 -15076808.44146  20533800.2814                   20533798.2664
 11  8 25 18  4 30.0000000  0  9G17G24G07G26G11G13G19G28G08
   9793187.04746   7951089.28144  23139044.6254                   23139045.2974
    657376.26246    843150.18044  22386766.3984                   22386766.6484
 -11257405.27747  -8747492.28946  20164014.9924   20164013.0204   17423801.72746
  13728713.49642                  23574058.9224                   23574059.1994
 -17676960.25847 -13169945.34445  21422859.8134                   21422857.7504
  16356683.69946  12670479.90243  23184879.8364                   23184881.2194
  10749550.26646   8399278.77343  23221711.1254                   23221708.3794
 -12793960.81247  -9906085.40644  22196666.5944                   22196664.6134
 -19587927.19547 -15189499.39845  20506280.3364                   20506278.4614
 11  8 25 18  5  0.0000000  0  9G17G24G07G26G11G13G19G28G08
  11184438.10946   9035181.09843  23403790.2344                   23403791.1054
   2088401.02746   1958234.44944  22659080.2034                   22659081.2074
  -9772064.70347  -7590084.07046  20446666.4064   20446663.8484   18835829.52746
  14828994.94543                  23842758.5634                   23842758.6724
 -16210141.46547 -12026969.68045  21701986.2344                   21701984.2114
  17949385.10246  13911545.69143  23487960.7584                   23487962.4804
  12332573.72746   9632803.47343  23522951.2664                   23522947.5474
 -11337423.78947  -8771121.46544  22473836.2194                   22473834.2424
 -18156828.61747 -14074357.64845  20778609.2734                   20778607.3914
 11  8 25 18  5 30.0000000  0  9G17G24G07G26G11G13G19G28G08
  11000496.52046   8891850.07443  23368788.6954                   23368788.3674
   1944343.66446   1845982.02344  22631667.2584                   22631668.2234
  -9861711.43447  -7659938.68446  20429607.0554   20429604.8874   18672900.73046
  14702037.50843                  23811754.0004                   23811754.2734
 -16318209.09047 -12111178.19945  21681421.1954                   21681419.4264
  17966740.54746  13925069.16443  23491263.9534                   23491266.1334
  12340344.11346   9638858.24643  23524428.9924                   23524426.9574
 -11456253.66847  -8863716.17245  22451224.0634                   22451220.8594
 -18300857.21947 -14186587.74245  20751201.3524                   20751199.3594
 11  8 25 18  6  0.0000000  0  9G17G24G07G26G11G13G19G28G08
  10816787.28546   8748700.10544  23333829.0634                   23333829.9184
   1800628.57446   1733996.25444  22604319.2034                   22604320.3324
  -9950924.10947  -7729455.08246  20412630.7894   20412628.5594   18510440.24246
  14575444.93443                  23780839.6724                   23780838.6454
 -16425741.40647 -12194969.59845  21660959.3984                   21660956.8674
  17984163.70746  13938645.41843  23494579.8204                   23494581.4184
  12348275.46146   9645038.43443  23525939.0234                   23525935.4414
 -11575030.05547  -8956269.17244  22428621.6884                   22428619.4264
 -18444588.89847 -14298586.44945  20723850.4064                   20723848.3204
 11  8 25 18  6 30.0000000  0  9G17G24G07G26G11G13G19G28G08
  10633314.24646   8605734.18044  23298915.8674                   23298915.8524
   1657260.43846   1622280.86344  22577037.2424                   22577037.9144
 -10039699.41047  -7798630.67246  20395737.0004   20395734.7274   18348452.37946
  14449220.65643                  23750013.6024                   23750013.8484
 -16532734.94947 -12278341.18445  21640598.5704                   21640596.5824
  18001653.45346  13952273.52043  23497907.5084                   23497909.7074
  12356367.25446   9651343.66043  23527478.9064                   23527475.4804
 -11693752.01647  -9048779.76244  22406029.3914                   22406027.3244
 -18588019.40647 -14410350.49645  20696556.3984                   20696554.4884
 11  8 25 18  7  0.0000000  0  9G17G24G07G26G11G13G19G28G08
  10450080.83246   8462954.98444  23264047.1174                   23264047.7344
   1514243.82446   1510839.37944  22549821.1174                   22549822.7154
 -10128034.53147  -7867463.25046  20378927.3444   20378925.1134   18186940.59446
  14323367.34043                  23719278.3054                   23719278.6954
 -16639186.92247 -12361290.76645  21620341.2424                   21620339.5744
  18019208.47746  13965952.49243  23501248.4304                   23501250.3984
  12364618.29346   9657772.98843  23529048.1644                   23529045.9494
 -11812418.79347  -9141247.36745  22383448.3674                   22383445.4574
 -18731144.40647 -14521876.46945  20669320.6644                   20669318.4024
 11  8 25 18  7 30.0000000  0  9G17G24G07G26G11G13G19G28G08
  10267084.82847   8320360.79344  23229224.3444                   23229224.5354
   1371578.18846   1399671.41043  22522673.3594                   22522674.2734
 -10215931.61747  -7935954.51246  20362201.4144   20362199.0474   18025904.03546
  14197884.34443                  23688635.1334                   23688634.4454
 -16745099.69147 -12443820.18745  21600187.0084                   21600185.0554
  18036822.21946  13979677.22343  23504600.5084                   23504602.2424
  12373022.64546   9664321.76243  23530648.0394                   23530644.8324
 -11931034.47747  -9233675.16044  22360876.1884                   22360873.6604
 -18873964.89147 -14633165.16845  20642142.8204                   20642140.7774
 11  8 25 18  8  0.0000000  0  9G17G24G07G26G11G13G19G28G08
  10084328.92247   8177953.68444  23194447.2114                   23194446.8134
   1229266.60946   1288779.32844  22495593.0784                   22495593.3954
 -10303389.23047  -8004103.32846  20345558.7114   20345556.3094   17865345.28546
  14072773.69143                  23658081.3914                   23658081.3244
 -16850471.60547 -12525928.16045  21580134.9454                   21580132.6994
  18054491.79746  13993445.46943  23507963.0084                   23507964.4804
  12381577.76646   9670988.00843  23532276.4144                   23532273.7384
 -12049599.34047  -9326063.34844  22338313.8834                   22338311.6564
 -19016477.74247 -14744214.14145  20615023.2344                   20615021.1684
 11  8 25 18  8 30.0000000  0  9G17G24G07G26G11G13G19G28G08
   9901812.92246   8035733.52044  23159714.9454                   23159715.4304
   1087310.08647   1178163.88744  22468579.1414                   22468579.9884
 -10390407.65247  -8071909.91446  20328999.2424   20328997.2854   17705264.89146
  13948035.75043                  23627619.4614                   23627619.3594
 -16955303.01247 -12607614.96145  21560186.1414                   21560184.3554
  18072212.89146  14007253.85943  23511335.6884                   23511337.2734
  12390279.41446   9677768.46143  23533932.2344                   23533929.1764
 -12168116.04747  -9418414.00845  22315761.1954                   22315758.2974
 -19158682.32448 -14855022.90245  20587963.5704                   20587961.0234
 11  8 25 18  9  0.0000000  0  9G17G24G07G26G11G13G19G28G08
   9719541.50046   7893703.93444  23125029.8444                   23125030.4304
    945714.49647   1067829.69544  22441634.4844                   22441635.0784
 -10476982.78547  -8139371.07846  20312524.8914   20312522.4184   17545668.18446
  13823674.69943                  23597248.8444                   23597248.4844
 -17059589.75847 -12688877.34445  21540341.2664                   21540339.0904
  18089985.61346  14021102.45343  23514718.3674                   23514719.7304
  12399127.65646   9684663.13343  23535615.9384                   23535612.5824
 -12286581.94547  -9510725.09445  22293217.4844                   22293214.9774
 -19300572.89147 -14965586.98445  20560962.2114                   20560959.7464
 11  8 25 18  9 30.0000000  0  9G17G24G07G26G11G13G19G28G08
   9537512.13746   7751862.98044  23090390.4694                   23090391.3204
    804478.45347    957775.68444  22414758.7584                   22414758.6134
 -10563117.43447  -8206489.01646  20296134.2274   20296131.4064   17386553.17246
  13699689.04743                  23566970.4304                   23566970.1024
 -17163334.78147 -12769717.62145  21520599.4304                   21520597.1414
  18107802.77146  14034985.70743  23518108.3524                   23518110.3914
  12408116.28546   9691667.18843  23537326.9304                   23537323.6054
 -12405001.96547  -9603000.41445  22270682.6484                   22270680.1334
 -19442150.96547 -15075907.56245  20534020.7504                   20534019.0084
 11  8 25 18 10  0.0000000  0  9G17G24G07G26G11G13G19G28G08
   9355727.93447   7610213.05944  23055798.2194                   23055798.5784
    663605.88747    848004.89844  22387951.1724                   22387951.2384
 -10648809.48047  -8273262.05946  20279827.5394   20279824.7894   17227923.16046
  13576081.29342                  23536784.1884                   23536784.0824
 -17266536.02047 -12850134.17645  21500960.5704                   21500959.1374
  18125662.56346  14048902.12943  23521507.5474                   23521509.0234
  12417244.00846   9698779.62144  23539063.9614                   23539060.8054
 -12523376.09447  -9695239.98044  22248156.8984                   22248155.2624
 -19583412.66047 -15185981.61745  20507139.7194                   20507137.4344
 11  8 25 18 10 30.0000000  0  9G17G24G07G26G11G13G19G28G08
   9174187.86346   7468753.37144  23021252.2584                   23021252.3834
    523097.09447    738517.55144  22361212.8594                   22361212.9454
 -10734059.90647  -8339690.98446  20263604.8754   20263601.9844   17069778.12546
  13452851.41843                  23506688.9064                   23506689.6484
 -17369194.75047 -12930127.99245  21481425.5004                   21481423.0744
  18143559.92646  14062847.85243  23524913.5084                   23524915.5044
  12426505.34046   9705996.16443  23540826.2114                   23540823.3244
 -12641706.87147  -9787445.75444  22225639.3674                   22225637.5044
 -19724357.77048 -15295808.98046  20480318.6484                   20480316.4104
 11  8 25 18 11  0.0000000  0  9G17G24G07G26G11G13G19G28G08
   8992894.95746   7327486.28944  22986753.2504                   22986753.1374
    382955.95747    629316.70743  22334544.7974                   22334545.5594
 -10818866.46947  -8405774.05146  20247467.0314   20247464.2934   16912121.14546
  13330001.84843                  23476689.3054                   23476688.3834
 -17471308.62147 -13009697.23445  21461993.7274                   21461991.8484
  18161492.76246  14076821.20743  23528326.1954                   23528328.5944
  12435898.91446   9713315.75443  23542614.1644                   23542611.0314
 -12759994.07447  -9879617.58645  22203130.4304                   22203127.9494
 -19864982.90247 -15405387.00446  20453558.3834                   20453556.3594
 11  8 25 18 11 30.0000000  0  9G17G24G07G26G11G13G19G28G08
   8811850.10546   7186412.48044  22952301.7034                   22952301.5784
    243184.44547    520403.91044  22307947.1644                   22307948.1914
 -10903228.81247  -8471510.96946  20231412.9924   20231410.6884   16754953.75846
  13207533.78943                  23446780.8284                   23446780.5314
 -17572877.15247 -13088841.52345  21442665.9384                   21442663.8204
  18179457.60946  14090819.50443  23531745.2194                   23531747.5274
  12445421.50446   9720735.86743  23544425.0944                   23544423.2464
 -12878239.13747  -9971756.57845  22180628.9064                   22180626.4534
 -20005286.02347 -15514714.11746  20426859.5554                   20426857.1724
 11  8 25 18 12  0.0000000  0  9G17G24G07G26G11G13G19G28G08
   8631056.16846   7045534.19544  22917898.5164                   22917897.4654
    103786.52747    411782.17244  22281420.2974                   22281420.8674
 -10987144.50447  -8536899.84846  20215444.9224   20215442.6604   16598279.46546
  13085449.98443                  23416967.2344                   23416966.4924
 -17673897.84047 -13167558.94145  21423442.4614                   21423440.4384
  18197452.63746  14104841.30943  23535169.0314                   23535171.7624
  12455071.50046   9728255.27043  23546261.8204                   23546259.5234
 -12996441.53147 -10063862.32445  22158135.6724                   22158133.1054
 -20145263.09847 -15623787.16845  20400222.7504                   20400220.7034
 11  8 25 18 12 30.0000000  0  9G17G24G07G26G11G13G19G28G08
   8450514.02747   6904852.10544  22883541.9454                   22883540.7774
    -35236.01247    303452.96944  22254964.9534                   22254965.9924
 -11070613.55147  -8601940.68446  20199560.8674   20199558.6374   16442099.28146
  12963751.16042                  23387246.0554                   23387246.9304
 -17774371.27347 -13245849.90645  21404322.8524                   21404320.5394
  18215474.08646  14118883.72343  23538599.4454                   23538601.1564
  12464845.59846   9735871.36343  23548121.7814                   23548119.1684
 -13114602.91447 -10155936.11344  22135649.9614                   22135647.6134
 -20284913.02347 -15732605.29746  20373648.5164                   20373646.1214
 11  8 25 18 13  0.0000000  0  9G17G24G07G26G11G13G19G28G08
   8270223.71547   6764366.25844  22849232.6724                   22849233.1884
   -173882.30147    195416.95744  22228581.5084                   22228581.9734
 -11153636.32447  -8666633.78946  20183762.2814   20183759.9734   16286413.54346
  12842437.66443                  23357619.9384                   23357620.4104
 -17874297.77047 -13323714.69945  21385307.3444                   21385305.3134
  18233517.70346  14132943.37943  23542032.8524                   23542035.5354
  12474739.55146   9743580.84443  23550004.6804                   23550002.0474
 -13232725.48447 -10247979.67244  22113172.3204                   22113169.4534
 -20424234.54347 -15841167.52046  20347136.4924                   20347133.8444
 11  8 25 18 13 30.0000000  0  9G17G24G07G26G11G13G19G28G08
   9665612.83247   7851682.58644  23114766.9224                   23114766.8674
   1263275.18446   1315279.96144  22502063.9064                   22502064.0354
  -9660788.77747  -7503375.98446  20467841.4384   20467839.2034   17706650.14146
  13949115.53142                  23627882.0004                   23627881.8874
 -16398252.92647 -12173549.87145  21666189.4534                   21666187.5314
  19826999.92246  15374617.54343  23845262.3754                   23845265.2504
  14060170.77746  10978981.70344  23851702.7814                   23851699.9654
 -11775385.83247  -9112390.32044  22390494.7974                   22390491.8834
 -18987800.06647 -14721867.94146  20620480.5164                   20620478.9024
 11  8 25 18 14  0.0000000  0  9G17G24G07G26G11G13G19G28G08
   9485829.75446   7711591.98844  23080554.9844                   23080554.9614
   1125388.82046   1207836.08644  22475824.4534                   22475825.5744
  -9742916.47747  -7567371.61346  20452213.6254   20452211.0084   17551959.43446
  13828577.31642                  23598446.2194                   23598445.0274
 -16497083.27047 -12250560.52045  21647382.6644                   21647380.5394
  19845078.08246  15388704.10243  23848702.8284                   23848706.0394
  14070296.33246  10986871.66843  23853629.5634                   23853627.1254
 -11893433.46547  -9204375.48044  22368031.2894                   22368028.1294
 -19126457.64847 -14829912.80946  20594095.2504                   20594092.8324
 11  8 25 18 14 30.0000000  0  9G17G24G07G26G11G13G19G28G08
   9306301.37147   7571699.86744  23046392.3754                   23046391.9574
    987884.92247   1100690.20744  22449658.4064                   22449659.0904
  -9824596.48447  -7631018.39546  20436670.1564   20436667.7464   17397767.50446
  13708427.79343                  23569104.5164                   23569103.9344
 -16595365.68747 -12327144.21945  21628680.3284                   21628678.0634
  19863167.59446  15402799.53143  23852146.0864                   23852148.5274
  14080532.19546  10994847.59443  23855577.5554                   23855574.1764
 -12011446.25847  -9296333.48444  22345574.1884                   22345571.1174
 -19264780.99247 -14937697.23445  20567772.9144                   20567771.3754
 11  8 25 18 15  0.0000000  0  9G17G24G07G26G11G13G19G28G08
   9127026.72747   7432005.45744  23012277.1024                   23012276.8874
    850763.69546    993842.54743  22423565.1094                   22423565.8834
  -9905830.35547  -7694317.53546  20421212.1954   20421209.4024   17244074.16846
  13588666.78943                  23539857.0474                   23539857.4064
 -16693101.82047 -12403302.23445  21610081.6804                   21610079.3524
  19881262.82846  15416899.40643  23855589.2974                   23855592.1644
  14090873.58246  11002905.75443  23857545.3134                   23857542.5744
 -12129427.37947  -9388266.83245  22323123.0314                   22323120.2034
 -19402770.07047 -15045221.18446  20541514.4224                   20541512.8794
 11  8 25 18 15 30.0000000  0  9G17G24G07G26G11G13G19G28G08
   8948007.76246   7292510.28144  22978210.9454                   22978211.0234
    714027.95747    887295.26244  22397545.3834                   22397545.3204
  -9986616.94547  -7757268.14846  20405838.6094   20405836.0864   17090881.60246
  13469296.01242                  23510705.5634                   23510705.5474
 -16790290.46947 -12479033.63745  21591587.3284                   21591585.1454
  19899361.66046  15431002.07043  23859034.2114                   23859036.8244
  14101318.12146  11011044.26244  23859532.6954                   23859530.5004
 -12247376.87947  -9480175.52045  22300677.9384                   22300674.9804
 -19540422.12547 -15152482.53945  20515320.3594                   20515318.6414
 11  8 25 18 16  0.0000000  0  9G17G24G07G26G11G13G19G28G08
   8769247.66447   7153216.80544  22944193.2814                   22944193.4774
    577681.85547    781051.57044  22371599.6564                   22371599.8094
 -10066953.47347  -7819868.06646  20390551.2194   20390548.8634   16938193.35246
  13350318.16443                  23481650.1564                   23481650.2734
 -16886929.28147 -12554336.60945  21573197.5944                   21573195.3134
  19917462.83646  15445106.55543  23862478.7424                   23862481.1134
  14111864.60246  11019262.22343  23861539.9924                   23861537.4304
 -12365293.87547  -9572058.87945  22278239.1644                   22278236.7624
 -19677733.13347 -15259478.13346  20489190.9144                   20489189.1024
 11  8 25 18 16 30.0000000  0  9G17G24G07G26G11G13G19G28G08
   8590746.81647   7014125.32844  22910226.0944                   22910226.1564
    441726.94947    675112.73044  22345728.5164                   22345729.0984
 -10146840.18047  -7882117.46946  20375349.0704   20375346.9804   16786010.22746
  13231733.93043                  23452689.8674                   23452690.1334
 -16983018.49647 -12629211.30545  21554912.6484                   21554909.6724
  19935562.17246  15459209.61342  23865922.6804                   23865925.5314
  14122509.72346  11027557.03543  23863566.2194                   23863562.8834
 -12483180.21547  -9663918.35245  22255806.0234                   22255803.6884
 -19814701.26247 -15366206.54745  20463126.7584                   20463124.9144
 11  8 25 18 17  0.0000000  0  9G17G24G07G26G11G13G19G28G08
   8412510.84047   6875240.25044  22876309.0394                   22876308.7384
    306169.78946    569483.82844  22319932.5634                   22319932.8094
 -10226271.74247  -7944012.22346  20360234.1644   20360231.7194   16634338.40646
  13113548.10543                  23423828.6884                   23423827.8324
 -17078553.13747 -12703653.86745  21536732.3834                   21536730.2774
  19953660.66446  15473312.02043  23869367.1884                   23869369.7734
  14133254.59846  11035929.60943  23865610.6644                   23865607.6374
 -12601032.55947  -9755751.32845  22233379.5634                   22233376.8634
 -19951320.02047 -15472662.73046  20437129.0394                   20437126.9654
 11  8 25 18 17 30.0000000  0  9G17G24G07G26G11G13G19G28G08
   8234539.02047   6736561.00844  22842441.5864                   22842441.5354
    171010.30946    464164.78944  22294212.7424                   22294212.9924
 -10305250.11747  -8005553.84446  20345205.3444   20345202.7774   16483177.11346
  12995760.13743                  23395063.2424                   23395063.1954
 -17173535.15247 -12777665.82045  21518658.0944                   21518656.0704
  19971753.44546  15487410.00043  23872810.3984                   23872813.0314
  14144094.84046  11044376.46543  23867673.4534                   23867670.5904
 -12718854.06647  -9847560.28545  22210958.5234                   22210956.0744
 -20087589.46147 -15578846.71146  20411197.7814                   20411195.9654
 11  8 25 18 18  0.0000000  0  9G17G24G07G26G11G13G19G28G08
   8056833.43047   6598089.21544  22808625.4064                   22808625.3834
     36252.14547    359158.44144  22268569.4454                   22268569.1414
 -10383773.31247  -8066740.77746  20330262.8444   20330259.8914   16332529.38346
  12878372.31343                  23366396.5554                   23366395.9534
 -17267963.22747 -12851246.13345  21500688.9304                   21500687.0164
  19989838.45746  15501501.84442  23876252.8674                   23876255.0354
  14155028.84046  11052896.41043  23869754.3364                   23869751.5944
 -12836644.18047  -9939344.78945  22188544.0004                   22188541.5204
 -20223506.12147 -15684755.80546  20385334.1724                   20385332.0474
 11  8 25 18 18 30.0000000  0  9G17G24G07G26G11G13G19G28G08
   7879397.67647   6459827.69944  22774859.8364                   22774860.3954
    -98100.57447    254468.05944  22243002.0864                   22243002.7584
 -10461838.90647  -8127571.13746  20315406.7114   20315404.9654   16182398.55946
  12761387.27043                  23337826.9614                   23337826.7664
 -17361834.33647 -12924392.44945  21482826.2114                   21482823.9414
  20007914.26646  15515586.57042  23879690.9064                   23879695.6414
  14166055.47346  11061488.50843  23871852.1484                   23871849.5234
 -12954401.77747 -10031103.93745  22166135.0234                   22166132.9884
 -20359065.94547 -15790386.84846  20359537.5784                   20359535.5434
 11  8 25 18 19  0.0000000  0  9G17G24G07G26G11G13G19G28G08
   7702232.75047   6321777.20344  22741147.1414                   22741146.8554
   -232045.44147    150095.47744  22217513.1254                   22217513.7304
 -10539445.85547  -8188044.10946  20300639.0314   20300636.2234   16032786.46946
  12644806.44943                  23309356.5864                   23309356.0314
 -17455148.00847 -12997104.39545  21465068.6954                   21465066.6844
  20025978.01646  15529661.89842  23883129.5944                   23883133.2074
  14177172.03546  11070150.68043  23873967.6484                   23873965.4144
 -13072127.60947 -10122838.34845  22143732.5234                   22143730.7304
 -20494266.35247 -15895737.82446  20333810.0704                   20333808.2734
 11  8 25 18 19 30.0000000  0  9G17G24G07G26G11G13G19G28G08
   7525342.48047   6183940.73444  22707485.7664                   22707486.0704
   -365577.88347     46044.25444  22192103.2114                   22192104.1604
 -10616591.33247  -8248157.50846  20285959.4304   20285956.5234   15883697.02746
  12528632.89843                  23280986.2894                   23280985.4804
 -17547901.67647 -13069379.98445  21447418.0394                   21447415.9414
  20044029.20346  15543727.45342  23886564.8444                   23886568.3754
  14188378.26646  11078882.71943  23876100.5164                   23876098.0274
 -13189820.62547 -10214547.18044  22121337.2734                   22121334.1884
 -20629102.48447 -16000804.94546  20308151.6724                   20308149.2934
 11  8 25 18 20  0.0000000  0  9G17G24G07G26G11G13G19G28G08
   7348727.85947   6046319.04344  22673877.6804                   22673877.6604
   -498695.67647    -57683.87544  22166771.6254                   22166772.5514
 -10693274.76247  -8307910.85946  20271366.6564   20271364.3984   15735131.69946
  12412867.77043                  23252714.9844                   23252714.5514
 -17640095.03147 -13141218.94945  21429874.8284                   21429872.5274
  20062064.64846  15557780.70742  23889996.9774                   23890000.8714
  14199671.56346  11087682.58643  23878249.6804                   23878247.0204
 -13307481.64847 -10306231.08645  22098946.4534                   22098944.0864
 -20763572.46147 -16105586.76246  20282562.5554                   20282560.7344
 11  8 25 18 20 30.0000000  0  9G17G24G07G26G11G13G19G28G08
   7172393.73447   5908915.91044  22640322.2894                   22640321.7154
   -631393.57847   -161084.80544  22141519.9844                   22141520.5314
 -10769492.22747  -8367301.12546  20256862.7974   20256860.5234   15587095.40246
  12297514.85243                  23224544.7504                   23224543.3834
 -17731724.32847 -13212618.41045  21412438.6484                   21412436.0434
  20080084.22746  15571821.60542  23893425.9144                   23893430.7624
  14211052.48046  11096550.76143  23880415.4144                   23880412.9614
 -13425107.85947 -10397887.86345  22076563.0864                   22076560.5044
 -20897670.87147 -16210079.03946  20257044.4304                   20257042.4964
 11  8 25 18 21  0.0000000  0  9G17G24G07G26G11G13G19G28G08
   6996340.24247   5771731.46944  22606820.5234                   22606819.5354
   -763670.23446   -264157.48844  22116348.8204                   22116348.9384
 -10845244.01247  -8426328.52046  20242447.5394   20242445.2274   15439588.93446
  12182574.78143                  23196474.9144                   23196474.0904
 -17822790.34447 -13283578.93445  21395108.6174                   21395106.9264
  20098084.25446  15585847.24242  23896852.5784                   23896856.1604
  14222517.02046  11105484.05943  23882596.6884                   23882594.4494
 -13542700.96147 -10489518.84844  22054186.1644                   22054182.9844
 -21031396.17247 -16314280.57445  20231597.6094                   20231595.2734
 11  8 25 18 21 30.0000000  0  9G17G24G07G26G11G13G19G28G08
   6820569.42247   5634767.27044  22573371.7894                   22573371.3484
   -895522.63747   -366899.55544  22091257.8674                   22091258.6804
 -10920528.76247  -8484991.99646  20228121.5864   20228119.2894   15292614.24246
  12068049.04743                  23168506.4454                   23168505.7664
 -17913291.86747 -13354099.57845  21377886.9614                   21377884.2664
  20116062.63746  15599856.06642  23900273.6334                   23900277.1094
  14234063.91446  11114481.56343  23884794.1174                   23884791.9844
 -13660261.12147 -10581124.16045  22031815.0234                   22031812.1484
 -21164745.21147 -16418188.93445  20206222.1724                   20206219.8164
 11  8 25 18 22  0.0000000  0  9G17G24G07G26G11G13G19G28G08
   8220510.46947   6725630.48444  22839771.9534                   22839771.1954
    548477.99647    758295.77344  22366042.0474                   22366042.5434
  -9419921.54747  -7315687.71946  20513677.3444   20513675.1804   16721600.05946
  13181544.52343                  23440433.6484                   23440432.4264
 -16427803.27347 -12196575.99645  21660564.7814   21660564.0314   21709437.65646
  16841446.63743                  24203483.2504                   24203486.3714
  15821111.93046  12351142.27043  24186799.5314                   24186796.9734
 -12202363.11747  -9445099.73445  22309243.9844                   22309241.0744
 -19722289.05147 -15294197.12545  20480712.1724                   20480710.4184
 11  8 25 18 22 30.0000000  0  9G17G24G07G26G11G13G19G28G08
   8045313.66847   6589113.57444  22806432.0164                   22806432.5004
    417485.95747    656224.12544  22341115.1254                   22341115.6134
  -9494265.75847  -7373618.29346  20499530.4844   20499528.2894   16575698.83246
  13067855.29343                  23412669.1174                   23412669.0164
 -16517169.64547 -12266212.12945  21643560.0784   21643558.1054   21727368.42946
  16855418.36143                  24206895.2114                   24206898.8754
  15832819.92246  12360265.29743  24189027.5394                   24189026.1254
 -12319854.48847  -9536651.45345  22286885.8594                   22286883.1484
 -19854873.44547 -15397509.64846  20455482.1334                   20455480.1884
 11  8 25 18 23  0.0000000  0  9G17G24G07G26G11G13G19G28G08
   7870406.60247   6452822.43844  22773149.3284                   22773148.5554
    286928.16847    554490.82444  22316270.4384                   22316271.1174
  -9568138.07447  -7431181.17246  20485472.9454   20485470.7194   16430337.35246
  12954586.62943                  23385007.6804                   23385007.4534
 -16605967.21547 -12335405.03945  21626662.7034   21626660.7304   21745271.48446
  16869368.43043                  24210302.1094                   24210306.3094
  15844605.00846  12369448.39843  24191270.4844                   24191268.4384
 -12437312.10247  -9628176.85545  22264534.4924                   22264531.7234
 -19987071.26247 -15500520.94146  20430325.6954                   20430324.1644
 11  8 25 18 23 30.0000000  0  9G17G24G07G26G11G13G19G28G08
   7695788.99247   6316756.84844  22739920.2894                   22739919.7774
    156805.60947    453096.66844  22291508.8054                   22291509.5394
  -9641539.13747  -7488376.83646  20471505.0864   20471502.7504   16285515.68846
  12841738.60943                  23357449.5314                   23357448.9384
 -16694197.23847 -12404155.69944  21609873.1804   21609870.5394   21763142.64846
  16883293.66443                  24213703.6884                   24213707.7624
  15856464.02746  12378689.11343  24193526.2114                   24193525.0744
 -12554738.03547  -9719677.56645  22242188.6884                   22242186.2464
 -20118882.11347 -15603230.70346  20405242.9774                   20405240.7274
 11  8 25 18 24  0.0000000  0  9G17G24G07G26G11G13G19G28G08
   7521462.59047   6180918.16844  22706746.5084                   22706746.9064
     27120.58647    352043.43044  22266831.3594                   22266831.1374
  -9714468.20347  -7545204.71546  20457626.8914   20457625.0314   16141235.47346
  12729312.48443                  23329993.1254                   23329993.1844
 -16781859.47347 -12472463.91445  21593191.7114   21593189.5314   21780979.42646
  16897192.12142                  24217097.3204                   24217102.1454
  15868394.31346  12387985.34043  24195797.3444                   24195795.2424
 -12672132.72747  -9811153.94144  22219849.8674                   22219846.8984
 -20250303.10947 -15705636.68046  20380234.5944                   20380232.5664
 11  8 25 18 24 30.0000000  0  9G17G24G07G26G11G13G19G28G08
   7347427.77347   6045306.70344  22673628.8444                   22673629.0274
   -102125.58247    251332.20344  22242235.7114                   22242236.5274
  -9786925.99247  -7601665.35946  20443839.0704   20443836.8954   15997497.46546
  12617308.86743                  23302641.2734                   23302641.1334
 -16868954.26247 -12540329.98845  21576618.2424   21576615.5314   21798778.00446
  16911060.80542                  24220485.1484                   24220489.7304
  15880392.20746  12397334.29343  24198080.0084                   24198078.1954
 -12789497.41047  -9902606.93745  22197515.4694                   22197512.7194
 -20381332.66447 -15807737.64546  20355300.4144                   20355298.3054
 11  8 25 18 25  0.0000000  0  9G17G24G07G26G11G13G19G28G08
   7173686.38747   5909923.89144  22640567.1884                   22640567.4224
   -230929.86747    150965.27044  22217725.3444                   22217726.1334
  -9858910.83647  -7657757.48046  20430140.9534   20430138.2154   15854304.06346
  12505729.62943                  23275392.3204                   23275391.7854
 -16955480.29747 -12607752.87545  21560152.7974   21560150.7114   21816536.18046
  16924897.94542                  24223865.0554                   24223869.8054
  15892456.40646  12406734.87543  24200376.7504                   24200374.3444
 -12906831.87547  -9994036.38745  22175188.2424                   22175185.4454
 -20511967.99647 -15909531.40646  20330441.3204                   20330439.2854
 11  8 25 18 25 30.0000000  0  9G17G24G07G26G11G13G19G28G08
   7000236.58247   5774768.27344  22607560.9924                   22607560.3014
   -359293.30147     50941.85944  22193298.5004                   22193299.0044
  -9930425.22347  -7713483.00046  20416532.0394   20416529.8594   15711653.34446
  12394573.24243                  23248246.6564                   23248246.1524
 -17041440.70347 -12674735.00845  21543794.4384   21543793.0514   21834248.20345
  16938699.18842                  24227235.3444                   24227240.5514
  15904581.12146  12416182.60943  24202683.9064                   24202681.3484
 -13024140.22347 -10085445.48445  22152864.3524                   22152862.3914
 -20642209.17247 -16011018.04746  20305657.4144                   20305655.5204
 11  8 25 18 26  0.0000000  0  9G17G24G07G26G11G13G19G28G08
   6827079.07447   5639840.42244  22574609.9614                   22574609.5984
   -487214.51647    -48736.95744  22168956.1174                   22168956.2704
 -10001468.97747  -7768841.80546  20403012.8444   20403010.5434   15569546.29746
  12283840.46943                  23221204.8914                   23221203.7464
 -17126835.76647 -12741276.62545  21527544.2194   21527542.2034   21851910.50045
  16952461.68042                  24230596.8054                   24230602.1134
  15916763.09046  12425674.99243  24205002.2664                   24204999.0004
 -13141423.51647 -10176835.04745  22130546.1024                   22130544.0434
 -20772054.91847 -16112196.55946  20280948.7034                   20280946.4774
 11  8 25 18 26 30.0000000  0  9G17G24G07G26G11G13G19G28G08
   6654214.21147   5505140.59444  22541714.9224                   22541714.3364
   -614692.41046   -148070.36344  22144697.6094                   22144698.2384
 -10072043.21147  -7823834.75446  20389582.8054   20389580.9184   15427983.28546
  12173531.64143                  23194265.8204                   23194265.4024
 -17211666.28947 -12807378.34445  21511402.1804   21511400.0594   21869518.992 5
                                  24233946.680
  15928999.14546  12435209.50443  24207330.1414                   24207328.4534
 -13258683.30547 -10268206.30545  22108232.8364                   22108230.2384
 -20901504.05147 -16213066.02346  20256315.1414                   20256313.4574
 11  8 25 18 27  0.0000000  0  9G17G24G07G26G11G13G19G28G08
   6481641.64847   5370668.52744  22508875.3754                   22508874.8674
   -741726.29347   -247057.73444  22120524.3204                   22120524.4614
 -10142148.94947  -7878462.62146  20376242.3284   20376240.2114   15286963.85946
  12063646.39543                  23167431.3594                   23167430.0204
 -17295933.99647 -12873041.47745  21495366.1254   21495364.0904   21887069.387 5
                                  24237287.172
  15941285.21146  12444783.00043  24209668.1484                   24209666.3204
 -13375921.85947 -10359561.01245  22085922.2734                   22085920.3014
 -21030555.71147 -16313625.75846  20231757.2974                   20231755.5354
 11  8 25 18 27 30.0000000  0  9G17G24G07G26G11G13G19G28G08
   6309362.85547   5236425.38744  22476091.6804                   22476091.3324
   -868313.30547   -345696.94544  22096435.1174                   22096435.5084
 -10211784.71947  -7932724.30146  20362991.1804   20362988.9924   15146490.53946
  11954186.69143                  23140700.4924                   23140699.1334
 -17379637.93747 -12938265.34445  21479438.1254   21479435.7304   21904559.824 5
                                  24240615.953
  15953619.28146  12454393.89843  24212016.3754                   24212013.6914
 -13493139.04747 -10450899.05945  22063617.1564                   22063614.7544
 -21159206.89547 -16413873.43046  20207275.8204                   20207273.9774
 11  8 25 18 28  0.0000000  0  9G17G24G07G26G11G13G19G28G08
   6137375.85547   5102409.59044  22443363.3984                   22443362.8164
   -994454.85547   -443989.00044  22072430.9614                   22072431.2624
 -10280953.69547  -7986622.23446  20349828.7584   20349826.7894   15006560.84846
  11845150.55943                  23114071.8984                   23114071.0044
 -17462781.49647 -13003052.54345  21463616.4924   21463614.2384   21921983.637 6
                                  24243932.133
  15965995.51646  12464037.62543  24214370.7034                   24214368.7934
 -13610339.02047 -10542223.69544  22041314.7734                   22041312.1524
 -21287458.75447 -16513809.94946  20182870.3524                   20182867.8554
 11  8 25 18 28 30.0000000  0  9G17G24G07G26G11G13G19G28G08
   5965682.52047   4968622.62944  22410691.4614                   22410690.7384
  -1120148.39847   -541931.98844  22048512.8674                   22048512.8594
 -10349654.77747  -8040155.58246  20336755.7114   20336753.2274   14867176.84046
  11736539.62943                  23087548.1024                   23087547.7504
 -17545364.02347 -13067402.57045  21447901.5084   21447899.2074   21939338.902 6
                                  24247235.156
  15978412.40646  12473713.04343  24216734.3674                   24216731.7504
 -13727521.76247 -10633534.91445  22019015.0084                   22019012.7704
 -21415308.37147 -16613433.03146  20158541.6804                   20158539.3834
 11  8 25 18 29  0.0000000  0  9G17G24G07G26G11G13G19G28G08
   5794282.35547   4835064.10544  22378074.7894                   22378074.5124
  -1245393.52347   -639525.54744  22024679.5394                   22024679.3444
 -10417889.37547  -8093325.43046  20323770.6644   20323768.7624   14728337.94546
  11628353.47343                  23061127.9224                   23061127.0204
 -17627387.18447 -13131316.73445  21432292.7344   21432290.6294   21956620.734 6
                                  24250524.242
  15990865.51246  12483416.67243  24219103.9844                   24219102.0984
 -13844689.69147 -10724834.58645  21996719.2274                   21996716.5084
 -21542755.39547 -16712742.39846  20134289.1094                   20134287.0434
 11  8 25 18 29 30.0000000  0  9G17G24G07G26G11G13G19G28G08
   5623174.89547   4701733.67645  22345514.1804                   22345513.9264
  -1370189.47747   -736769.12544  22000931.3524                   22000931.3754
 -10485658.30547  -8146132.41846  20310875.0634   20310872.6564   14590044.23046
  11520592.16043                  23034811.1724                   23034810.8984
 -17708852.37147 -13194796.10945  21416790.5784   21416788.4494   21973825.059 6
                                  24253798.586
  16003350.99246  12493145.55943  24221479.9774                   24221476.9804
 -13961844.61347 -10816124.13345  21974425.6094                   21974423.1564
 -21669798.41047 -16811736.96946  20110113.2344                   20110111.6374
 11  8 25 18 30  0.0000000  0  9G17G24G07G26G11G13G19G28G08
   5452362.08247   4568632.83644  22313009.6334                   22313009.1684
  -1494533.68047   -833660.66044  21977269.2974                   21977268.7974
 -10552960.76647  -8198575.93046  20298067.9844   20298065.4924   14452297.52346
  11413257.05143                  23008599.9304                   23008597.9844
 -17789758.78547 -13257840.08245  21401394.3444   21401392.3674   21990949.832 6
                                  24257057.586
  16015867.22746  12502898.39143  24223862.2034                   24223859.2194
 -14078986.67647 -10907403.66045  21952133.7114                   21952131.2894
 -21796434.90647 -16910414.77046  20086015.3914                   20086013.5904
 11  8 25 18 30 30.0000000  0  9G17G24G07G26G11G13G19G28G08
   6857268.96147   5663365.53944  22580353.8754                   22580354.3244
    -43001.62947    297403.29344  22253486.8984                   22253487.0514
  -9044375.86747  -7023055.27046  20585141.9844   20585139.9804   15890521.88346
  12533951.37143                  23282284.9144                   23282283.6644
 -16294685.73447 -12092848.10545  21685898.1024   21685895.5314   23583409.89146
  18200276.91052                  24560091.7504                   24560097.3714
  17603829.62546  13740271.59843  24526040.5084                   24526038.4384
 -12620694.00847  -9771071.69145  22229637.7194                   22229635.6024
 -20347239.88347 -15781171.89846  20361788.1024                   20361786.1994
 11  8 25 18 31  0.0000000  0  9G17G24G07G26G11G13G19G28G08
   6687048.55147   5530726.31644  22547962.7584                   22547962.1994
   -166436.39147    201220.40644  22229997.6414                   22229998.0004
  -9110744.43047  -7074771.07046  20572512.4534   20572510.3164   15753872.60946
  12427471.40643                  23256280.6804                   23256279.6054
 -16374475.25047 -12155021.76645  21670714.0634   21670712.1564   23600367.02746
  18213489.90642                  24563319.4144                   24563324.9734
  17616399.97746  13750066.57443  24528432.4614                   24528430.1724
 -12737811.66447  -9862332.20745  22207350.8594                   22207348.3364
 -20473056.61347 -15879210.92646  20337846.0164                   20337844.2704
 11  8 25 18 31 30.0000000  0  9G17G24G07G26G11G13G19G28G08
   6517123.68847   5398317.39544  22515626.7734                   22515626.5864
   -289415.97746    105392.20744  22206595.0234                   22206596.1414
  -9176647.71547  -7126124.31246  20559971.3754   20559969.0554   15617771.43046
  12321418.55143                  23230381.3914                   23230380.5864
 -16453708.77347 -12216762.18445  21655636.8524   21655634.5274   23617233.65646
  18226632.35242                  24566529.5314                   24566535.0594
  17628991.68846  13759878.22343  24530828.3284                   24530825.8164
 -12854920.28547  -9953585.67245  22185066.0474                   22185063.6604
 -20598462.61347 -15976929.89846  20313982.1024                   20313979.9924
 11  8 25 18 32  0.0000000  0  9G17G24G07G26G11G13G19G28G08
   6347497.51647   5266141.21145  22483348.4144                   22483347.6134
   -411936.64547      9921.59044  22183280.8204                   22183280.6804
  -9242083.84047  -7177113.53146  20547519.4614   20547517.2234   15482221.36746
  12215795.10243                  23204587.2664                   23204586.8754
 -16532384.57447 -12278068.01245  21640665.3444   21640662.7034   23634009.03946
  18239703.69542                  24569721.7034                   24569728.4224
  17641603.84046  13769705.77043  24533228.8834                   24533226.6454
 -12972018.54747 -10044831.05945  22162782.9844                   22162780.4924
 -20723453.64147 -16074325.52046  20290197.3984                   20290195.3984
 11  8 25 18 32 30.0000000  0  9G17G24G07G26G11G13G19G28G08
   6178170.06647   5134197.79345  22451126.2504                   22451126.0164
   -533997.41047    -85190.65244  22160053.1724                   22160053.4184
  -9307053.59847  -7227739.35546  20535156.7344   20535154.0084   15347222.41846
  12110601.15243                  23178897.6954                   23178897.3834
 -16610503.77047 -12338940.13745  21625799.4384   21625797.3754   23650689.18046
  18252700.85542                  24572895.6644                   24572903.0044
  17654233.42246  13779546.95343  24535631.3364                   24535630.1094
 -13089108.23047 -10136069.76245  22140501.3984                   22140498.7584
 -20848028.35247 -16171396.72746  20266491.2034                   20266489.2074
 11  8 25 18 33  0.0000000  0  9G17G24G07G26G11G13G19G28G08
   6009142.96147   5002488.43045  22418960.8364                   22418961.0744
   -655595.62547   -179942.48844  22136913.8984                   22136913.7344
  -9371555.96547  -7278000.97346  20522882.0084   20522879.6564   15212776.42246
  12005838.02343                  23153314.0944                   23153312.6294
 -16688065.87147 -12399378.13745  21611040.2344   21611037.6054   23667272.39145
  18265622.52342                  24576050.9844                   24576059.2814
  17666878.38746  13789400.09843  24538038.9844                   24538036.7584
 -13206189.12947 -10227301.63745  22118221.2814                   22118218.9844
 -20972184.31647 -16268141.64546  20242865.2734                   20242863.0824
 11  8 25 18 33 30.0000000  0  9G17G24G07G26G11G13G19G28G08
   5840416.90247   4871013.63345  22386853.4534                   22386853.3444
   -776729.85947   -274332.74644  22113862.0944                   22113862.7664
  -9435591.04747  -7327898.46546  20510696.2664   20510694.1454   15078884.13746
  11901506.40643                  23127833.7814                   23127834.0554
 -16765071.53947 -12459382.56244  21596386.4614   21596384.0474   23683755.33645
  18278466.00842                  24579189.8134                   24579196.3594
  17679536.08646  13799263.12143  24540446.9304                   24540445.9844
 -13323262.02747 -10318527.25445  22095943.6564                   22095941.5394
 -21095919.50848 -16364558.68446  20219319.1644                   20219317.2074
 11  8 25 18 34  0.0000000  0  9G17G24G07G26G11G13G19G28G08
   5671991.75047   4739773.31645  22354803.2584                   22354802.9224
   -897399.63347   -368361.10544  22090899.9614                   22090900.2664
  -9499159.81647  -7377432.60946  20498599.6024   20498597.5474   14945545.18446
  11797605.93043                  23102460.7424                   23102460.5784
 -16841522.15247 -12518954.48445  21581838.3674   21581836.0314   23700134.06345
  18291228.28142                  24582306.7194                   24582314.0434
  17692203.18046  13809133.55142  24542858.4614                   24542856.3834
 -13440328.84047 -10409748.13344  22073666.5004                   22073663.8204
 -21219232.81647 -16460646.99245  20195853.4224                   20195851.0664
 11  8 25 18 34 30.0000000  0  9G17G24G07G26G11G13G19G28G08
   5503866.34047   4608766.57445  22322809.8754                   22322810.0124
  -1017605.02746   -462027.60244  22068025.7344                   22068025.6024
  -9562264.19147  -7426604.88346  20486591.3914   20486589.6804   14812758.86946
  11694136.09243                  23077192.7894                   23077192.5864
 -16917420.02047 -12578095.69945  21567395.0234   21567393.1804   23716403.96545
  18303905.76642                  24585402.6174                   24585410.4654
  17704875.43846  13819007.95742  24545270.4384                   24545268.3054
 -13557391.68747 -10500965.93045  22051390.3364                   22051387.7894
 -21342124.07447 -16556406.42646  20172468.0474                   20172465.6604
 11  8 25 18 35  0.0000000  0  9G17G24G07G26G11G13G19G28G08
   5336042.43847   4477994.75845  22290874.3984                   22290873.6454
  -1137343.79747   -555330.51244  22045239.5004                   22045240.0944
  -9624903.48447  -7475414.76246  20474671.6954   20474669.7074   14680526.36746
  11591097.77743                  23052029.0314                   23052029.2194
 -16992765.01247 -12636806.07845  21553057.7194   21553055.4344   23732562.38745
  18316496.42242                  24588477.3674                   24588485.6024
  17717550.72346  13828884.71142  24547681.3444                   24547679.5164
 -13674451.01647 -10592180.98445  22029114.3444                   22029111.8284
 -21464590.73847 -16651835.02346  20149163.7034                   20149161.2194
 11  8 25 18 35 30.0000000  0  9G17G24G07G26G11G13G19G28G08
   5168520.35547   4347458.12545  22258995.7504                   22258995.3674
  -1256614.69147   -648268.84044  22022542.7814                   22022543.5594
  -9687078.30547  -7523862.71146  20462840.0704   20462837.8594   14548848.01646
  11488491.27344                  23026971.7814                   23026971.6844
 -17067557.91847 -12695086.28945  21538825.2194   21538822.5944   23748606.31645
  18328997.83642                  24591531.0634                   24591538.9264
  17730226.11746  13838761.59843  24550093.3364                   24550091.7274
 -13791507.70747 -10683393.98045  22006839.4224                   22006836.5864
 -21586631.46147 -16746931.69546  20125940.0164                   20125937.8714
 11  8 25 18 36  0.0000000  0  9G17G24G07G26G11G13G19G28G08
   5001301.56647   4217157.82845  22227175.1024                   22227174.7274
  -1375415.62147   -740840.98044  21999936.6024                   21999936.9534
  -9748787.50447  -7571947.84046  20451097.3674   20451095.1954   14417725.35946
  11386317.77343                  23002020.3364                   23002020.1914
 -17141798.66847 -12752936.23045  21524697.3524   21524695.2034   23764533.35245
  18341408.09042                  24594561.7584                   24594570.4694
  17742899.71546  13848637.05543  24552504.8204                   24552503.9734
 -13908561.83647 -10774604.98845  21984564.5554                   21984561.9614
 -21708243.39847 -16841694.25846  20102798.1954                   20102795.4844
 11  8 25 18 36 30.0000000  0  9G17G24G07G26G11G13G19G28G08
   4834383.75047   4087092.05144  22195411.9144                   22195410.5554
  -1493748.10547   -833048.09044  21977418.7974                   21977418.4654
  -9810035.09447  -7619673.27046  20439442.1724   20439440.1844   14287155.82446
  11284575.28943                  22977173.4064                   22977173.2464
 -17215490.79347 -12810358.68445  21510674.3834   21510672.2154   23780337.461 6
                                  24597570.539
  17755566.21546  13858506.99643  24554916.1724                   24554914.3244
 -14025617.21947 -10865816.97345  21962289.5084                   21962287.1724
 -21829427.56247 -16936123.48446  20079737.3054                   20079734.8284
 11  8 25 18 37  0.0000000  0  8G17G24G07G26G11G19G28G08
   4667769.69147   3957262.97745  22163706.0394                   22163705.3364
  -1611608.43047   -924887.28544  21954990.2584                   21954990.1484
  -9870819.05147  -7667037.42646  20427875.2734   20427873.5594   14157142.10246
  11183265.88343                  22952433.1094                   22952432.8134
 -17288633.14847 -12867352.71145  21496756.1254   21496753.4614
  17768224.89846  13868370.82843  24557324.0004                   24557323.1374
 -14142672.58247 -10957028.93745  21940015.1024                   21940011.9694
 -21950180.29347 -17030216.53946  20056759.0314                   20056757.0744
 11  8 25 18 37 30.0000000  0  8G17G24G07G26G11G19G28G08
   4501460.43447   3827671.39144  22132057.9774                   22132057.7774
  -1728994.82847  -1016357.19944  21932652.1724                   21932652.2384
  -9931138.93747  -7714039.97346  20416396.8834   20416394.5594   14027685.42646
  11082390.57444                  22927798.3364                   22927797.7274
 -17361225.63747 -12923918.30145  21482941.6484   21482939.9534
  17780873.77046  13878227.05543  24559731.0704                   24559730.0204
 -14259728.19947 -11048241.10945  21917740.0944                   21917737.2704
 -22070499.40247 -17123971.70746  20033863.0474                   20033860.5164
 11  8 25 18 38  0.0000000  0  8G17G24G07G26G11G19G28G08
   4335456.23447   3698317.53145  22100468.8674                   22100468.5474
  -1845906.38347  -1107457.06644  21910404.7274                   21910404.8954
  -9990995.29747  -7760681.33246  20405007.1724   20405004.8984   13898785.60246
  10981949.16843                  22903268.9144                   22903268.9184
 -17433269.85247 -12980056.66845  21469232.4304   21469230.2304
  17793509.83246  13888073.21943  24562136.3984                   24562134.7464
 -14376785.18047 -11139454.34445  21895465.1094                   21895461.9774
 -22190383.60547 -17217387.97746  20011049.8984                   20011047.7894
 11  8 25 18 38 30.0000000  0  8G17G24G07G26G11G19G28G08
   4169764.80947   3569207.38345  22068938.7194                   22068938.5274
  -1962334.42647  -1198180.21944  21888249.4384                   21888249.1134
 -10050381.42247  -7806956.28146  20393705.9924   20393703.7384   13770450.71546
  10881947.94943                  22878848.5234                   22878847.3444
 -17504759.10947 -13035762.59845  21455628.8364   21455625.9304
  17806137.82446  13897913.14143  24564539.9144                   24564537.5864
 -14493837.21947 -11230663.72345  21873190.2114                   21873187.4384
 -22309823.63347 -17310458.13746  19988321.3054                   19988318.9884
 11  8 25 18 39  0.0000000  0  8G17G24G07G26G11G19G28G08
   5579814.03147   4667947.08645  22337262.0784                   22337261.7154
   -502852.32846    -60921.42644  22165979.3674                   22165979.7504
  -8533873.81647  -6625262.07846  20682288.1644   20682286.0984   15218106.74646
  12009991.59043                  23154328.2344                   23154326.8404
 -16000270.27047 -11863433.64144  21741923.7114   21741920.9224   19394176.57446
  15135345.89843                  24866733.2274                   24866731.6764
 -13035459.34047 -10094265.37945  22150710.5314                   22150708.0234
 -20853392.28148 -16175576.57046  20265470.6174                   20265468.2814
 11  8 25 18 39 30.0000000  0  8G17G24G07G26G11G19G28G08
   5414752.87947   4539328.05145  22305852.0314                   22305851.3404
   -618307.06647   -150886.16044  22144009.4534                   22144009.0904
  -8592317.73847  -6670802.83646  20671166.6024   20671164.1804   15090905.13346
  11910873.45743                  23130122.2894                   23130121.5164
 -16070649.41447 -11918274.53545  21728529.9924   21728528.3484   19406783.24246
  15145169.13743                  24869133.8914                   24869131.1254
 -13152500.67647 -10185466.40245  22128438.2274                   22128436.0514
 -20971936.47347 -16267948.68745  20242912.6254                   20242910.2734
 11  8 25 18 40  0.0000000  0  8G17G24G07G26G11G19G28G08
   5250006.55947   4410954.34845  22274501.8834                   22274501.1174
   -733274.27347   -240470.98844  22122131.8284                   22122131.3874
  -8650292.03947  -6715977.65646  20660134.7194   20660132.3324   14964269.89546
  11812196.63344                  23106024.2504                   23106023.6094
 -16140475.96147 -11972684.85245  21715242.7894   21715240.8914   19419374.52045
  15154980.46143                  24871527.8914                   24871526.4144
 -13269538.99647 -10276665.09445  22106166.4844                   22106163.9804
 -21090031.06647 -16359970.46146  20220439.3444                   20220437.9614
 11  8 25 18 40 30.0000000  0  8G17G24G07G26G11G19G28G08
   5085575.06647   4282825.95745  22243211.5634                   22243211.1644
   -847753.50847   -329675.55944  22100347.2664                   22100346.7114
  -8707797.68447  -6760787.27346  20649191.0164   20649188.9924   14838200.39846
  11713960.64844                  23082034.1564                   23082033.4104
 -16209751.16847 -12026665.54745  21702060.0634   21702057.8754   19431947.18045
  15164777.19942                  24873920.2274                   24873918.9184
 -13386575.52047 -10367862.38345  22083894.8364                   22083892.7034
 -21207675.17647 -16451641.21145  20198053.0634                   20198050.6884
 11  8 25 18 41  0.0000000  0  8G17G24G07G26G11G19G28G08
   4921458.46547   4154942.94545  22211981.5084                   22211980.5634
   -961743.94547   -418499.25444  22078654.9384                   22078655.0394
  -8764835.73447  -6805232.55546  20638337.1804   20638335.1684   14712696.74646
  11616165.60543                  23058150.8284                   23058150.3484
 -16278476.84047 -12080218.03145  21688982.1334   21688980.3364   19444498.35945
  15174557.25442                  24876309.1644                   24876307.8674
 -13503611.60947 -10459059.32845  22061623.6804                   22061621.5314
 -21324867.75047 -16542960.10945  20175752.1564                   20175750.1994
 11  8 25 18 41 30.0000000  0  7G17G24G07G26G11G28G08
   4757658.14147   4027306.36745  22180811.0554                   22180809.9924
  -1075243.72347   -506940.64844  22057057.0704                   22057056.5004
  -8821406.00447  -6849313.31646  20627572.6254   20627570.5314   14587759.96146
  11518812.25044                  23034377.1414                   23034375.9184
 -16346653.09847 -12133342.40645  21676008.4774   21676006.3834
 -13620647.43047 -10550256.06645  22039353.1094                   22039350.3984
 -21441606.21547 -16633925.16046  20153537.1564                   20153535.2154
 11  8 25 18 42  0.0000000  0  7G17G24G07G26G11G28G08
   4594177.61347   3899918.99645  22149701.1254                   22149700.7814
  -1188248.29747   -594996.13744  22035552.8594                   22035552.8984
  -8877505.50847  -6893027.24646  20616896.9774   20616895.0434   14463393.52046
  11421903.34443                  23010710.7274                   23010710.4064
 -16414277.60247 -12186036.82844  21663140.4144   21663138.0314
 -13737680.05547 -10641450.32045  22017081.9534                   22017079.9734
 -21557885.37548 -16724532.30546  20131410.6254                   20131408.3014
 11  8 25 18 42 30.0000000  0  7G17G24G07G26G11G28G08
   4431022.14547   3772784.90245  22118653.6884                   22118653.3914
  -1300751.73047   -682661.13344  22014143.7584                   22014144.3634
  -8933130.00447  -6936371.05946  20606311.9454   20606309.8634   14339602.51646
  11325442.82043                  22987153.9224                   22987153.2774
 -16481346.50047 -12238298.33245  21650377.5314   21650375.5354
 -13854705.74247 -10732639.16445  21994812.7894                   21994810.5744
 -21673699.12147 -16814776.79745  20109371.6174                   20109369.2234
 11  8 25 18 43  0.0000000  0  7G17G24G07G26G11G28G08
   4268197.13747   3645908.31645  22087669.0474                   22087668.5354
  -1412748.10547   -769931.02744  21992831.5084                   21992831.8364
  -8988274.92247  -6979341.15246  20595817.9064   20595816.0704   14216391.70346
  11229434.39843                  22963708.1484                   22963707.3164
 -16547855.95747 -12290123.89545  21637720.7194   21637719.3204
 -13971720.25047 -10823819.29745  21972546.2814                   21972543.5704
 -21789041.12147 -16904653.69946  20087422.8364                   20087420.8984
 11  8 25 18 43 30.0000000  0  7G17G24G07G26G11G28G08
   4105705.02747   3519291.13745  22056748.1414                   22056747.6214
  -1524234.66447   -856803.66044  21971617.0634                   21971616.9414
  -9042939.46547  -7021936.94546  20585416.4224   20585414.2814   14093763.31646
  11133879.77743                  22940372.6334                   22940371.5474
 -16613805.50447 -12341513.16444  21625171.4304   21625168.9064
 -14088722.54747 -10914989.92245  21950281.4614                   21950278.5204
 -21903908.08647 -16994160.44546  20065564.2814                   20065562.0864
 11  8 25 18 44  0.0000000  0  7G17G24G07G26G11G28G08
   3943543.73447   3392931.73845  22025889.9144                   22025889.2664
  -1635212.28147   -943279.72744  21950498.2274                   21950498.2734
  -9097126.03547  -7064160.28946  20575104.8134   20575102.6724   13971715.43846
  11038777.54743                  22917148.2034                   22917147.0274
 -16679198.30547 -12392468.59045  21612727.3284   21612725.7344
 -14205715.46547 -11006153.23445  21928018.4774                   21928015.6214
 -22018300.55947 -17083297.45346  20043796.4694                   20043794.3364
 11  8 25 18 44 30.0000000  0  7G17G24G07G26G11G28G08
   3781714.40647   3266831.01245  21995094.3524                   21995094.0354
  -1745679.46947  -1029358.02344  21929477.2814                   21929477.2234
  -9150834.75447  -7106011.27746  20564884.0314   20564882.5124   13850248.47346
  10944127.93843                  22894033.9614                   22894032.3914
 -16744034.72347 -12442990.49645  21600389.6414   21600387.1844
 -14322699.14847 -11097309.35245  21905757.2274                   21905754.5164
 -22132216.05147 -17172062.78946  20022119.1954                   20022117.0554
 11  8 25 18 45  0.0000000  0  7G17G24G07G26G11G28G08
   3620218.26247   3140989.89545  21964362.9144                   21964362.4734
  -1855634.39547  -1115037.16844  21908553.3754                   21908553.6094
  -9204065.17648  -7147489.57846  20554755.6254   20554753.0124   13729363.82046
  10849932.12943                  22871029.9384                   22871028.5274
 -16808315.15647 -12493079.15645  21588157.5554   21588155.4694
 -14439673.12547 -11188457.90645  21883497.7274                   21883494.7154
 -22245652.25847 -17260454.64846  20000532.7814                   20000530.9654
 11  8 25 18 45 30.0000000  0  7G17G24G07G26G11G28G08
   3459055.51647   3015408.57845  21933694.5634                   21933694.2074
  -1965076.28147  -1200316.55944  21887727.3364                   21887727.3634
  -9256818.26247  -7188595.92246  20544716.4064   20544714.4224   13609060.85546
  10756189.53943                  22848136.4844                   22848135.7774
 -16872041.13747 -12542735.77744  21576030.8524   21576028.5354
 -14556638.71147 -11279599.92245  21861239.6724                   21861237.1884
 -22358608.21947 -17348472.29346  19979037.9924                   19979035.7344
 11  8 25 18 46  0.0000000  0  7G17G24G07G26G11G28G08
   3298227.28947   2890087.92245  21903090.2344                   21903089.8324
  -2074003.76647  -1285195.10244  21866999.3984                   21866999.0664
  -9309093.78547  -7229330.14146  20534768.9064   20534766.7114   13489340.33246
  10662900.81343                  22825354.4064                   22825352.8244
 -16935213.02747 -12591960.64145  21564009.6564   21564007.6174
 -14673595.93747 -11370735.42245  21838983.6094                   21838980.7854
 -22471081.55147 -17436113.86746  19957635.0864                   19957632.4614
 11  8 25 18 46 30.0000000  0  7G17G24G07G26G11G28G08
   3137735.16447   2765029.16045  21872549.7504                   21872549.0664
  -2182414.39547  -1369670.90644  21846369.5314                   21846369.4494
  -9360891.71947  -7269692.20746  20524912.1954   20524909.9884   13370203.77746
  10570067.13743                  22802683.9224                   22802682.3834
 -16997830.80947 -12640753.73045  21552094.0164   21552091.8984
 -14790543.93747 -11461863.73045  21816728.8674                   21816726.2704
 -22583069.13347 -17523376.93446  19936324.2114                   19936322.1374
 11  8 25 18 47  0.0000000  0  7G17G24G07G26G11G28G08
   2977579.73447   2640232.77345  21842072.9304                   21842072.0234
  -2290306.93447  -1453743.00444  21825838.0234                   21825838.0744
  -9412211.82047  -7309681.94146  20515145.8754   20515143.8714   13251651.12146
  10477688.43443                  22780123.9064                   22780123.3404
 -17059895.39147 -12689115.75044  21540283.6724   21540281.4734
 -14907483.14847 -11552985.18045  21794475.8134                   21794473.7344
 -22694569.48047 -17610260.34446  19915106.9534                   19915104.3594
 11  8 25 18 47 30.0000000  0  7G17G24G07G26G11G28G08
   4393186.23047   3743302.80545  22111454.4064                   22111452.9964
   -822257.59847   -309808.44144  22105198.6024                   22105198.3634
  -7887634.10947  -6121699.35546  20805263.4844   20805261.3324   14709105.90246
  11613367.47743                  23057467.9224                   23057467.4414
 -15545986.71547 -11509446.64844  21828370.0704   21828368.7704
 -13448991.01647 -10416497.81245  22072018.1334                   22072015.8674
 -21230158.14147 -16469160.60246  20193774.9304                   20193772.8134
 11  8 25 18 48  0.0000000  0  7G17G24G07G26G11G28G08
   4233701.38747   3619028.94945  22081104.5394                   22081104.1054
   -929115.44547   -393074.27044  22084863.6724                   22084863.6024
  -7938005.44947  -6160949.79746  20795678.4924   20795676.5044   14591717.37546
  11521895.89543                  23035129.3364                   23035129.2274
 -15606952.89847 -11556952.77344  21816769.5474   21816767.2194
 -13565918.75847 -10507610.33645  22049767.2344                   22049764.8714
 -21340684.09447 -16555284.74246  20172742.3054                   20172740.1764
 11  8 25 18 48 30.0000000  0  7G17G24G07G26G11G28G08
   4074553.53947   3495017.68045  22050820.1724                   22050819.1564
  -1035453.21147   -475934.84844  22064628.6884                   22064628.6294
  -7987901.95747  -6199830.25446  20786183.4614   20786181.5984   14474912.00046
  11430878.70743                  23012902.0004                   23012902.1094
 -15667370.66447 -11604031.58644  21805271.7664   21805270.1414
 -13682840.45747 -10598718.16045  22027517.6724                   22027514.7894
 -21450719.26648 -16641026.44146  20151803.3674                   20151801.3284
 11  8 25 18 49  0.0000000  0  7G17G24G07G26G11G28G08
   3915742.85947   3371269.13345  22020599.5864                   22020598.0274
  -1141270.23047   -558389.67244  22044492.2034                   22044492.3674
  -8037324.74247  -6238341.55546  20776778.3524   20776776.8244   14358689.36746
  11340315.61743                  22990785.8444                   22990785.3954
 -15727241.40247 -11650684.11745  21793879.8834   21793877.1884
 -13799756.91847 -10689821.89545  22005269.4844                   22005266.6914
 -21560262.30547 -16726384.67246  20130957.9844                   20130955.9384
 11  8 25 18 49 30.0000000  0  7G17G24G07G26G11G28G08
   3757270.01647   3247783.83245  21990443.0234                   21990441.9414
  -1246565.41847   -640437.86344  22024455.7194                   22024455.0204
  -8086273.96947  -6276483.86746  20767463.7664   20767461.7934   14243049.90246
  11250206.93443                  22968780.8524                   22968780.0204
 -15786566.12947 -11696911.19145  21782590.3134   21782587.8164
 -13916668.36747 -10780921.70745  21983022.1174                   21983019.4104
 -21669311.35247 -16811357.97746  20110206.8054                   20110204.9844
 11  8 25 18 50  0.0000000  0  7G17G24G07G26G11G28G08
   3599135.87547   3124562.45345  21960350.5084                   21960350.1564
  -1351337.85547   -722078.70344  22004517.6954                   22004517.5514
  -8134750.56647  -6314257.88345  20758239.0554   20758237.2814   14127993.50046
  11160552.58243                  22946885.8134                   22946885.4614
 -15845345.94147 -11742713.65244  21771404.5554   21771402.5744
 -14033574.87947 -10872017.68745  21960775.1644                   21960772.5434
 -21777864.87147 -16895945.14546  20089549.6724                   20089547.8554
 11  8 25 18 50 30.0000000  0  7G17G24G07G26G11G28G08
   3441343.97747   3001607.77345  21930324.3754                   21930323.1914
  -1455582.69547   -803308.41844  21984680.9224                   21984680.6684
  -8182750.78547  -6351660.71545  20749105.0234   20749102.8404   14013524.21146
  11071355.72743                  22925103.8444                   22925102.7304
 -15903578.07047 -11788089.34445  21760323.5004   21760321.4104
 -14150472.96547 -10963107.09845  21938530.5944                   21938527.8984
 -21885917.63747 -16980142.11746  20068988.5554                   20068986.1684
 11  8 25 18 51  0.0000000  0  7G17G24G07G26G11G28G08
   3283896.52747   2878921.48445  21900363.0554                   21900362.1134
  -1559297.69147   -884125.30544  21964944.7894                   21964944.4184
  -8230274.41047  -6388692.16046  20740061.7274   20740059.7974   13899642.99646
  10982617.10243                  22903432.4924                   22903431.8524
 -15961262.66447 -11833038.37545  21749346.3204   21749343.9184
 -14267362.16847 -11054189.57445  21916287.0784                   21916284.8754
 -21993466.89847 -17063946.75046  20048521.8054                   20048519.9534
 11  8 25 18 51 30.0000000  0  7G17G24G07G26G11G28G08
   3126793.61347   2756503.67245  21870467.1254                   21870466.2384
  -1662481.96947   -964528.62144  21945309.0004                   21945308.7384
  -8277321.83647  -6425352.53546  20731108.5394   20731107.1724   13786349.94146
  10894336.78943                  22881873.5554                   22881873.3014
 -16018401.10247 -11877561.86345  21738473.5944   21738471.2424
 -14384242.83247 -11145265.41445  21894045.0394                   21894042.7664
 -22100511.21547 -17147357.93745  20028152.2894                   20028149.9844
 11  8 25 18 52  0.0000000  0  7G17G24G07G26G11G28G08
   2970038.07447   2634356.53945  21840638.0944                   21840636.7114
  -1765132.47747  -1044516.02044  21925775.0704                   21925775.4454
  -8323891.71547  -6461640.81245  20722246.7274   20722245.1644   13673647.05146
  10806516.35243                  22860426.8284                   22860426.7304
 -16074992.10247 -11921658.75044  21727704.4924   21727702.1414
 -14501112.81247 -11236332.92245  21871805.7114                   21871803.1054
 -22207046.44547 -17230372.41845  20007879.3284                   20007877.4384
 11  8 25 18 52 30.0000000  0  7G17G24G07G26G11G28G08
   2813630.17647   2512480.29745  21810874.3284                   21810873.2934
  -1867248.44946  -1124086.90244  21906343.0164                   21906343.2704
  -8369984.85547  -6497557.61346  20713475.4304   20713473.7384   13561534.27746
  10719155.71143                  22839092.2504                   22839092.0864
 -16131037.16847 -11965330.24644  21717039.6804   21717037.1484
 -14617972.73047 -11327392.59845  21849567.9614                   21849565.1804
 -22313071.27347 -17312989.19546  19987702.9694                   19987701.4384
